Time,TemperatureF,DewpointF,PressureIn,WindDirection,WindDirectionDegrees,WindSpeedMPH,WindSpeedGustMPH,Humidity,HourlyPrecipIn,Conditions,Clouds,dailyrainin,SolarRadiationWatts/m^2,SoftwareType,DateUTC
2012-11-10 00:00:00,52.9,46.6,30.24,ENE,64,0.0,4.0,79,0.00,,---,0.00,0.00,VWS V14.01,2012-11-10 05:00:00,
2012-11-10 00:01:00,52.9,46.2,30.24,ENE,64,0.0,4.0,78,0.00,,---,0.00,0.00,VWS V14.01,2012-11-10 05:01:00,
2012-11-10 00:02:00,52.8,46.5,30.24,NE,35,1.0,2.0,79,0.00,,---,0.00,0.00,VWS V14.01,2012-11-10 05:02:00,
2012-11-10 00:03:00,52.7,46.4,30.24,NE,35,1.0,2.0,79,0.00,,---,0.00,0.00,VWS V14.01,2012-11-10 05:03:00,
2012-11-10 00:04:00,52.7,46.4,30.24,NE,35,0.0,2.0,79,0.00,,---,0.00,0.00,VWS V14.01,2012-11-10 05:04:00,
2012-11-10 00:05:00,52.7,46.4,30.24,NE,35,0.0,2.0,79,0.00,,---,0.00,0.00,VWS V14.01,2012-11-10 05:05:00,
2012-11-10 00:06:00,52.8,46.5,30.24,NE,49,0.0,4.0,79,0.00,,---,0.00,0.00,VWS V14.01,2012-11-10 05:06:00,
2012-11-10 00:07:00,52.7,46.7,30.24,NE,35,1.0,2.0,80,0.00,,---,0.00,0.00,VWS V14.01,2012-11-10 05:07:00,
2012-11-10 00:08:00,52.7,46.7,30.24,NE,38,0.0,2.0,80,0.00,,---,0.00,0.00,VWS V14.01,2012-11-10 05:08:00,
2012-11-10 00:09:00,52.7,46.7,30.24,NE,38,0.0,2.0,80,0.00,,---,0.00,0.00,VWS V14.01,2012-11-10 05:09:00,
2012-11-10 00:10:00,52.7,46.7,30.24,NE,43,1.0,2.0,80,0.00,,---,0.00,0.00,VWS V14.01,2012-11-10 05:10:00,
2012-11-10 00:11:00,52.6,46.6,30.24,NNE,31,1.0,2.0,80,0.00,,---,0.00,0.00,VWS V14.01,2012-11-10 05:11:00,
2012-11-10 00:12:00,52.8,46.5,30.24,NE,35,1.0,2.0,79,0.00,,---,0.00,0.00,VWS V14.01,2012-11-10 05:12:00,
2012-11-10 00:13:00,52.7,46.7,30.24,NE,56,1.0,3.0,80,0.00,,---,0.00,0.00,VWS V14.01,2012-11-10 05:13:00,
2012-11-10 00:14:00,52.6,46.9,30.24,ENE,64,0.0,3.0,81,0.00,,---,0.00,0.00,VWS V14.01,2012-11-10 05:14:00,
2012-11-10 00:15:00,52.6,46.9,30.24,ENE,64,0.0,3.0,81,0.00,,---,0.00,0.00,VWS V14.01,2012-11-10 05:15:00,
2012-11-10 00:16:00,52.5,46.8,30.24,ENE,64,0.0,3.0,81,0.00,,---,0.00,0.00,VWS V14.01,2012-11-10 05:16:00,
2012-11-10 00:17:00,52.7,46.7,30.24,NE,35,0.0,2.0,80,0.00,,---,0.00,0.00,VWS V14.01,2012-11-10 05:17:00,
2012-11-10 00:18:00,52.4,46.8,30.24,ENE,65,1.0,3.0,81,0.00,,---,0.00,0.00,VWS V14.01,2012-11-10 05:18:00,
2012-11-10 00:19:00,52.4,46.8,30.24,NE,55,1.0,3.0,81,0.00,,---,0.00,0.00,VWS V14.01,2012-11-10 05:19:00,
2012-11-10 00:20:00,52.4,46.8,30.24,NE,53,0.0,3.0,81,0.00,,---,0.00,0.00,VWS V14.01,2012-11-10 05:20:00,
2012-11-10 00:21:00,52.4,47.1,30.24,NE,53,0.0,3.0,82,0.00,,---,0.00,0.00,VWS V14.01,2012-11-10 05:21:00,
2012-11-10 00:22:00,52.7,46.7,30.24,ENE,58,1.0,3.0,80,0.00,,---,0.00,0.00,VWS V14.01,2012-11-10 05:22:00,
2012-11-10 00:23:00,52.3,47.0,30.24,NE,51,1.0,3.0,82,0.00,,---,0.00,0.00,VWS V14.01,2012-11-10 05:23:00,
2012-11-10 00:24:00,52.3,47.0,30.24,NE,56,2.0,3.0,82,0.00,,---,0.00,0.00,VWS V14.01,2012-11-10 05:24:00,
2012-11-10 00:25:00,52.3,47.0,30.24,NNE,21,1.0,3.0,82,0.00,,---,0.00,0.00,VWS V14.01,2012-11-10 05:25:00,
2012-11-10 00:26:00,52.3,47.0,30.24,NE,38,1.0,4.0,82,0.00,,---,0.00,0.00,VWS V14.01,2012-11-10 05:26:00,
2012-11-10 00:27:00,52.4,46.8,30.24,ENE,66,2.0,3.0,81,0.00,,---,0.00,0.00,VWS V14.01,2012-11-10 05:27:00,
2012-11-10 00:28:00,52.4,47.4,30.24,ENE,58,3.0,4.0,83,0.00,,---,0.00,0.00,VWS V14.01,2012-11-10 05:28:00,
2012-11-10 00:29:00,52.4,47.4,30.24,NE,44,0.0,4.0,83,0.00,,---,0.00,0.00,VWS V14.01,2012-11-10 05:29:00,
2012-11-10 00:30:00,52.4,47.4,30.24,NNE,24,2.0,4.0,83,0.00,,---,0.00,0.00,VWS V14.01,2012-11-10 05:30:00,
2012-11-10 00:31:00,52.5,47.5,30.24,NNE,20,0.0,4.0,83,0.00,,---,0.00,0.00,VWS V14.01,2012-11-10 05:31:00,
2012-11-10 00:32:00,52.3,47.0,30.24,NE,51,1.0,3.0,82,0.00,,---,0.00,0.00,VWS V14.01,2012-11-10 05:32:00,
2012-11-10 00:33:00,52.5,47.5,30.24,NNE,28,0.0,4.0,83,0.00,,---,0.00,0.00,VWS V14.01,2012-11-10 05:33:00,
2012-11-10 00:34:00,52.5,47.5,30.24,NE,37,0.0,4.0,83,0.00,,---,0.00,0.00,VWS V14.01,2012-11-10 05:34:00,
2012-11-10 00:35:00,52.4,47.4,30.24,NE,50,1.0,4.0,83,0.00,,---,0.00,0.00,VWS V14.01,2012-11-10 05:35:00,
2012-11-10 00:36:00,52.4,47.7,30.24,NE,50,1.0,4.0,84,0.00,,---,0.00,0.00,VWS V14.01,2012-11-10 05:36:00,
2012-11-10 00:37:00,52.4,47.4,30.24,ENE,58,3.0,4.0,83,0.00,,---,0.00,0.00,VWS V14.01,2012-11-10 05:37:00,
2012-11-10 00:38:00,52.4,47.7,30.24,ENE,76,1.0,4.0,84,0.00,,---,0.00,0.00,VWS V14.01,2012-11-10 05:38:00,
2012-11-10 00:39:00,52.4,47.7,30.24,ENE,70,1.0,4.0,84,0.00,,---,0.00,0.00,VWS V14.01,2012-11-10 05:39:00,
2012-11-10 00:40:00,52.4,47.7,30.24,ENE,58,2.0,4.0,84,0.00,,---,0.00,0.00,VWS V14.01,2012-11-10 05:40:00,
2012-11-10 00:41:00,52.4,47.7,30.24,ENE,58,1.0,4.0,84,0.00,,---,0.00,0.00,VWS V14.01,2012-11-10 05:41:00,
2012-11-10 00:42:00,52.5,47.5,30.24,NNE,28,0.0,4.0,83,0.00,,---,0.00,0.00,VWS V14.01,2012-11-10 05:42:00,
2012-11-10 00:43:00,52.4,47.7,30.24,NE,54,0.0,4.0,84,0.00,,---,0.00,0.00,VWS V14.01,2012-11-10 05:43:00,
2012-11-10 00:44:00,52.3,47.6,30.24,NE,54,0.0,4.0,84,0.00,,---,0.00,0.00,VWS V14.01,2012-11-10 05:44:00,
2012-11-10 00:45:00,52.3,47.6,30.24,NE,54,1.0,4.0,84,0.00,,---,0.00,0.00,VWS V14.01,2012-11-10 05:45:00,
2012-11-10 00:46:00,52.3,47.6,30.24,NNE,22,0.0,4.0,84,0.00,,---,0.00,0.00,VWS V14.01,2012-11-10 05:46:00,
2012-11-10 00:47:00,52.4,47.7,30.24,NE,52,1.0,4.0,84,0.00,,---,0.00,0.00,VWS V14.01,2012-11-10 05:47:00,
2012-11-10 00:48:00,52.3,47.9,30.24,ENE,73,0.0,4.0,85,0.00,,---,0.00,0.00,VWS V14.01,2012-11-10 05:48:00,
2012-11-10 00:49:00,52.3,47.9,30.24,ENE,58,0.0,4.0,85,0.00,,---,0.00,0.00,VWS V14.01,2012-11-10 05:49:00,
2012-11-10 00:50:00,52.3,47.9,30.24,East,95,2.0,4.0,85,0.00,,---,0.00,0.00,VWS V14.01,2012-11-10 05:50:00,
2012-11-10 00:51:00,52.3,47.9,30.24,NE,37,2.0,4.0,85,0.00,,---,0.00,0.00,VWS V14.01,2012-11-10 05:51:00,
2012-11-10 00:52:00,52.4,47.7,30.24,NE,54,0.0,4.0,84,0.00,,---,0.00,0.00,VWS V14.01,2012-11-10 05:52:00,
2012-11-10 00:53:00,52.3,47.6,30.24,ENE,70,4.0,4.0,84,0.00,,---,0.00,0.00,VWS V14.01,2012-11-10 05:53:00,
2012-11-10 00:54:00,52.3,47.6,30.24,NE,49,1.0,5.0,84,0.00,,---,0.00,0.00,VWS V14.01,2012-11-10 05:54:00,
2012-11-10 00:55:00,52.3,47.6,30.24,ENE,70,0.0,5.0,84,0.00,,---,0.00,0.00,VWS V14.01,2012-11-10 05:55:00,
2012-11-10 00:56:00,52.3,47.6,30.24,NNE,31,1.0,5.0,84,0.00,,---,0.00,0.00,VWS V14.01,2012-11-10 05:56:00,
2012-11-10 00:57:00,52.3,47.9,30.24,ENE,73,1.0,4.0,85,0.00,,---,0.00,0.00,VWS V14.01,2012-11-10 05:57:00,
2012-11-10 00:58:00,52.3,47.6,30.24,NNE,12,2.0,5.0,84,0.00,,---,0.00,0.00,VWS V14.01,2012-11-10 05:58:00,
2012-11-10 00:59:00,52.4,47.7,30.24,East,98,1.0,5.0,84,0.00,,---,0.00,0.00,VWS V14.01,2012-11-10 05:59:00,
2012-11-10 01:00:00,52.4,47.7,30.24,NNE,21,5.0,5.0,84,0.00,,---,0.00,0.00,VWS V14.01,2012-11-10 06:00:00,
2012-11-10 01:01:00,52.5,47.8,30.24,East,95,2.0,5.0,84,0.00,,---,0.00,0.00,VWS V14.01,2012-11-10 06:01:00,
2012-11-10 01:02:00,52.5,47.8,30.24,NNE,13,1.0,5.0,84,0.00,,---,0.00,0.00,VWS V14.01,2012-11-10 06:02:00,
2012-11-10 01:03:00,52.3,47.6,30.24,NE,46,1.0,5.0,84,0.00,,---,0.00,0.00,VWS V14.01,2012-11-10 06:03:00,
2012-11-10 01:04:00,52.7,48.0,30.24,North,355,2.0,5.0,84,0.00,,---,0.00,0.00,VWS V14.01,2012-11-10 06:04:00,
2012-11-10 01:05:00,52.7,48.0,30.24,NE,48,0.0,5.0,84,0.00,,---,0.00,0.00,VWS V14.01,2012-11-10 06:05:00,
2012-11-10 01:06:00,52.7,48.3,30.24,NE,37,1.0,5.0,85,0.00,,---,0.00,0.00,VWS V14.01,2012-11-10 06:06:00,
2012-11-10 01:07:00,52.7,48.3,30.24,NE,40,3.0,5.0,85,0.00,,---,0.00,0.00,VWS V14.01,2012-11-10 06:07:00,
2012-11-10 01:08:00,52.4,47.7,30.24,NNE,12,0.0,5.0,84,0.00,,---,0.00,0.00,VWS V14.01,2012-11-10 06:08:00,
2012-11-10 01:09:00,52.7,48.0,30.24,East,83,0.0,5.0,84,0.00,,---,0.00,0.00,VWS V14.01,2012-11-10 06:09:00,
2012-11-10 01:10:00,52.7,48.0,30.24,ENE,78,1.0,5.0,84,0.00,,---,0.00,0.00,VWS V14.01,2012-11-10 06:10:00,
2012-11-10 01:11:00,52.7,48.0,30.24,NE,37,2.0,5.0,84,0.00,,---,0.00,0.00,VWS V14.01,2012-11-10 06:11:00,
2012-11-10 01:12:00,52.7,48.0,30.24,NNE,27,1.0,5.0,84,0.00,,---,0.00,0.00,VWS V14.01,2012-11-10 06:12:00,
2012-11-10 01:13:00,52.7,48.0,30.24,East,88,1.0,5.0,84,0.00,,---,0.00,0.00,VWS V14.01,2012-11-10 06:13:00,
2012-11-10 01:14:00,52.7,48.0,30.24,ENE,63,0.0,5.0,84,0.00,,---,0.00,0.00,VWS V14.01,2012-11-10 06:14:00,
2012-11-10 01:15:00,52.6,47.9,30.24,ENE,64,0.0,5.0,84,0.00,,---,0.00,0.00,VWS V14.01,2012-11-10 06:15:00,
2012-11-10 01:16:00,52.6,47.9,30.24,East,88,4.0,5.0,84,0.00,,---,0.00,0.00,VWS V14.01,2012-11-10 06:16:00,
2012-11-10 01:17:00,52.6,47.9,30.24,East,87,0.0,5.0,84,0.00,,---,0.00,0.00,VWS V14.01,2012-11-10 06:17:00,
2012-11-10 01:18:00,52.7,48.0,30.24,East,83,0.0,5.0,84,0.00,,---,0.00,0.00,VWS V14.01,2012-11-10 06:18:00,
2012-11-10 01:19:00,52.6,47.9,30.24,NW,326,2.0,5.0,84,0.00,,---,0.00,0.00,VWS V14.01,2012-11-10 06:19:00,
2012-11-10 01:20:00,52.5,47.8,30.24,NNE,24,0.0,5.0,84,0.00,,---,0.00,0.00,VWS V14.01,2012-11-10 06:20:00,
2012-11-10 01:21:00,52.5,47.8,30.24,NNE,24,0.0,5.0,84,0.00,,---,0.00,0.00,VWS V14.01,2012-11-10 06:21:00,
2012-11-10 01:22:00,52.5,47.8,30.24,ENE,75,2.0,5.0,84,0.00,,---,0.00,0.00,VWS V14.01,2012-11-10 06:22:00,
2012-11-10 01:23:00,52.7,48.0,30.24,ENE,63,0.0,5.0,84,0.00,,---,0.00,0.00,VWS V14.01,2012-11-10 06:23:00,
2012-11-10 01:24:00,52.5,47.8,30.24,NNE,25,1.0,5.0,84,0.00,,---,0.00,0.00,VWS V14.01,2012-11-10 06:24:00,
2012-11-10 01:25:00,52.4,47.7,30.25,NE,42,2.0,5.0,84,0.00,,---,0.00,0.00,VWS V14.01,2012-11-10 06:25:00,
2012-11-10 01:26:00,52.4,47.7,30.25,NE,45,0.0,5.0,84,0.00,,---,0.00,0.00,VWS V14.01,2012-11-10 06:26:00,
2012-11-10 01:27:00,52.4,47.7,30.25,ENE,62,3.0,5.0,84,0.00,,---,0.00,0.00,VWS V14.01,2012-11-10 06:27:00,
2012-11-10 01:28:00,52.6,47.9,30.24,ENE,75,2.0,5.0,84,0.00,,---,0.00,0.00,VWS V14.01,2012-11-10 06:28:00,
2012-11-10 01:29:00,52.4,48.0,30.25,ESE,108,1.0,5.0,85,0.00,,---,0.00,0.00,VWS V14.01,2012-11-10 06:29:00,
2012-11-10 01:30:00,52.4,48.0,30.25,ENE,60,2.0,5.0,85,0.00,,---,0.00,0.00,VWS V14.01,2012-11-10 06:30:00,
2012-11-10 01:31:00,52.3,47.9,30.25,ESE,102,5.0,5.0,85,0.00,,---,0.00,0.00,VWS V14.01,2012-11-10 06:31:00,
2012-11-10 01:32:00,52.3,47.9,30.25,NE,55,3.0,5.0,85,0.00,,---,0.00,0.00,VWS V14.01,2012-11-10 06:32:00,
2012-11-10 01:33:00,52.5,47.8,30.24,NE,37,2.0,5.0,84,0.00,,---,0.00,0.00,VWS V14.01,2012-11-10 06:33:00,
2012-11-10 01:34:00,52.3,47.9,30.24,ENE,76,0.0,5.0,85,0.00,,---,0.00,0.00,VWS V14.01,2012-11-10 06:34:00,
2012-11-10 01:35:00,52.3,47.9,30.24,ENE,72,1.0,5.0,85,0.00,,---,0.00,0.00,VWS V14.01,2012-11-10 06:35:00,
2012-11-10 01:36:00,52.3,47.9,30.25,ENE,72,0.0,5.0,85,0.00,,---,0.00,0.00,VWS V14.01,2012-11-10 06:36:00,
2012-11-10 01:37:00,52.4,48.3,30.25,ENE,72,0.0,5.0,86,0.00,,---,0.00,0.00,VWS V14.01,2012-11-10 06:37:00,
2012-11-10 01:38:00,52.4,48.0,30.25,ESE,108,1.0,5.0,85,0.00,,---,0.00,0.00,VWS V14.01,2012-11-10 06:38:00,
2012-11-10 01:39:00,52.3,48.2,30.24,NE,36,0.0,5.0,86,0.00,,---,0.00,0.00,VWS V14.01,2012-11-10 06:39:00,
2012-11-10 01:40:00,52.3,47.9,30.24,NNE,18,1.0,5.0,85,0.00,,---,0.00,0.00,VWS V14.01,2012-11-10 06:40:00,
2012-11-10 01:41:00,52.3,48.2,30.25,NE,43,2.0,5.0,86,0.00,,---,0.00,0.00,VWS V14.01,2012-11-10 06:41:00,
2012-11-10 01:42:00,52.3,48.2,30.24,NE,39,1.0,5.0,86,0.00,,---,0.00,0.00,VWS V14.01,2012-11-10 06:42:00,
2012-11-10 01:43:00,52.3,47.9,30.24,ENE,76,1.0,5.0,85,0.00,,---,0.00,0.00,VWS V14.01,2012-11-10 06:43:00,
2012-11-10 01:44:00,52.2,48.2,30.25,NNE,21,3.0,5.0,86,0.00,,---,0.00,0.00,VWS V14.01,2012-11-10 06:44:00,
2012-11-10 01:45:00,52.2,48.2,30.25,NNE,27,1.0,5.0,86,0.00,,---,0.00,0.00,VWS V14.01,2012-11-10 06:45:00,
2012-11-10 01:46:00,52.2,48.2,30.25,ENE,64,2.0,5.0,86,0.00,,---,0.00,0.00,VWS V14.01,2012-11-10 06:46:00,
2012-11-10 01:47:00,52.2,48.2,30.25,ENE,77,5.0,5.0,86,0.00,,---,0.00,0.00,VWS V14.01,2012-11-10 06:47:00,
2012-11-10 01:48:00,52.3,48.2,30.24,NE,35,0.0,5.0,86,0.00,,---,0.00,0.00,VWS V14.01,2012-11-10 06:48:00,
2012-11-10 01:49:00,52.2,48.2,30.25,ENE,72,0.0,5.0,86,0.00,,---,0.00,0.00,VWS V14.01,2012-11-10 06:49:00,
2012-11-10 01:50:00,52.2,48.2,30.25,ENE,68,1.0,5.0,86,0.00,,---,0.00,0.00,VWS V14.01,2012-11-10 06:50:00,
2012-11-10 01:51:00,52.1,48.0,30.25,NE,49,2.0,5.0,86,0.00,,---,0.00,0.00,VWS V14.01,2012-11-10 06:51:00,
2012-11-10 01:52:00,52.1,48.0,30.25,NE,43,0.0,5.0,86,0.00,,---,0.00,0.00,VWS V14.01,2012-11-10 06:52:00,
2012-11-10 01:53:00,52.2,48.2,30.25,NNE,21,3.0,5.0,86,0.00,,---,0.00,0.00,VWS V14.01,2012-11-10 06:53:00,
2012-11-10 01:54:00,52.1,48.0,30.25,NE,56,0.0,5.0,86,0.00,,---,0.00,0.00,VWS V14.01,2012-11-10 06:54:00,
2012-11-10 01:55:00,52.1,48.0,30.25,NE,41,1.0,5.0,86,0.00,,---,0.00,0.00,VWS V14.01,2012-11-10 06:55:00,
2012-11-10 01:56:00,52.1,48.0,30.25,NE,52,0.0,5.0,86,0.00,,---,0.00,0.00,VWS V14.01,2012-11-10 06:56:00,
2012-11-10 01:57:00,52.1,48.4,30.25,NE,52,0.0,5.0,87,0.00,,---,0.00,0.00,VWS V14.01,2012-11-10 06:57:00,
2012-11-10 01:58:00,52.1,48.4,30.25,ENE,68,1.0,5.0,87,0.00,,---,0.00,0.00,VWS V14.01,2012-11-10 06:58:00,
2012-11-10 01:59:00,52.2,48.2,30.25,ENE,72,0.0,5.0,86,0.00,,---,0.00,0.00,VWS V14.01,2012-11-10 06:59:00,
2012-11-10 02:00:00,52.1,48.4,30.25,NNE,23,1.0,1.0,87,0.00,,---,0.00,0.00,VWS V14.01,2012-11-10 07:00:00,
2012-11-10 02:01:00,52.0,48.3,30.25,NNE,27,0.0,4.0,87,0.00,,---,0.00,0.00,VWS V14.01,2012-11-10 07:01:00,
2012-11-10 02:02:00,52.0,48.3,30.25,ENE,70,3.0,4.0,87,0.00,,---,0.00,0.00,VWS V14.01,2012-11-10 07:02:00,
2012-11-10 02:03:00,52.0,48.3,30.25,ENE,59,2.0,4.0,87,0.00,,---,0.00,0.00,VWS V14.01,2012-11-10 07:03:00,
2012-11-10 02:04:00,52.1,48.0,30.25,NE,41,3.0,5.0,86,0.00,,---,0.00,0.00,VWS V14.01,2012-11-10 07:04:00,
2012-11-10 02:05:00,51.9,48.2,30.25,East,81,0.0,4.0,87,0.00,,---,0.00,0.00,VWS V14.01,2012-11-10 07:05:00,
2012-11-10 02:06:00,51.9,48.2,30.25,NE,54,4.0,5.0,87,0.00,,---,0.00,0.00,VWS V14.01,2012-11-10 07:06:00,
2012-11-10 02:07:00,51.9,48.2,30.25,NNE,32,2.0,5.0,87,0.00,,---,0.00,0.00,VWS V14.01,2012-11-10 07:07:00,
2012-11-10 02:08:00,51.9,48.2,30.25,NNE,28,1.0,5.0,87,0.00,,---,0.00,0.00,VWS V14.01,2012-11-10 07:08:00,
2012-11-10 02:09:00,52.1,48.4,30.25,NE,52,0.0,5.0,87,0.00,,---,0.00,0.00,VWS V14.01,2012-11-10 07:09:00,
2012-11-10 02:10:00,51.9,48.2,30.25,ENE,62,1.0,5.0,87,0.00,,---,0.00,0.00,VWS V14.01,2012-11-10 07:10:00,
2012-11-10 02:11:00,51.9,48.2,30.25,NE,45,2.0,5.0,87,0.00,,---,0.00,0.00,VWS V14.01,2012-11-10 07:11:00,
2012-11-10 02:12:00,51.9,48.2,30.25,NE,40,2.0,5.0,87,0.00,,---,0.00,0.00,VWS V14.01,2012-11-10 07:12:00,
2012-11-10 02:13:00,51.9,48.2,30.25,East,79,1.0,5.0,87,0.00,,---,0.00,0.00,VWS V14.01,2012-11-10 07:13:00,
2012-11-10 02:14:00,51.9,48.2,30.25,East,81,0.0,4.0,87,0.00,,---,0.00,0.00,VWS V14.01,2012-11-10 07:14:00,
2012-11-10 02:15:00,51.9,48.2,30.25,NE,49,1.0,5.0,87,0.00,,---,0.00,0.00,VWS V14.01,2012-11-10 07:15:00,
2012-11-10 02:16:00,51.9,48.2,30.25,NNE,19,1.0,5.0,87,0.00,,---,0.00,0.00,VWS V14.01,2012-11-10 07:16:00,
2012-11-10 02:17:00,51.9,48.2,30.25,East,82,1.0,5.0,87,0.00,,---,0.00,0.00,VWS V14.01,2012-11-10 07:17:00,
2012-11-10 02:18:00,52.0,48.3,30.25,NNE,33,1.0,5.0,87,0.00,,---,0.00,0.00,VWS V14.01,2012-11-10 07:18:00,
2012-11-10 02:19:00,51.9,48.2,30.25,ENE,62,2.0,5.0,87,0.00,,---,0.00,0.00,VWS V14.01,2012-11-10 07:19:00,
2012-11-10 02:20:00,52.0,48.3,30.25,ENE,65,2.0,5.0,87,0.00,,---,0.00,0.00,VWS V14.01,2012-11-10 07:20:00,
2012-11-10 02:21:00,52.0,48.3,30.25,NNE,29,3.0,5.0,87,0.00,,---,0.00,0.00,VWS V14.01,2012-11-10 07:21:00,
2012-11-10 02:22:00,52.0,48.3,30.25,NNE,31,1.0,5.0,87,0.00,,---,0.00,0.00,VWS V14.01,2012-11-10 07:22:00,
2012-11-10 02:23:00,52.0,48.3,30.25,NE,35,0.0,5.0,87,0.00,,---,0.00,0.00,VWS V14.01,2012-11-10 07:23:00,
2012-11-10 02:24:00,51.9,48.2,30.25,NE,48,1.0,5.0,87,0.00,,---,0.00,0.00,VWS V14.01,2012-11-10 07:24:00,
2012-11-10 02:25:00,52.0,48.3,30.25,ESE,110,2.0,5.0,87,0.00,,---,0.00,0.00,VWS V14.01,2012-11-10 07:25:00,
2012-11-10 02:26:00,52.0,48.3,30.25,ENE,69,3.0,5.0,87,0.00,,---,0.00,0.00,VWS V14.01,2012-11-10 07:26:00,
2012-11-10 02:27:00,51.9,48.2,30.25,East,79,0.0,5.0,87,0.00,,---,0.00,0.00,VWS V14.01,2012-11-10 07:27:00,
2012-11-10 02:28:00,51.9,48.2,30.25,ENE,77,1.0,5.0,87,0.00,,---,0.00,0.00,VWS V14.01,2012-11-10 07:28:00,
2012-11-10 02:29:00,52.0,48.3,30.25,NE,52,0.0,5.0,87,0.00,,---,0.00,0.00,VWS V14.01,2012-11-10 07:29:00,
2012-11-10 02:30:00,52.0,48.3,30.25,ENE,66,1.0,5.0,87,0.00,,---,0.00,0.00,VWS V14.01,2012-11-10 07:30:00,
2012-11-10 02:31:00,52.0,48.3,30.25,ESE,104,1.0,5.0,87,0.00,,---,0.00,0.00,VWS V14.01,2012-11-10 07:31:00,
2012-11-10 02:32:00,52.0,48.3,30.25,NE,43,1.0,5.0,87,0.00,,---,0.00,0.00,VWS V14.01,2012-11-10 07:32:00,
2012-11-10 02:33:00,52.0,48.3,30.25,NE,43,0.0,5.0,87,0.00,,---,0.00,0.00,VWS V14.01,2012-11-10 07:33:00,
2012-11-10 02:34:00,52.0,48.3,30.25,ESE,110,2.0,5.0,87,0.00,,---,0.00,0.00,VWS V14.01,2012-11-10 07:34:00,
2012-11-10 02:35:00,52.0,48.3,30.25,East,82,1.0,5.0,87,0.00,,---,0.00,0.00,VWS V14.01,2012-11-10 07:35:00,
2012-11-10 02:36:00,52.1,48.4,30.25,NE,41,1.0,5.0,87,0.00,,---,0.00,0.00,VWS V14.01,2012-11-10 07:36:00,
2012-11-10 02:37:00,52.0,48.3,30.24,NE,56,4.0,5.0,87,0.00,,---,0.00,0.00,VWS V14.01,2012-11-10 07:37:00,
2012-11-10 02:38:00,52.0,48.3,30.24,NE,53,2.0,5.0,87,0.00,,---,0.00,0.00,VWS V14.01,2012-11-10 07:38:00,
2012-11-10 02:39:00,52.0,48.3,30.25,ENE,66,1.0,5.0,87,0.00,,---,0.00,0.00,VWS V14.01,2012-11-10 07:39:00,
2012-11-10 02:40:00,52.1,48.4,30.24,ENE,60,0.0,5.0,87,0.00,,---,0.00,0.00,VWS V14.01,2012-11-10 07:40:00,
2012-11-10 02:41:00,52.1,48.4,30.24,ENE,61,0.0,5.0,87,0.00,,---,0.00,0.00,VWS V14.01,2012-11-10 07:41:00,
2012-11-10 02:42:00,52.1,48.7,30.24,ENE,71,2.0,5.0,88,0.00,,---,0.00,0.00,VWS V14.01,2012-11-10 07:42:00,
2012-11-10 02:43:00,52.1,48.4,30.24,ENE,60,2.0,5.0,87,0.00,,---,0.00,0.00,VWS V14.01,2012-11-10 07:43:00,
2012-11-10 02:44:00,52.1,48.7,30.24,NE,35,3.0,5.0,88,0.00,,---,0.00,0.00,VWS V14.01,2012-11-10 07:44:00,
2012-11-10 02:45:00,52.1,48.4,30.25,NE,46,2.0,5.0,87,0.00,,---,0.00,0.00,VWS V14.01,2012-11-10 07:45:00,
2012-11-10 02:46:00,52.1,48.7,30.24,NE,36,0.0,5.0,88,0.00,,---,0.00,0.00,VWS V14.01,2012-11-10 07:46:00,
2012-11-10 02:47:00,52.1,48.7,30.24,ENE,71,1.0,5.0,88,0.00,,---,0.00,0.00,VWS V14.01,2012-11-10 07:47:00,
2012-11-10 02:48:00,52.1,48.7,30.24,NE,50,1.0,5.0,88,0.00,,---,0.00,0.00,VWS V14.01,2012-11-10 07:48:00,
2012-11-10 02:49:00,52.1,48.7,30.24,ENE,59,1.0,5.0,88,0.00,,---,0.00,0.00,VWS V14.01,2012-11-10 07:49:00,
2012-11-10 02:50:00,52.1,48.4,30.24,ENE,61,0.0,5.0,87,0.00,,---,0.00,0.00,VWS V14.01,2012-11-10 07:50:00,
2012-11-10 02:51:00,52.0,48.6,30.24,NNE,31,0.0,5.0,88,0.00,,---,0.00,0.00,VWS V14.01,2012-11-10 07:51:00,
2012-11-10 02:52:00,52.0,48.6,30.24,ENE,58,3.0,5.0,88,0.00,,---,0.00,0.00,VWS V14.01,2012-11-10 07:52:00,
2012-11-10 02:53:00,51.9,48.2,30.24,NE,54,1.0,5.0,87,0.00,,---,0.00,0.00,VWS V14.01,2012-11-10 07:53:00,
2012-11-10 02:54:00,51.9,48.2,30.24,East,83,0.0,5.0,87,0.00,,---,0.00,0.00,VWS V14.01,2012-11-10 07:54:00,
2012-11-10 02:55:00,52.1,48.7,30.24,NE,36,0.0,5.0,88,0.00,,---,0.00,0.00,VWS V14.01,2012-11-10 07:55:00,
2012-11-10 02:56:00,51.8,48.1,30.24,East,83,0.0,5.0,87,0.00,,---,0.00,0.00,VWS V14.01,2012-11-10 07:56:00,
2012-11-10 02:57:00,51.8,48.4,30.24,ENE,63,0.0,5.0,88,0.00,,---,0.00,0.00,VWS V14.01,2012-11-10 07:57:00,
2012-11-10 02:58:00,51.8,48.4,30.24,ENE,62,1.0,5.0,88,0.00,,---,0.00,0.00,VWS V14.01,2012-11-10 07:58:00,
2012-11-10 02:59:00,51.8,48.4,30.24,ENE,62,0.0,5.0,88,0.00,,---,0.00,0.00,VWS V14.01,2012-11-10 07:59:00,
2012-11-10 03:00:00,52.0,48.6,30.24,NNE,31,0.0,5.0,88,0.00,,---,0.00,0.00,VWS V14.01,2012-11-10 08:00:00,
2012-11-10 03:01:00,51.7,48.3,30.24,East,81,0.0,2.0,88,0.00,,---,0.00,0.00,VWS V14.01,2012-11-10 08:01:00,
2012-11-10 03:02:00,51.7,48.3,30.24,ENE,63,3.0,3.0,88,0.00,,---,0.00,0.00,VWS V14.01,2012-11-10 08:02:00,
2012-11-10 03:03:00,51.7,48.3,30.24,ENE,73,2.0,4.0,88,0.00,,---,0.00,0.00,VWS V14.01,2012-11-10 08:03:00,
2012-11-10 03:04:00,51.7,48.3,30.24,NE,41,3.0,4.0,88,0.00,,---,0.00,0.00,VWS V14.01,2012-11-10 08:04:00,
2012-11-10 03:05:00,51.8,48.1,30.24,East,83,1.0,5.0,87,0.00,,---,0.00,0.00,VWS V14.01,2012-11-10 08:05:00,
2012-11-10 03:06:00,51.7,48.3,30.24,NE,41,1.0,4.0,88,0.00,,---,0.00,0.00,VWS V14.01,2012-11-10 08:06:00,
2012-11-10 03:07:00,51.7,48.3,30.24,NE,39,1.0,4.0,88,0.00,,---,0.00,0.00,VWS V14.01,2012-11-10 08:07:00,
2012-11-10 03:08:00,51.6,48.2,30.24,NE,52,0.0,4.0,88,0.00,,---,0.00,0.00,VWS V14.01,2012-11-10 08:08:00,
2012-11-10 03:09:00,51.6,48.2,30.24,ENE,63,1.0,4.0,88,0.00,,---,0.00,0.00,VWS V14.01,2012-11-10 08:09:00,
2012-11-10 03:10:00,51.7,48.3,30.24,East,83,0.0,2.0,88,0.00,,---,0.00,0.00,VWS V14.01,2012-11-10 08:10:00,
2012-11-10 03:11:00,51.6,48.2,30.24,NE,52,1.0,4.0,88,0.00,,---,0.00,0.00,VWS V14.01,2012-11-10 08:11:00,
2012-11-10 03:12:00,51.6,48.2,30.24,NE,48,1.0,4.0,88,0.00,,---,0.00,0.00,VWS V14.01,2012-11-10 08:12:00,
2012-11-10 03:13:00,51.6,48.2,30.24,NE,43,0.0,4.0,88,0.00,,---,0.00,0.00,VWS V14.01,2012-11-10 08:13:00,
2012-11-10 03:14:00,51.6,48.2,30.24,NE,49,0.0,4.0,88,0.00,,---,0.00,0.00,VWS V14.01,2012-11-10 08:14:00,
2012-11-10 03:15:00,51.6,48.2,30.24,NE,41,1.0,4.0,88,0.00,,---,0.00,0.00,VWS V14.01,2012-11-10 08:15:00,
2012-11-10 03:16:00,51.6,48.2,30.24,ENE,75,0.0,4.0,88,0.00,,---,0.00,0.00,VWS V14.01,2012-11-10 08:16:00,
2012-11-10 03:17:00,51.5,48.4,30.24,ENE,58,0.0,4.0,89,0.00,,---,0.00,0.00,VWS V14.01,2012-11-10 08:17:00,
2012-11-10 03:18:00,51.5,48.4,30.24,ENE,59,1.0,5.0,89,0.00,,---,0.00,0.00,VWS V14.01,2012-11-10 08:18:00,
2012-11-10 03:19:00,51.5,48.4,30.24,East,91,1.0,5.0,89,0.00,,---,0.00,0.00,VWS V14.01,2012-11-10 08:19:00,
2012-11-10 03:20:00,51.6,48.2,30.24,NE,52,1.0,4.0,88,0.00,,---,0.00,0.00,VWS V14.01,2012-11-10 08:20:00,
2012-11-10 03:21:00,51.5,48.4,30.25,NE,54,0.0,5.0,89,0.00,,---,0.00,0.00,VWS V14.01,2012-11-10 08:21:00,
2012-11-10 03:22:00,51.5,48.4,30.24,NNE,33,1.0,5.0,89,0.00,,---,0.00,0.00,VWS V14.01,2012-11-10 08:22:00,
2012-11-10 03:23:00,51.6,48.5,30.24,ENE,72,0.0,5.0,89,0.00,,---,0.00,0.00,VWS V14.01,2012-11-10 08:23:00,
2012-11-10 03:24:00,51.6,48.5,30.24,NE,48,0.0,5.0,89,0.00,,---,0.00,0.00,VWS V14.01,2012-11-10 08:24:00,
2012-11-10 03:25:00,51.5,48.4,30.24,NE,48,0.0,5.0,89,0.00,,---,0.00,0.00,VWS V14.01,2012-11-10 08:25:00,
2012-11-10 03:26:00,51.5,48.1,30.24,ENE,58,0.0,4.0,88,0.00,,---,0.00,0.00,VWS V14.01,2012-11-10 08:26:00,
2012-11-10 03:27:00,51.5,48.4,30.25,ENE,58,1.0,5.0,89,0.00,,---,0.00,0.00,VWS V14.01,2012-11-10 08:27:00,
2012-11-10 03:28:00,51.5,48.4,30.25,ENE,58,0.0,5.0,89,0.00,,---,0.00,0.00,VWS V14.01,2012-11-10 08:28:00,
2012-11-10 03:29:00,51.5,48.4,30.25,ENE,57,2.0,5.0,89,0.00,,---,0.00,0.00,VWS V14.01,2012-11-10 08:29:00,
2012-11-10 03:30:00,51.5,48.4,30.25,ENE,57,1.0,5.0,89,0.00,,---,0.00,0.00,VWS V14.01,2012-11-10 08:30:00,
2012-11-10 03:31:00,51.5,48.4,30.25,ENE,66,2.0,5.0,89,0.00,,---,0.00,0.00,VWS V14.01,2012-11-10 08:31:00,
2012-11-10 03:32:00,51.5,48.4,30.25,ENE,59,2.0,5.0,89,0.00,,---,0.00,0.00,VWS V14.01,2012-11-10 08:32:00,
2012-11-10 03:33:00,51.5,48.4,30.25,ENE,61,1.0,5.0,89,0.00,,---,0.00,0.00,VWS V14.01,2012-11-10 08:33:00,
2012-11-10 03:34:00,51.5,48.4,30.25,NE,56,2.0,5.0,89,0.00,,---,0.00,0.00,VWS V14.01,2012-11-10 08:34:00,
2012-11-10 03:35:00,51.5,48.4,30.25,NNE,23,1.0,5.0,89,0.00,,---,0.00,0.00,VWS V14.01,2012-11-10 08:35:00,
2012-11-10 03:36:00,51.5,48.4,30.25,ENE,58,1.0,5.0,89,0.00,,---,0.00,0.00,VWS V14.01,2012-11-10 08:36:00,
2012-11-10 03:37:00,51.6,48.5,30.24,ENE,64,3.0,5.0,89,0.00,,---,0.00,0.00,VWS V14.01,2012-11-10 08:37:00,
2012-11-10 03:38:00,51.6,48.5,30.24,ENE,64,0.0,5.0,89,0.00,,---,0.00,0.00,VWS V14.01,2012-11-10 08:38:00,
2012-11-10 03:39:00,51.6,48.5,30.24,East,81,1.0,5.0,89,0.00,,---,0.00,0.00,VWS V14.01,2012-11-10 08:39:00,
2012-11-10 03:40:00,51.7,48.6,30.25,ESE,118,1.0,5.0,89,0.00,,---,0.00,0.00,VWS V14.01,2012-11-10 08:40:00,
2012-11-10 03:41:00,51.5,48.4,30.25,ENE,59,2.0,5.0,89,0.00,,---,0.00,0.00,VWS V14.01,2012-11-10 08:41:00,
2012-11-10 03:42:00,51.7,48.6,30.24,NNE,21,0.0,5.0,89,0.00,,---,0.00,0.00,VWS V14.01,2012-11-10 08:42:00,
2012-11-10 03:43:00,51.7,48.6,30.24,NNE,23,2.0,5.0,89,0.00,,---,0.00,0.00,VWS V14.01,2012-11-10 08:43:00,
2012-11-10 03:44:00,51.7,48.6,30.24,ENE,71,1.0,5.0,89,0.00,,---,0.00,0.00,VWS V14.01,2012-11-10 08:44:00,
2012-11-10 03:45:00,51.8,48.7,30.25,ENE,64,2.0,5.0,89,0.00,,---,0.00,0.00,VWS V14.01,2012-11-10 08:45:00,
2012-11-10 03:46:00,51.6,48.5,30.24,ENE,64,3.0,5.0,89,0.00,,---,0.00,0.00,VWS V14.01,2012-11-10 08:46:00,
2012-11-10 03:47:00,51.8,48.7,30.25,NE,48,0.0,5.0,89,0.00,,---,0.00,0.00,VWS V14.01,2012-11-10 08:47:00,
2012-11-10 03:48:00,51.8,48.7,30.24,NE,48,0.0,5.0,89,0.00,,---,0.00,0.00,VWS V14.01,2012-11-10 08:48:00,
2012-11-10 03:49:00,51.9,48.8,30.24,NE,47,0.0,5.0,89,0.00,,---,0.00,0.00,VWS V14.01,2012-11-10 08:49:00,
2012-11-10 03:50:00,51.9,48.8,30.24,NE,55,2.0,5.0,89,0.00,,---,0.00,0.00,VWS V14.01,2012-11-10 08:50:00,
2012-11-10 03:51:00,51.7,48.6,30.24,NNE,21,1.0,5.0,89,0.00,,---,0.00,0.00,VWS V14.01,2012-11-10 08:51:00,
2012-11-10 03:52:00,51.9,48.5,30.24,NE,52,1.0,5.0,88,0.00,,---,0.00,0.00,VWS V14.01,2012-11-10 08:52:00,
2012-11-10 03:53:00,51.9,48.5,30.24,ENE,60,1.0,5.0,88,0.00,,---,0.00,0.00,VWS V14.01,2012-11-10 08:53:00,
2012-11-10 03:54:00,51.9,48.5,30.25,NE,48,0.0,5.0,88,0.00,,---,0.00,0.00,VWS V14.01,2012-11-10 08:54:00,
2012-11-10 03:55:00,51.9,48.5,30.24,ENE,62,1.0,5.0,88,0.00,,---,0.00,0.00,VWS V14.01,2012-11-10 08:55:00,
2012-11-10 03:56:00,51.8,48.7,30.25,NE,48,1.0,5.0,89,0.00,,---,0.00,0.00,VWS V14.01,2012-11-10 08:56:00,
2012-11-10 03:57:00,51.9,48.5,30.24,ENE,72,3.0,5.0,88,0.00,,---,0.00,0.00,VWS V14.01,2012-11-10 08:57:00,
2012-11-10 03:58:00,52.0,48.6,30.24,East,90,3.0,5.0,88,0.00,,---,0.00,0.00,VWS V14.01,2012-11-10 08:58:00,
2012-11-10 03:59:00,52.0,48.6,30.24,NNE,29,3.0,5.0,88,0.00,,---,0.00,0.00,VWS V14.01,2012-11-10 08:59:00,
2012-11-10 04:00:00,52.0,48.6,30.24,East,81,4.0,4.0,88,0.00,,---,0.00,0.00,VWS V14.01,2012-11-10 09:00:00,
2012-11-10 04:01:00,51.9,48.5,30.24,NE,52,1.0,5.0,88,0.00,,---,0.00,0.00,VWS V14.01,2012-11-10 09:01:00,
2012-11-10 04:02:00,51.9,48.5,30.24,ENE,67,2.0,4.0,88,0.00,,---,0.00,0.00,VWS V14.01,2012-11-10 09:02:00,
2012-11-10 04:03:00,52.0,48.6,30.24,North,8,3.0,4.0,88,0.00,,---,0.00,0.00,VWS V14.01,2012-11-10 09:03:00,
2012-11-10 04:04:00,52.0,48.6,30.24,East,93,3.0,5.0,88,0.00,,---,0.00,0.00,VWS V14.01,2012-11-10 09:04:00,
2012-11-10 04:05:00,52.0,48.6,30.24,NNE,32,2.0,5.0,88,0.00,,---,0.00,0.00,VWS V14.01,2012-11-10 09:05:00,
2012-11-10 04:06:00,52.0,48.6,30.24,East,79,2.0,5.0,88,0.00,,---,0.00,0.00,VWS V14.01,2012-11-10 09:06:00,
2012-11-10 04:07:00,51.9,48.5,30.24,NE,52,1.0,5.0,88,0.00,,---,0.00,0.00,VWS V14.01,2012-11-10 09:07:00,
2012-11-10 04:08:00,52.0,48.6,30.24,ENE,64,1.0,5.0,88,0.00,,---,0.00,0.00,VWS V14.01,2012-11-10 09:08:00,
2012-11-10 04:09:00,52.0,48.6,30.24,NNW,346,3.0,5.0,88,0.00,,---,0.00,0.00,VWS V14.01,2012-11-10 09:09:00,
2012-11-10 04:10:00,52.0,48.6,30.24,NE,41,1.0,5.0,88,0.00,,---,0.00,0.00,VWS V14.01,2012-11-10 09:10:00,
2012-11-10 04:11:00,52.0,48.6,30.24,NE,48,3.0,5.0,88,0.00,,---,0.00,0.00,VWS V14.01,2012-11-10 09:11:00,
2012-11-10 04:12:00,51.9,48.5,30.24,NNE,29,1.0,4.0,88,0.00,,---,0.00,0.00,VWS V14.01,2012-11-10 09:12:00,
2012-11-10 04:13:00,52.0,48.6,30.24,NE,42,1.0,5.0,88,0.00,,---,0.00,0.00,VWS V14.01,2012-11-10 09:13:00,
2012-11-10 04:14:00,51.9,48.5,30.25,ENE,73,1.0,5.0,88,0.00,,---,0.00,0.00,VWS V14.01,2012-11-10 09:14:00,
2012-11-10 04:15:00,51.9,48.5,30.25,ENE,61,1.0,5.0,88,0.00,,---,0.00,0.00,VWS V14.01,2012-11-10 09:15:00,
2012-11-10 04:16:00,51.9,48.5,30.25,ENE,61,0.0,5.0,88,0.00,,---,0.00,0.00,VWS V14.01,2012-11-10 09:16:00,
2012-11-10 04:17:00,52.0,48.6,30.24,ENE,64,2.0,5.0,88,0.00,,---,0.00,0.00,VWS V14.01,2012-11-10 09:17:00,
2012-11-10 04:18:00,51.9,48.5,30.25,NE,55,1.0,5.0,88,0.00,,---,0.00,0.00,VWS V14.01,2012-11-10 09:18:00,
2012-11-10 04:19:00,51.8,48.4,30.25,NE,55,0.0,5.0,88,0.00,,---,0.00,0.00,VWS V14.01,2012-11-10 09:19:00,
2012-11-10 04:20:00,51.8,48.4,30.25,NE,55,2.0,5.0,88,0.00,,---,0.00,0.00,VWS V14.01,2012-11-10 09:20:00,
2012-11-10 04:21:00,51.8,48.4,30.25,NE,54,1.0,5.0,88,0.00,,---,0.00,0.00,VWS V14.01,2012-11-10 09:21:00,
2012-11-10 04:22:00,52.0,48.6,30.24,NE,42,0.0,5.0,88,0.00,,---,0.00,0.00,VWS V14.01,2012-11-10 09:22:00,
2012-11-10 04:23:00,51.7,48.3,30.25,ENE,71,3.0,5.0,88,0.00,,---,0.00,0.00,VWS V14.01,2012-11-10 09:23:00,
2012-11-10 04:24:00,51.6,48.2,30.25,NE,51,1.0,5.0,88,0.00,,---,0.00,0.00,VWS V14.01,2012-11-10 09:24:00,
2012-11-10 04:25:00,51.6,48.2,30.25,NE,48,1.0,5.0,88,0.00,,---,0.00,0.00,VWS V14.01,2012-11-10 09:25:00,
2012-11-10 04:26:00,51.5,48.1,30.25,ENE,74,1.0,5.0,88,0.00,,---,0.00,0.00,VWS V14.01,2012-11-10 09:26:00,
2012-11-10 04:27:00,51.9,48.5,30.25,ENE,62,0.0,5.0,88,0.00,,---,0.00,0.00,VWS V14.01,2012-11-10 09:27:00,
2012-11-10 04:28:00,51.5,48.1,30.24,NE,50,1.0,5.0,88,0.00,,---,0.00,0.00,VWS V14.01,2012-11-10 09:28:00,
2012-11-10 04:29:00,51.5,48.1,30.24,NE,47,3.0,5.0,88,0.00,,---,0.00,0.00,VWS V14.01,2012-11-10 09:29:00,
2012-11-10 04:30:00,51.5,48.1,30.24,ENE,76,1.0,5.0,88,0.00,,---,0.00,0.00,VWS V14.01,2012-11-10 09:30:00,
2012-11-10 04:31:00,51.5,48.1,30.25,NE,49,2.0,5.0,88,0.00,,---,0.00,0.00,VWS V14.01,2012-11-10 09:31:00,
2012-11-10 04:32:00,51.7,48.3,30.25,NE,42,1.0,5.0,88,0.00,,---,0.00,0.00,VWS V14.01,2012-11-10 09:32:00,
2012-11-10 04:33:00,51.5,48.1,30.25,NE,46,3.0,5.0,88,0.00,,---,0.00,0.00,VWS V14.01,2012-11-10 09:33:00,
2012-11-10 04:34:00,51.5,48.1,30.25,NE,47,2.0,5.0,88,0.00,,---,0.00,0.00,VWS V14.01,2012-11-10 09:34:00,
2012-11-10 04:35:00,51.4,48.0,30.25,NE,55,1.0,5.0,88,0.00,,---,0.00,0.00,VWS V14.01,2012-11-10 09:35:00,
2012-11-10 04:36:00,51.4,48.0,30.25,NE,51,0.0,5.0,88,0.00,,---,0.00,0.00,VWS V14.01,2012-11-10 09:36:00,
2012-11-10 04:37:00,51.5,48.1,30.24,NE,50,2.0,5.0,88,0.00,,---,0.00,0.00,VWS V14.01,2012-11-10 09:37:00,
2012-11-10 04:38:00,51.4,48.0,30.25,East,87,3.0,5.0,88,0.00,,---,0.00,0.00,VWS V14.01,2012-11-10 09:38:00,
2012-11-10 04:39:00,51.4,48.0,30.25,NE,49,0.0,5.0,88,0.00,,---,0.00,0.00,VWS V14.01,2012-11-10 09:39:00,
2012-11-10 04:40:00,51.4,48.0,30.25,NE,48,2.0,5.0,88,0.00,,---,0.00,0.00,VWS V14.01,2012-11-10 09:40:00,
2012-11-10 04:41:00,51.4,48.0,30.25,East,81,2.0,5.0,88,0.00,,---,0.00,0.00,VWS V14.01,2012-11-10 09:41:00,
2012-11-10 04:42:00,51.5,48.1,30.25,NE,46,3.0,5.0,88,0.00,,---,0.00,0.00,VWS V14.01,2012-11-10 09:42:00,
2012-11-10 04:43:00,51.4,48.0,30.25,ENE,75,0.0,5.0,88,0.00,,---,0.00,0.00,VWS V14.01,2012-11-10 09:43:00,
2012-11-10 04:44:00,51.3,47.9,30.25,NE,46,1.0,5.0,88,0.00,,---,0.00,0.00,VWS V14.01,2012-11-10 09:44:00,
2012-11-10 04:45:00,51.3,47.9,30.25,NE,54,1.0,5.0,88,0.00,,---,0.00,0.00,VWS V14.01,2012-11-10 09:45:00,
2012-11-10 04:46:00,51.3,47.9,30.25,NNE,22,1.0,5.0,88,0.00,,---,0.00,0.00,VWS V14.01,2012-11-10 09:46:00,
2012-11-10 04:47:00,51.3,47.9,30.25,East,83,0.0,5.0,88,0.00,,---,0.00,0.00,VWS V14.01,2012-11-10 09:47:00,
2012-11-10 04:48:00,51.4,48.0,30.25,East,87,3.0,5.0,88,0.00,,---,0.00,0.00,VWS V14.01,2012-11-10 09:48:00,
2012-11-10 04:49:00,51.4,48.0,30.25,NE,46,0.0,5.0,88,0.00,,---,0.00,0.00,VWS V14.01,2012-11-10 09:49:00,
2012-11-10 04:50:00,51.4,48.0,30.25,NE,41,1.0,5.0,88,0.00,,---,0.00,0.00,VWS V14.01,2012-11-10 09:50:00,
2012-11-10 04:51:00,51.4,48.0,30.25,NE,41,1.0,5.0,88,0.00,,---,0.00,0.00,VWS V14.01,2012-11-10 09:51:00,
2012-11-10 04:52:00,51.4,48.0,30.25,NE,52,1.0,5.0,88,0.00,,---,0.00,0.00,VWS V14.01,2012-11-10 09:52:00,
2012-11-10 04:53:00,51.3,47.9,30.25,ENE,72,1.0,5.0,88,0.00,,---,0.00,0.00,VWS V14.01,2012-11-10 09:53:00,
2012-11-10 04:54:00,51.4,47.7,30.25,ENE,67,1.0,5.0,87,0.00,,---,0.00,0.00,VWS V14.01,2012-11-10 09:54:00,
2012-11-10 04:55:00,51.4,47.7,30.25,ENE,64,2.0,5.0,87,0.00,,---,0.00,0.00,VWS V14.01,2012-11-10 09:55:00,
2012-11-10 04:56:00,51.4,47.7,30.25,NE,50,1.0,5.0,87,0.00,,---,0.00,0.00,VWS V14.01,2012-11-10 09:56:00,
2012-11-10 04:57:00,51.4,47.7,30.25,ENE,58,1.0,5.0,87,0.00,,---,0.00,0.00,VWS V14.01,2012-11-10 09:57:00,
2012-11-10 04:58:00,51.3,47.9,30.25,NE,46,0.0,5.0,88,0.00,,---,0.00,0.00,VWS V14.01,2012-11-10 09:58:00,
2012-11-10 04:59:00,51.5,47.8,30.25,NE,49,0.0,5.0,87,0.00,,---,0.00,0.00,VWS V14.01,2012-11-10 09:59:00,
2012-11-10 05:00:00,51.5,47.8,30.25,ENE,74,0.0,0.0,87,0.00,,---,0.00,0.00,VWS V14.01,2012-11-10 10:00:00,
2012-11-10 05:01:00,51.5,47.8,30.25,ENE,60,1.0,2.0,87,0.00,,---,0.00,0.00,VWS V14.01,2012-11-10 10:01:00,
2012-11-10 05:02:00,51.5,47.8,30.25,NE,45,1.0,2.0,87,0.00,,---,0.00,0.00,VWS V14.01,2012-11-10 10:02:00,
2012-11-10 05:03:00,51.4,47.7,30.25,ENE,67,1.0,5.0,87,0.00,,---,0.00,0.00,VWS V14.01,2012-11-10 10:03:00,
2012-11-10 05:04:00,51.5,47.8,30.25,ENE,71,2.0,3.0,87,0.00,,---,0.00,0.00,VWS V14.01,2012-11-10 10:04:00,
2012-11-10 05:05:00,51.5,47.5,30.25,NE,56,2.0,3.0,86,0.00,,---,0.00,0.00,VWS V14.01,2012-11-10 10:05:00,
2012-11-10 05:06:00,51.5,47.5,30.25,NE,50,2.0,3.0,86,0.00,,---,0.00,0.00,VWS V14.01,2012-11-10 10:06:00,
2012-11-10 05:07:00,51.5,47.5,30.25,NE,50,0.0,3.0,86,0.00,,---,0.00,0.00,VWS V14.01,2012-11-10 10:07:00,
2012-11-10 05:08:00,51.5,47.8,30.25,NE,49,1.0,5.0,87,0.00,,---,0.00,0.00,VWS V14.01,2012-11-10 10:08:00,
2012-11-10 05:09:00,51.4,47.4,30.25,ENE,58,0.0,3.0,86,0.00,,---,0.00,0.00,VWS V14.01,2012-11-10 10:09:00,
2012-11-10 05:10:00,51.4,47.7,30.25,ENE,71,2.0,3.0,87,0.00,,---,0.00,0.00,VWS V14.01,2012-11-10 10:10:00,
2012-11-10 05:11:00,51.4,47.4,30.25,NE,56,1.0,3.0,86,0.00,,---,0.00,0.00,VWS V14.01,2012-11-10 10:11:00,
2012-11-10 05:12:00,51.4,47.4,30.25,ENE,70,3.0,3.0,86,0.00,,---,0.00,0.00,VWS V14.01,2012-11-10 10:12:00,
2012-11-10 05:13:00,51.5,47.8,30.25,East,95,1.0,3.0,87,0.00,,---,0.00,0.00,VWS V14.01,2012-11-10 10:13:00,
2012-11-10 05:14:00,51.3,47.3,30.25,ESE,107,3.0,5.0,86,0.00,,---,0.00,0.00,VWS V14.01,2012-11-10 10:14:00,
2012-11-10 05:15:00,51.3,47.3,30.25,ESE,103,4.0,5.0,86,0.00,,---,0.00,0.00,VWS V14.01,2012-11-10 10:15:00,
2012-11-10 05:16:00,51.2,47.2,30.25,NE,39,1.0,5.0,86,0.00,,---,0.00,0.00,VWS V14.01,2012-11-10 10:16:00,
2012-11-10 05:17:00,51.2,47.2,30.25,ENE,66,2.0,5.0,86,0.00,,---,0.00,0.00,VWS V14.01,2012-11-10 10:17:00,
2012-11-10 05:18:00,51.4,47.4,30.25,ENE,58,1.0,3.0,86,0.00,,---,0.00,0.00,VWS V14.01,2012-11-10 10:18:00,
2012-11-10 05:19:00,51.2,47.2,30.25,ENE,59,1.0,5.0,86,0.00,,---,0.00,0.00,VWS V14.01,2012-11-10 10:19:00,
2012-11-10 05:20:00,51.2,47.2,30.25,ESE,106,1.0,5.0,86,0.00,,---,0.00,0.00,VWS V14.01,2012-11-10 10:20:00,
2012-11-10 05:21:00,51.3,47.3,30.25,ENE,74,0.0,5.0,86,0.00,,---,0.00,0.00,VWS V14.01,2012-11-10 10:21:00,
2012-11-10 05:22:00,51.3,47.3,30.25,ENE,63,0.0,5.0,86,0.00,,---,0.00,0.00,VWS V14.01,2012-11-10 10:22:00,
2012-11-10 05:23:00,51.3,47.3,30.25,East,101,5.0,5.0,86,0.00,,---,0.00,0.00,VWS V14.01,2012-11-10 10:23:00,
2012-11-10 05:24:00,51.3,47.3,30.26,ENE,59,0.0,5.0,86,0.00,,---,0.00,0.00,VWS V14.01,2012-11-10 10:24:00,
2012-11-10 05:25:00,51.3,47.3,30.26,ENE,77,1.0,5.0,86,0.00,,---,0.00,0.00,VWS V14.01,2012-11-10 10:25:00,
2012-11-10 05:26:00,51.3,47.6,30.26,ENE,58,0.0,5.0,87,0.00,,---,0.00,0.00,VWS V14.01,2012-11-10 10:26:00,
2012-11-10 05:27:00,51.3,47.6,30.26,NE,46,2.0,5.0,87,0.00,,---,0.00,0.00,VWS V14.01,2012-11-10 10:27:00,
2012-11-10 05:28:00,51.2,47.2,30.25,NE,37,0.0,5.0,86,0.00,,---,0.00,0.00,VWS V14.01,2012-11-10 10:28:00,
2012-11-10 05:29:00,51.2,47.5,30.26,East,90,2.0,5.0,87,0.00,,---,0.00,0.00,VWS V14.01,2012-11-10 10:29:00,
2012-11-10 05:30:00,51.2,47.5,30.26,NE,54,2.0,5.0,87,0.00,,---,0.00,0.00,VWS V14.01,2012-11-10 10:30:00,
2012-11-10 05:31:00,51.2,47.5,30.26,NE,56,2.0,6.0,87,0.00,,---,0.00,0.00,VWS V14.01,2012-11-10 10:31:00,
2012-11-10 05:32:00,51.2,47.2,30.26,ENE,72,1.0,6.0,86,0.00,,---,0.00,0.00,VWS V14.01,2012-11-10 10:32:00,
2012-11-10 05:33:00,51.3,47.3,30.25,ENE,59,0.0,5.0,86,0.00,,---,0.00,0.00,VWS V14.01,2012-11-10 10:33:00,
2012-11-10 05:34:00,51.1,47.1,30.26,ENE,72,0.0,6.0,86,0.00,,---,0.00,0.00,VWS V14.01,2012-11-10 10:34:00,
2012-11-10 05:35:00,51.1,47.1,30.26,NE,39,2.0,6.0,86,0.00,,---,0.00,0.00,VWS V14.01,2012-11-10 10:35:00,
2012-11-10 05:36:00,51.0,47.3,30.26,NE,36,2.0,6.0,87,0.00,,---,0.00,0.00,VWS V14.01,2012-11-10 10:36:00,
2012-11-10 05:37:00,51.0,47.3,30.26,East,87,2.0,6.0,87,0.00,,---,0.00,0.00,VWS V14.01,2012-11-10 10:37:00,
2012-11-10 05:38:00,51.2,47.5,30.26,East,89,4.0,5.0,87,0.00,,---,0.00,0.00,VWS V14.01,2012-11-10 10:38:00,
2012-11-10 05:39:00,51.0,47.0,30.26,NE,49,3.0,6.0,86,0.00,,---,0.00,0.00,VWS V14.01,2012-11-10 10:39:00,
2012-11-10 05:40:00,51.0,47.0,30.26,ENE,62,0.0,6.0,86,0.00,,---,0.00,0.00,VWS V14.01,2012-11-10 10:40:00,
2012-11-10 05:41:00,50.9,46.9,30.26,NE,41,1.0,6.0,86,0.00,,---,0.00,0.00,VWS V14.01,2012-11-10 10:41:00,
2012-11-10 05:42:00,50.9,46.9,30.26,NE,38,2.0,6.0,86,0.00,,---,0.00,0.00,VWS V14.01,2012-11-10 10:42:00,
2012-11-10 05:43:00,51.1,47.1,30.26,ENE,72,1.0,6.0,86,0.00,,---,0.00,0.00,VWS V14.01,2012-11-10 10:43:00,
2012-11-10 05:44:00,50.9,46.9,30.26,NE,40,0.0,6.0,86,0.00,,---,0.00,0.00,VWS V14.01,2012-11-10 10:44:00,
2012-11-10 05:45:00,50.9,47.2,30.26,NE,46,1.0,6.0,87,0.00,,---,0.00,0.00,VWS V14.01,2012-11-10 10:45:00,
2012-11-10 05:46:00,50.9,47.2,30.26,ENE,60,3.0,6.0,87,0.00,,---,0.00,0.00,VWS V14.01,2012-11-10 10:46:00,
2012-11-10 05:47:00,50.9,47.2,30.26,ENE,63,1.0,6.0,87,0.00,,---,0.00,0.00,VWS V14.01,2012-11-10 10:47:00,
2012-11-10 05:48:00,51.0,47.3,30.26,ENE,72,3.0,6.0,87,0.00,,---,0.00,0.00,VWS V14.01,2012-11-10 10:48:00,
2012-11-10 05:49:00,50.8,47.1,30.26,East,94,0.0,6.0,87,0.00,,---,0.00,0.00,VWS V14.01,2012-11-10 10:49:00,
2012-11-10 05:50:00,50.8,46.8,30.26,NE,53,3.0,6.0,86,0.00,,---,0.00,0.00,VWS V14.01,2012-11-10 10:50:00,
2012-11-10 05:51:00,50.8,46.8,30.26,NE,42,2.0,6.0,86,0.00,,---,0.00,0.00,VWS V14.01,2012-11-10 10:51:00,
2012-11-10 05:52:00,50.8,46.8,30.26,NE,42,2.0,6.0,86,0.00,,---,0.00,0.00,VWS V14.01,2012-11-10 10:52:00,
2012-11-10 05:53:00,50.9,46.9,30.26,NE,40,0.0,6.0,86,0.00,,---,0.00,0.00,VWS V14.01,2012-11-10 10:53:00,
2012-11-10 05:54:00,50.8,46.8,30.27,NE,42,2.0,6.0,86,0.00,,---,0.00,0.00,VWS V14.01,2012-11-10 10:54:00,
2012-11-10 05:55:00,50.8,46.8,30.27,ENE,76,0.0,6.0,86,0.00,,---,0.00,0.00,VWS V14.01,2012-11-10 10:55:00,
2012-11-10 05:56:00,50.8,46.8,30.27,ENE,60,2.0,6.0,86,0.00,,---,0.00,0.00,VWS V14.01,2012-11-10 10:56:00,
2012-11-10 05:57:00,50.8,46.8,30.27,ENE,63,1.0,6.0,86,0.00,,---,0.00,0.00,VWS V14.01,2012-11-10 10:57:00,
2012-11-10 05:58:00,50.8,47.1,30.26,ENE,60,0.0,6.0,87,0.00,,---,0.00,0.00,VWS V14.01,2012-11-10 10:58:00,
2012-11-10 05:59:00,50.8,46.8,30.27,NE,55,3.0,6.0,86,0.00,,---,0.00,0.00,VWS V14.01,2012-11-10 10:59:00,
2012-11-10 06:00:00,50.8,46.8,30.27,NNE,32,0.0,4.0,86,0.00,,---,0.00,0.00,VWS V14.01,2012-11-10 11:00:00,
2012-11-10 06:01:00,50.8,46.8,30.27,NE,49,0.0,4.0,86,0.00,,---,0.00,0.00,VWS V14.01,2012-11-10 11:01:00,
2012-11-10 06:02:00,50.9,46.9,30.27,ENE,72,2.0,4.0,86,0.00,,---,0.00,0.00,VWS V14.01,2012-11-10 11:02:00,
2012-11-10 06:03:00,50.8,46.8,30.27,NE,42,2.0,6.0,86,0.00,,---,0.00,0.00,VWS V14.01,2012-11-10 11:03:00,
2012-11-10 06:04:00,50.9,46.9,30.27,NNE,33,3.0,4.0,86,0.00,,---,0.00,0.00,VWS V14.01,2012-11-10 11:04:00,
2012-11-10 06:05:00,50.9,46.9,30.27,ENE,60,1.0,4.0,86,0.00,,---,0.00,0.00,VWS V14.01,2012-11-10 11:05:00,
2012-11-10 06:06:00,50.9,46.9,30.27,NE,36,2.0,4.0,86,0.00,,---,0.00,0.00,VWS V14.01,2012-11-10 11:06:00,
2012-11-10 06:07:00,50.9,46.9,30.27,NNE,26,0.0,4.0,86,0.00,,---,0.00,0.00,VWS V14.01,2012-11-10 11:07:00,
2012-11-10 06:08:00,50.8,46.8,30.27,NE,55,3.0,6.0,86,0.00,,---,0.00,0.00,VWS V14.01,2012-11-10 11:08:00,
2012-11-10 06:09:00,51.0,47.0,30.27,ENE,62,3.0,4.0,86,0.00,,---,0.00,0.00,VWS V14.01,2012-11-10 11:09:00,
2012-11-10 06:10:00,51.0,47.0,30.27,ENE,69,2.0,4.0,86,0.00,,---,0.00,0.00,VWS V14.01,2012-11-10 11:10:00,
2012-11-10 06:11:00,51.0,47.0,30.27,NE,38,0.0,4.0,86,0.00,,---,0.00,0.00,VWS V14.01,2012-11-10 11:11:00,
2012-11-10 06:12:00,51.0,47.0,30.27,NE,43,1.0,4.0,86,0.00,,---,0.00,0.00,VWS V14.01,2012-11-10 11:12:00,
2012-11-10 06:13:00,50.9,46.9,30.27,NNE,33,2.0,4.0,86,0.00,,---,0.00,0.00,VWS V14.01,2012-11-10 11:13:00,
2012-11-10 06:14:00,51.0,47.0,30.27,NE,43,0.0,4.0,86,0.00,,---,0.00,0.00,VWS V14.01,2012-11-10 11:14:00,
2012-11-10 06:15:00,50.9,46.9,30.27,NE,43,0.0,4.0,86,0.00,,---,0.00,0.00,VWS V14.01,2012-11-10 11:15:00,
2012-11-10 06:16:00,50.9,46.9,30.27,NE,48,0.0,4.0,86,0.00,,---,0.00,0.00,VWS V14.01,2012-11-10 11:16:00,
2012-11-10 06:17:00,50.9,46.9,30.27,NE,48,1.0,4.0,86,0.00,,---,0.00,0.00,VWS V14.01,2012-11-10 11:17:00,
2012-11-10 06:18:00,51.0,47.0,30.27,NE,54,3.0,4.0,86,0.00,,---,0.00,0.00,VWS V14.01,2012-11-10 11:18:00,
2012-11-10 06:19:00,50.8,46.8,30.27,ENE,70,2.0,4.0,86,0.00,,---,0.00,0.00,VWS V14.01,2012-11-10 11:19:00,
2012-11-10 06:20:00,50.8,46.8,30.27,NE,42,1.0,4.0,86,0.00,,---,0.00,0.00,VWS V14.01,2012-11-10 11:20:00,
2012-11-10 06:21:00,50.8,46.8,30.27,ENE,65,1.0,4.0,86,0.00,,---,0.00,0.00,VWS V14.01,2012-11-10 11:21:00,
2012-11-10 06:22:00,50.8,46.8,30.27,ENE,66,2.0,5.0,86,0.00,,---,0.00,0.00,VWS V14.01,2012-11-10 11:22:00,
2012-11-10 06:23:00,51.0,47.0,30.27,NE,43,0.0,4.0,86,0.00,,---,0.00,0.00,VWS V14.01,2012-11-10 11:23:00,
2012-11-10 06:24:00,50.8,46.8,30.27,ENE,73,1.0,5.0,86,0.00,,---,0.00,0.00,VWS V14.01,2012-11-10 11:24:00,
2012-11-10 06:25:00,50.8,46.8,30.27,NE,51,2.0,5.0,86,0.00,,---,0.00,0.00,VWS V14.01,2012-11-10 11:25:00,
2012-11-10 06:26:00,50.9,46.6,30.27,ENE,58,0.0,5.0,85,0.00,,---,0.00,0.00,VWS V14.01,2012-11-10 11:26:00,
2012-11-10 06:27:00,50.9,46.6,30.27,NE,51,3.0,5.0,85,0.00,,---,0.00,0.00,VWS V14.01,2012-11-10 11:27:00,
2012-11-10 06:28:00,50.8,46.8,30.27,ENE,66,3.0,4.0,86,0.00,,---,0.00,0.00,VWS V14.01,2012-11-10 11:28:00,
2012-11-10 06:29:00,50.9,46.6,30.27,NNE,27,0.0,5.0,85,0.00,,---,0.00,0.00,VWS V14.01,2012-11-10 11:29:00,
2012-11-10 06:30:00,50.9,46.6,30.27,NE,53,1.0,5.0,85,0.00,,---,0.00,0.00,VWS V14.01,2012-11-10 11:30:00,
2012-11-10 06:31:00,51.0,46.7,30.27,NE,42,2.0,5.0,85,0.00,,---,0.00,0.00,VWS V14.01,2012-11-10 11:31:00,
2012-11-10 06:32:00,51.0,46.7,30.27,NE,55,1.0,5.0,85,0.00,,---,0.00,0.00,VWS V14.01,2012-11-10 11:32:00,
2012-11-10 06:33:00,51.0,46.7,30.27,NE,48,1.0,5.0,85,0.00,,---,0.00,0.00,VWS V14.01,2012-11-10 11:33:00,
2012-11-10 06:34:00,50.8,46.8,30.27,NE,52,0.0,5.0,86,0.00,,---,0.00,0.00,VWS V14.01,2012-11-10 11:34:00,
2012-11-10 06:35:00,51.1,46.8,30.27,NE,35,3.0,5.0,85,0.00,,---,0.00,0.00,VWS V14.01,2012-11-10 11:35:00,
2012-11-10 06:36:00,51.1,46.8,30.27,NE,37,0.0,5.0,85,0.00,,---,0.00,0.00,VWS V14.01,2012-11-10 11:36:00,
2012-11-10 06:37:00,51.1,46.8,30.27,NE,54,2.0,5.0,85,0.00,,---,0.00,0.00,VWS V14.01,2012-11-10 11:37:00,
2012-11-10 06:38:00,51.1,46.8,30.27,ENE,62,1.0,5.0,85,0.00,,---,0.00,0.00,VWS V14.01,2012-11-10 11:38:00,
2012-11-10 06:39:00,50.9,46.6,30.27,ENE,60,1.0,5.0,85,0.00,,---,0.00,0.00,VWS V14.01,2012-11-10 11:39:00,
2012-11-10 06:40:00,51.1,46.8,30.27,ENE,68,2.0,5.0,85,0.00,,---,0.00,0.00,VWS V14.01,2012-11-10 11:40:00,
2012-11-10 06:41:00,51.1,46.8,30.27,NE,38,1.0,5.0,85,0.00,,---,0.00,5.00,VWS V14.01,2012-11-10 11:41:00,
2012-11-10 06:42:00,51.1,46.8,30.28,NE,49,2.0,5.0,85,0.00,,---,0.00,5.00,VWS V14.01,2012-11-10 11:42:00,
2012-11-10 06:43:00,51.1,46.4,30.28,NE,56,2.0,5.0,84,0.00,,---,0.00,5.00,VWS V14.01,2012-11-10 11:43:00,
2012-11-10 06:44:00,51.1,46.8,30.27,ENE,64,2.0,5.0,85,0.00,,---,0.00,0.00,VWS V14.01,2012-11-10 11:44:00,
2012-11-10 06:45:00,51.0,46.3,30.28,NE,35,0.0,5.0,84,0.00,,---,0.00,5.00,VWS V14.01,2012-11-10 11:45:00,
2012-11-10 06:46:00,51.0,46.3,30.28,ENE,63,1.0,5.0,84,0.00,,---,0.00,7.00,VWS V14.01,2012-11-10 11:46:00,
2012-11-10 06:47:00,51.0,46.7,30.28,ENE,64,0.0,5.0,85,0.00,,---,0.00,7.00,VWS V14.01,2012-11-10 11:47:00,
2012-11-10 06:48:00,51.0,46.7,30.28,ENE,64,0.0,5.0,85,0.00,,---,0.00,7.00,VWS V14.01,2012-11-10 11:48:00,
2012-11-10 06:49:00,51.1,46.8,30.27,NE,54,0.0,5.0,85,0.00,,---,0.00,0.00,VWS V14.01,2012-11-10 11:49:00,
2012-11-10 06:50:00,51.0,46.7,30.28,ENE,64,0.0,5.0,85,0.00,,---,0.00,9.00,VWS V14.01,2012-11-10 11:50:00,
2012-11-10 06:51:00,51.0,46.7,30.28,ENE,58,2.0,5.0,85,0.00,,---,0.00,9.00,VWS V14.01,2012-11-10 11:51:00,
2012-11-10 06:52:00,50.9,46.6,30.28,ENE,58,1.0,5.0,85,0.00,,---,0.00,9.00,VWS V14.01,2012-11-10 11:52:00,
2012-11-10 06:53:00,50.9,46.6,30.28,NE,54,1.0,5.0,85,0.00,,---,0.00,11.00,VWS V14.01,2012-11-10 11:53:00,
2012-11-10 06:54:00,51.0,46.3,30.28,NE,35,0.0,5.0,84,0.00,,---,0.00,5.00,VWS V14.01,2012-11-10 11:54:00,
2012-11-10 06:55:00,50.9,46.6,30.28,ENE,63,2.0,5.0,85,0.00,,---,0.00,12.00,VWS V14.01,2012-11-10 11:55:00,
2012-11-10 06:56:00,50.9,46.6,30.28,NE,43,0.0,5.0,85,0.00,,---,0.00,12.00,VWS V14.01,2012-11-10 11:56:00,
2012-11-10 06:57:00,51.0,46.7,30.28,ENE,63,1.0,5.0,85,0.00,,---,0.00,12.00,VWS V14.01,2012-11-10 11:57:00,
2012-11-10 06:58:00,51.0,46.7,30.28,NE,45,2.0,5.0,85,0.00,,---,0.00,14.00,VWS V14.01,2012-11-10 11:58:00,
2012-11-10 06:59:00,51.0,46.7,30.28,ENE,64,0.0,5.0,85,0.00,,---,0.00,7.00,VWS V14.01,2012-11-10 11:59:00,
2012-11-10 07:00:00,51.1,46.8,30.28,ENE,57,2.0,3.0,85,0.00,,---,0.00,14.00,VWS V14.01,2012-11-10 12:00:00,
2012-11-10 07:01:00,51.1,46.8,30.28,ENE,57,2.0,3.0,85,0.00,,---,0.00,14.00,VWS V14.01,2012-11-10 12:01:00,
2012-11-10 07:02:00,51.1,46.4,30.29,ENE,57,1.0,3.0,84,0.00,,---,0.00,14.00,VWS V14.01,2012-11-10 12:02:00,
2012-11-10 07:03:00,51.1,46.4,30.29,ENE,64,3.0,3.0,84,0.00,,---,0.00,14.00,VWS V14.01,2012-11-10 12:03:00,
2012-11-10 07:04:00,50.9,46.6,30.28,ENE,63,3.0,5.0,85,0.00,,---,0.00,12.00,VWS V14.01,2012-11-10 12:04:00,
2012-11-10 07:05:00,51.2,46.5,30.29,NE,35,2.0,3.0,84,0.00,,---,0.00,14.00,VWS V14.01,2012-11-10 12:05:00,
2012-11-10 07:06:00,51.2,46.8,30.29,ENE,57,0.0,3.0,85,0.00,,---,0.00,14.00,VWS V14.01,2012-11-10 12:06:00,
2012-11-10 07:07:00,51.2,46.8,30.29,East,81,2.0,3.0,85,0.00,,---,0.00,14.00,VWS V14.01,2012-11-10 12:07:00,
2012-11-10 07:08:00,51.3,47.0,30.29,ENE,63,2.0,3.0,85,0.00,,---,0.00,16.00,VWS V14.01,2012-11-10 12:08:00,
2012-11-10 07:09:00,51.1,46.8,30.28,ENE,57,3.0,3.0,85,0.00,,---,0.00,14.00,VWS V14.01,2012-11-10 12:09:00,
2012-11-10 07:10:00,51.4,47.0,30.29,NE,55,0.0,3.0,85,0.00,,---,0.00,16.00,VWS V14.01,2012-11-10 12:10:00,
2012-11-10 07:11:00,51.4,47.0,30.29,East,87,2.0,3.0,85,0.00,,---,0.00,18.00,VWS V14.01,2012-11-10 12:11:00,
2012-11-10 07:12:00,51.5,47.2,30.29,NE,39,0.0,3.0,85,0.00,,---,0.00,19.00,VWS V14.01,2012-11-10 12:12:00,
2012-11-10 07:13:00,51.5,47.2,30.29,ENE,60,3.0,3.0,85,0.00,,---,0.00,21.00,VWS V14.01,2012-11-10 12:13:00,
2012-11-10 07:14:00,51.2,46.5,30.29,NE,45,2.0,3.0,84,0.00,,---,0.00,14.00,VWS V14.01,2012-11-10 12:14:00,
2012-11-10 07:15:00,51.5,47.2,30.29,NE,37,0.0,3.0,85,0.00,,---,0.00,26.00,VWS V14.01,2012-11-10 12:15:00,
2012-11-10 07:16:00,51.5,47.2,30.29,ENE,62,0.0,3.0,85,0.00,,---,0.00,28.00,VWS V14.01,2012-11-10 12:16:00,
2012-11-10 07:17:00,51.5,47.2,30.29,East,81,3.0,3.0,85,0.00,,---,0.00,28.00,VWS V14.01,2012-11-10 12:17:00,
2012-11-10 07:18:00,51.5,47.2,30.29,ENE,65,3.0,3.0,85,0.00,,---,0.00,33.00,VWS V14.01,2012-11-10 12:18:00,
2012-11-10 07:19:00,51.6,47.2,30.29,NE,39,2.0,3.0,85,0.00,,---,0.00,33.00,VWS V14.01,2012-11-10 12:19:00,
2012-11-10 07:20:00,51.4,47.0,30.29,NE,55,2.0,3.0,85,0.00,,---,0.00,18.00,VWS V14.01,2012-11-10 12:20:00,
2012-11-10 07:21:00,51.7,47.3,30.29,NNE,29,1.0,3.0,85,0.00,,---,0.00,40.00,VWS V14.01,2012-11-10 12:21:00,
2012-11-10 07:22:00,51.7,47.0,30.29,ENE,64,1.0,3.0,84,0.00,,---,0.00,40.00,VWS V14.01,2012-11-10 12:22:00,
2012-11-10 07:23:00,51.8,47.1,30.29,East,83,3.0,3.0,84,0.00,,---,0.00,42.00,VWS V14.01,2012-11-10 12:23:00,
2012-11-10 07:24:00,51.8,47.4,30.29,ENE,60,2.0,3.0,85,0.00,,---,0.00,44.00,VWS V14.01,2012-11-10 12:24:00,
2012-11-10 07:25:00,51.5,47.2,30.29,ENE,62,2.0,3.0,85,0.00,,---,0.00,28.00,VWS V14.01,2012-11-10 12:25:00,
2012-11-10 07:26:00,51.9,47.2,30.29,ENE,58,1.0,3.0,84,0.00,,---,0.00,46.00,VWS V14.01,2012-11-10 12:26:00,
2012-11-10 07:27:00,51.9,47.2,30.29,ENE,58,1.0,3.0,84,0.00,,---,0.00,46.00,VWS V14.01,2012-11-10 12:27:00,
2012-11-10 07:28:00,52.0,47.3,30.29,NE,37,1.0,3.0,84,0.00,,---,0.00,49.00,VWS V14.01,2012-11-10 12:28:00,
2012-11-10 07:29:00,52.1,47.4,30.29,NE,52,2.0,3.0,84,0.00,,---,0.00,54.00,VWS V14.01,2012-11-10 12:29:00,
2012-11-10 07:30:00,51.7,47.3,30.29,NNE,29,1.0,3.0,85,0.00,,---,0.00,40.00,VWS V14.01,2012-11-10 12:30:00,
2012-11-10 07:31:00,52.3,47.6,30.30,NE,51,2.0,4.0,84,0.00,,---,0.00,54.00,VWS V14.01,2012-11-10 12:31:00,
2012-11-10 07:32:00,52.4,47.7,30.30,East,79,1.0,4.0,84,0.00,,---,0.00,54.00,VWS V14.01,2012-11-10 12:32:00,
2012-11-10 07:33:00,52.4,47.4,30.30,NE,56,2.0,4.0,83,0.00,,---,0.00,54.00,VWS V14.01,2012-11-10 12:33:00,
2012-11-10 07:34:00,52.7,47.7,30.30,ENE,70,4.0,4.0,83,0.00,,---,0.00,54.00,VWS V14.01,2012-11-10 12:34:00,
2012-11-10 07:35:00,51.9,47.2,30.29,ENE,58,2.0,3.0,84,0.00,,---,0.00,46.00,VWS V14.01,2012-11-10 12:35:00,
2012-11-10 07:36:00,53.0,48.0,30.30,East,85,1.0,4.0,83,0.00,,---,0.00,54.00,VWS V14.01,2012-11-10 12:36:00,
2012-11-10 07:37:00,53.2,47.9,30.30,East,80,0.0,4.0,82,0.00,,---,0.00,118.00,VWS V14.01,2012-11-10 12:37:00,
2012-11-10 07:38:00,53.4,48.0,30.30,NE,47,3.0,4.0,82,0.00,,---,0.00,125.00,VWS V14.01,2012-11-10 12:38:00,
2012-11-10 07:39:00,53.6,47.9,30.30,ENE,69,0.0,4.0,81,0.00,,---,0.00,116.00,VWS V14.01,2012-11-10 12:39:00,
2012-11-10 07:40:00,52.2,47.5,30.30,NE,51,2.0,4.0,84,0.00,,---,0.00,54.00,VWS V14.01,2012-11-10 12:40:00,
2012-11-10 07:41:00,54.2,48.5,30.30,ENE,69,1.0,4.0,81,0.00,,---,0.00,116.00,VWS V14.01,2012-11-10 12:41:00,
2012-11-10 07:42:00,54.2,48.5,30.30,ENE,69,0.0,4.0,81,0.00,,---,0.00,116.00,VWS V14.01,2012-11-10 12:42:00,
2012-11-10 07:43:00,54.4,48.7,30.30,ENE,61,1.0,4.0,81,0.00,,---,0.00,116.00,VWS V14.01,2012-11-10 12:43:00,
2012-11-10 07:44:00,54.8,49.1,30.30,ENE,61,0.0,4.0,81,0.00,,---,0.00,116.00,VWS V14.01,2012-11-10 12:44:00,
2012-11-10 07:45:00,53.0,48.0,30.30,East,85,1.0,4.0,83,0.00,,---,0.00,54.00,VWS V14.01,2012-11-10 12:45:00,
2012-11-10 07:46:00,55.0,49.3,30.30,NE,49,1.0,4.0,81,0.00,,---,0.00,116.00,VWS V14.01,2012-11-10 12:46:00,
2012-11-10 07:47:00,55.2,49.2,30.30,NE,49,0.0,4.0,80,0.00,,---,0.00,107.00,VWS V14.01,2012-11-10 12:47:00,
2012-11-10 07:48:00,55.3,49.2,30.30,NE,49,0.0,4.0,80,0.00,,---,0.00,118.00,VWS V14.01,2012-11-10 12:48:00,
2012-11-10 07:49:00,55.5,49.1,30.30,NE,52,3.0,4.0,79,0.00,,---,0.00,167.00,VWS V14.01,2012-11-10 12:49:00,
2012-11-10 07:50:00,54.0,48.3,30.30,ENE,69,1.0,4.0,81,0.00,,---,0.00,116.00,VWS V14.01,2012-11-10 12:50:00,
2012-11-10 07:51:00,55.8,49.0,30.30,NE,56,0.0,4.0,78,0.00,,---,0.00,83.00,VWS V14.01,2012-11-10 12:51:00,
2012-11-10 07:52:00,56.0,49.2,30.30,ENE,58,0.0,4.0,78,0.00,,---,0.00,79.00,VWS V14.01,2012-11-10 12:52:00,
2012-11-10 07:53:00,56.1,49.7,30.30,ENE,58,0.0,4.0,79,0.00,,---,0.00,79.00,VWS V14.01,2012-11-10 12:53:00,
2012-11-10 07:54:00,56.2,49.8,30.30,ENE,58,0.0,4.0,79,0.00,,---,0.00,54.00,VWS V14.01,2012-11-10 12:54:00,
2012-11-10 07:55:00,55.0,49.3,30.30,NE,49,0.0,4.0,81,0.00,,---,0.00,116.00,VWS V14.01,2012-11-10 12:55:00,
2012-11-10 07:56:00,56.3,49.9,30.30,East,79,0.0,4.0,79,0.00,,---,0.00,81.00,VWS V14.01,2012-11-10 12:56:00,
2012-11-10 07:57:00,56.4,50.0,30.30,East,79,0.0,4.0,79,0.00,,---,0.00,86.00,VWS V14.01,2012-11-10 12:57:00,
2012-11-10 07:58:00,56.5,50.1,30.30,East,79,0.0,4.0,79,0.00,,---,0.00,107.00,VWS V14.01,2012-11-10 12:58:00,
2012-11-10 07:59:00,56.6,50.2,30.30,NE,43,1.0,4.0,79,0.00,,---,0.00,70.00,VWS V14.01,2012-11-10 12:59:00,
2012-11-10 08:00:00,55.8,49.4,30.30,NE,56,0.0,4.0,79,0.00,,---,0.00,83.00,VWS V14.01,2012-11-10 13:00:00,
2012-11-10 08:01:00,56.7,49.9,30.30,NE,38,1.0,2.0,78,0.00,,---,0.00,37.00,VWS V14.01,2012-11-10 13:01:00,
2012-11-10 08:02:00,56.7,49.9,30.31,NNE,31,2.0,5.0,78,0.00,,---,0.00,39.00,VWS V14.01,2012-11-10 13:02:00,
2012-11-10 08:03:00,56.7,49.6,30.30,ENE,71,0.0,5.0,77,0.00,,---,0.00,40.00,VWS V14.01,2012-11-10 13:03:00,
2012-11-10 08:04:00,56.7,49.9,30.31,East,82,1.0,5.0,78,0.00,,---,0.00,42.00,VWS V14.01,2012-11-10 13:04:00,
2012-11-10 08:05:00,56.3,49.9,30.30,East,79,0.0,4.0,79,0.00,,---,0.00,81.00,VWS V14.01,2012-11-10 13:05:00,
2012-11-10 08:06:00,56.7,49.9,30.30,NE,36,0.0,5.0,78,0.00,,---,0.00,69.00,VWS V14.01,2012-11-10 13:06:00,
2012-11-10 08:07:00,56.6,49.8,30.31,NE,40,0.0,5.0,78,0.00,,---,0.00,69.00,VWS V14.01,2012-11-10 13:07:00,
2012-11-10 08:08:00,56.6,49.8,30.30,NE,39,0.0,5.0,78,0.00,,---,0.00,69.00,VWS V14.01,2012-11-10 13:08:00,
2012-11-10 08:09:00,56.6,50.2,30.30,NE,39,0.0,5.0,79,0.00,,---,0.00,79.00,VWS V14.01,2012-11-10 13:09:00,
2012-11-10 08:10:00,56.7,49.9,30.30,North,10,2.0,2.0,78,0.00,,---,0.00,53.00,VWS V14.01,2012-11-10 13:10:00,
2012-11-10 08:11:00,56.6,50.2,30.30,ENE,73,2.0,5.0,79,0.00,,---,0.00,74.00,VWS V14.01,2012-11-10 13:11:00,
2012-11-10 08:12:00,56.7,50.3,30.31,ENE,73,0.0,5.0,79,0.00,,---,0.00,74.00,VWS V14.01,2012-11-10 13:12:00,
2012-11-10 08:13:00,56.8,50.4,30.31,ENE,70,0.0,5.0,79,0.00,,---,0.00,132.00,VWS V14.01,2012-11-10 13:13:00,
2012-11-10 08:14:00,56.9,50.1,30.31,ENE,70,1.0,5.0,78,0.00,,---,0.00,134.00,VWS V14.01,2012-11-10 13:14:00,
2012-11-10 08:15:00,56.6,49.8,30.30,NE,36,1.0,5.0,78,0.00,,---,0.00,44.00,VWS V14.01,2012-11-10 13:15:00,
2012-11-10 08:16:00,57.2,50.4,30.31,ENE,70,0.0,5.0,78,0.00,,---,0.00,134.00,VWS V14.01,2012-11-10 13:16:00,
2012-11-10 08:17:00,57.4,50.6,30.31,ENE,70,0.0,5.0,78,0.00,,---,0.00,206.00,VWS V14.01,2012-11-10 13:17:00,
2012-11-10 08:18:00,57.6,50.5,30.31,NE,51,0.0,5.0,77,0.00,,---,0.00,118.00,VWS V14.01,2012-11-10 13:18:00,
2012-11-10 08:19:00,57.7,50.9,30.31,NE,51,0.0,5.0,78,0.00,,---,0.00,118.00,VWS V14.01,2012-11-10 13:19:00,
2012-11-10 08:20:00,56.6,50.2,30.30,East,94,0.0,5.0,79,0.00,,---,0.00,74.00,VWS V14.01,2012-11-10 13:20:00,
2012-11-10 08:21:00,58.0,50.8,30.31,ENE,57,0.0,5.0,77,0.00,,---,0.00,120.00,VWS V14.01,2012-11-10 13:21:00,
2012-11-10 08:22:00,58.0,50.5,30.31,NE,52,1.0,5.0,76,0.00,,---,0.00,104.00,VWS V14.01,2012-11-10 13:22:00,
2012-11-10 08:23:00,58.1,50.6,30.31,NE,55,0.0,5.0,76,0.00,,---,0.00,111.00,VWS V14.01,2012-11-10 13:23:00,
2012-11-10 08:24:00,58.3,51.1,30.31,NE,55,0.0,5.0,77,0.00,,---,0.00,107.00,VWS V14.01,2012-11-10 13:24:00,
2012-11-10 08:25:00,57.2,50.4,30.31,ENE,70,0.0,5.0,78,0.00,,---,0.00,134.00,VWS V14.01,2012-11-10 13:25:00,
2012-11-10 08:26:00,58.5,51.0,30.31,NNE,22,0.0,5.0,76,0.00,,---,0.00,156.00,VWS V14.01,2012-11-10 13:26:00,
2012-11-10 08:27:00,58.8,52.0,30.31,NNE,22,0.0,5.0,78,0.00,,---,0.00,190.00,VWS V14.01,2012-11-10 13:27:00,
2012-11-10 08:28:00,59.0,51.8,30.31,NE,44,0.0,5.0,77,0.00,,---,0.00,190.00,VWS V14.01,2012-11-10 13:28:00,
2012-11-10 08:29:00,59.1,51.9,30.31,NE,44,0.0,5.0,77,0.00,,---,0.00,190.00,VWS V14.01,2012-11-10 13:29:00,
2012-11-10 08:30:00,58.0,50.8,30.31,ENE,57,1.0,5.0,77,0.00,,---,0.00,120.00,VWS V14.01,2012-11-10 13:30:00,
2012-11-10 08:31:00,59.5,51.2,30.31,NE,55,0.0,5.0,74,0.00,,---,0.00,95.00,VWS V14.01,2012-11-10 13:31:00,
2012-11-10 08:32:00,59.6,51.7,30.31,NE,55,0.0,5.0,75,0.00,,---,0.00,79.00,VWS V14.01,2012-11-10 13:32:00,
2012-11-10 08:33:00,59.8,51.9,30.31,ENE,69,1.0,5.0,75,0.00,,---,0.00,79.00,VWS V14.01,2012-11-10 13:33:00,
2012-11-10 08:34:00,59.9,51.6,30.31,ENE,72,2.0,5.0,74,0.00,,---,0.00,79.00,VWS V14.01,2012-11-10 13:34:00,
2012-11-10 08:35:00,58.5,51.0,30.31,NNE,22,0.0,5.0,76,0.00,,---,0.00,156.00,VWS V14.01,2012-11-10 13:35:00,
2012-11-10 08:36:00,60.3,52.3,30.31,ENE,72,0.0,5.0,75,0.00,,---,0.00,121.00,VWS V14.01,2012-11-10 13:36:00,
2012-11-10 08:37:00,60.5,52.2,30.31,ENE,66,0.0,5.0,74,0.00,,---,0.00,121.00,VWS V14.01,2012-11-10 13:37:00,
2012-11-10 08:38:00,60.6,52.3,30.31,NNE,17,1.0,5.0,74,0.00,,---,0.00,93.00,VWS V14.01,2012-11-10 13:38:00,
2012-11-10 08:39:00,60.7,52.4,30.31,NE,34,1.0,5.0,74,0.00,,---,0.00,67.00,VWS V14.01,2012-11-10 13:39:00,
2012-11-10 08:40:00,60.7,52.4,30.31,NE,34,1.0,5.0,74,0.00,,---,0.00,67.00,VWS V14.01,2012-11-10 13:40:00,
2012-11-10 08:41:00,59.6,51.7,30.31,NE,55,0.0,5.0,75,0.00,,---,0.00,79.00,VWS V14.01,2012-11-10 13:41:00,
2012-11-10 08:42:00,60.7,52.4,30.31,NE,34,1.0,5.0,74,0.00,,---,0.00,67.00,VWS V14.01,2012-11-10 13:42:00,
2012-11-10 08:43:00,60.7,52.4,30.32,NE,34,1.0,5.0,74,0.00,,---,0.00,67.00,VWS V14.01,2012-11-10 13:43:00,
2012-11-10 08:44:00,60.7,52.4,30.32,NE,34,1.0,5.0,74,0.00,,---,0.00,67.00,VWS V14.01,2012-11-10 13:44:00,
2012-11-10 08:45:00,60.7,52.4,30.32,NE,34,1.0,5.0,74,0.00,,---,0.00,67.00,VWS V14.01,2012-11-10 13:45:00,
2012-11-10 08:46:00,60.4,52.1,30.31,ENE,66,0.0,5.0,74,0.00,,---,0.00,121.00,VWS V14.01,2012-11-10 13:46:00,
2012-11-10 08:47:00,60.7,52.4,30.32,NE,34,1.0,5.0,74,0.00,,---,0.00,67.00,VWS V14.01,2012-11-10 13:47:00,
2012-11-10 08:48:00,60.7,52.4,30.32,East,85,3.0,5.0,74,0.00,,---,0.00,67.00,VWS V14.01,2012-11-10 13:48:00,
2012-11-10 08:49:00,61.7,52.2,30.32,East,81,0.0,5.0,71,0.00,,---,0.00,70.00,VWS V14.01,2012-11-10 13:49:00,
2012-11-10 08:50:00,61.9,52.4,30.32,East,81,0.0,5.0,71,0.00,,---,0.00,70.00,VWS V14.01,2012-11-10 13:50:00,
2012-11-10 08:51:00,60.7,52.4,30.31,NE,34,1.0,5.0,74,0.00,,---,0.00,67.00,VWS V14.01,2012-11-10 13:51:00,
2012-11-10 08:52:00,62.1,52.6,30.32,ENE,78,0.0,5.0,71,0.00,,---,0.00,244.00,VWS V14.01,2012-11-10 13:52:00,
2012-11-10 08:53:00,62.2,52.7,30.32,ENE,77,0.0,5.0,71,0.00,,---,0.00,276.00,VWS V14.01,2012-11-10 13:53:00,
2012-11-10 08:54:00,62.3,52.8,30.32,ENE,77,0.0,5.0,71,0.00,,---,0.00,276.00,VWS V14.01,2012-11-10 13:54:00,
2012-11-10 08:55:00,62.4,52.5,30.32,ENE,78,0.0,5.0,70,0.00,,---,0.00,276.00,VWS V14.01,2012-11-10 13:55:00,
2012-11-10 08:56:00,60.7,52.4,30.32,NE,34,1.0,5.0,74,0.00,,---,0.00,67.00,VWS V14.01,2012-11-10 13:56:00,
2012-11-10 08:57:00,62.6,52.7,30.32,East,98,2.0,5.0,70,0.00,,---,0.00,276.00,VWS V14.01,2012-11-10 13:57:00,
2012-11-10 08:58:00,62.7,52.8,30.32,ENE,78,1.0,5.0,70,0.00,,---,0.00,195.00,VWS V14.01,2012-11-10 13:58:00,
2012-11-10 08:59:00,63.0,53.1,30.32,ENE,78,0.0,5.0,70,0.00,,---,0.00,207.00,VWS V14.01,2012-11-10 13:59:00,
2012-11-10 09:00:00,63.2,52.9,30.32,ENE,78,0.0,0.0,69,0.00,,---,0.00,165.00,VWS V14.01,2012-11-10 14:00:00,
2012-11-10 09:01:00,62.1,52.6,30.32,ENE,77,0.0,5.0,71,0.00,,---,0.00,70.00,VWS V14.01,2012-11-10 14:01:00,
2012-11-10 09:02:00,63.4,53.5,30.32,ENE,78,0.0,0.0,70,0.00,,---,0.00,165.00,VWS V14.01,2012-11-10 14:02:00,
2012-11-10 09:03:00,63.6,53.3,30.32,ENE,74,0.0,1.0,69,0.00,,---,0.00,218.00,VWS V14.01,2012-11-10 14:03:00,
2012-11-10 09:04:00,63.7,53.3,30.32,ENE,66,2.0,2.0,69,0.00,,---,0.00,267.00,VWS V14.01,2012-11-10 14:04:00,
2012-11-10 09:05:00,63.8,52.7,30.32,ENE,66,0.0,2.0,67,0.00,,---,0.00,318.00,VWS V14.01,2012-11-10 14:05:00,
2012-11-10 09:06:00,62.5,52.6,30.32,East,98,2.0,5.0,70,0.00,,---,0.00,276.00,VWS V14.01,2012-11-10 14:06:00,
2012-11-10 09:07:00,64.2,52.6,30.32,East,81,0.0,4.0,66,0.00,,---,0.00,367.00,VWS V14.01,2012-11-10 14:07:00,
2012-11-10 09:08:00,64.3,52.7,30.32,NNE,24,0.0,4.0,66,0.00,,---,0.00,367.00,VWS V14.01,2012-11-10 14:08:00,
2012-11-10 09:09:00,64.4,52.8,30.32,NE,50,1.0,4.0,66,0.00,,---,0.00,220.00,VWS V14.01,2012-11-10 14:09:00,
2012-11-10 09:10:00,64.5,52.9,30.32,ENE,68,0.0,4.0,66,0.00,,---,0.00,308.00,VWS V14.01,2012-11-10 14:10:00,
2012-11-10 09:11:00,63.4,53.5,30.32,ENE,78,0.0,0.0,70,0.00,,---,0.00,165.00,VWS V14.01,2012-11-10 14:11:00,
2012-11-10 09:12:00,64.6,53.4,30.32,ENE,68,0.0,4.0,67,0.00,,---,0.00,311.00,VWS V14.01,2012-11-10 14:12:00,
2012-11-10 09:13:00,64.6,53.4,30.32,ENE,68,0.0,4.0,67,0.00,,---,0.00,311.00,VWS V14.01,2012-11-10 14:13:00,
2012-11-10 09:14:00,64.7,53.5,30.32,ENE,68,0.0,4.0,67,0.00,,---,0.00,311.00,VWS V14.01,2012-11-10 14:14:00,
2012-11-10 09:15:00,64.8,53.6,30.32,ENE,68,0.0,4.0,67,0.00,,---,0.00,459.00,VWS V14.01,2012-11-10 14:15:00,
2012-11-10 09:16:00,64.2,52.6,30.32,East,81,0.0,4.0,66,0.00,,---,0.00,367.00,VWS V14.01,2012-11-10 14:16:00,
2012-11-10 09:17:00,64.9,53.7,30.32,NNE,12,0.0,4.0,67,0.00,,---,0.00,473.00,VWS V14.01,2012-11-10 14:17:00,
2012-11-10 09:18:00,65.0,53.8,30.32,NNE,18,0.0,4.0,67,0.00,,---,0.00,469.00,VWS V14.01,2012-11-10 14:18:00,
2012-11-10 09:19:00,65.0,53.4,30.32,North,357,1.0,4.0,66,0.00,,---,0.00,439.00,VWS V14.01,2012-11-10 14:19:00,
2012-11-10 09:20:00,65.2,52.7,30.32,NE,48,2.0,4.0,64,0.00,,---,0.00,436.00,VWS V14.01,2012-11-10 14:20:00,
2012-11-10 09:21:00,64.6,53.4,30.32,ENE,68,0.0,4.0,67,0.00,,---,0.00,311.00,VWS V14.01,2012-11-10 14:21:00,
2012-11-10 09:22:00,65.3,52.8,30.32,North,353,0.0,4.0,64,0.00,,---,0.00,415.00,VWS V14.01,2012-11-10 14:22:00,
2012-11-10 09:23:00,65.3,52.8,30.32,ENE,68,1.0,4.0,64,0.00,,---,0.00,450.00,VWS V14.01,2012-11-10 14:23:00,
2012-11-10 09:24:00,65.5,52.6,30.32,NE,50,0.0,4.0,63,0.00,,---,0.00,410.00,VWS V14.01,2012-11-10 14:24:00,
2012-11-10 09:25:00,65.6,53.1,30.32,North,1,0.0,4.0,64,0.00,,---,0.00,346.00,VWS V14.01,2012-11-10 14:25:00,
2012-11-10 09:26:00,64.9,53.7,30.32,NNE,12,0.0,4.0,67,0.00,,---,0.00,473.00,VWS V14.01,2012-11-10 14:26:00,
2012-11-10 09:27:00,65.8,52.9,30.32,NE,38,3.0,4.0,63,0.00,,---,0.00,362.00,VWS V14.01,2012-11-10 14:27:00,
2012-11-10 09:28:00,66.0,52.2,30.32,NE,48,0.0,4.0,61,0.00,,---,0.00,330.00,VWS V14.01,2012-11-10 14:28:00,
2012-11-10 09:29:00,66.1,52.3,30.32,NE,48,0.0,4.0,61,0.00,,---,0.00,332.00,VWS V14.01,2012-11-10 14:29:00,
2012-11-10 09:30:00,66.3,53.3,30.32,NE,48,0.0,4.0,63,0.00,,---,0.00,332.00,VWS V14.01,2012-11-10 14:30:00,
2012-11-10 09:31:00,66.3,52.9,30.32,NE,45,0.0,4.0,62,0.00,,---,0.00,519.00,VWS V14.01,2012-11-10 14:31:00,
2012-11-10 09:32:00,65.3,52.8,30.32,North,353,0.0,4.0,64,0.00,,---,0.00,417.00,VWS V14.01,2012-11-10 14:32:00,
2012-11-10 09:33:00,66.5,51.3,30.32,North,1,0.0,4.0,58,0.00,,---,0.00,527.00,VWS V14.01,2012-11-10 14:33:00,
2012-11-10 09:34:00,66.6,52.3,30.32,NE,38,0.0,4.0,60,0.00,,---,0.00,503.00,VWS V14.01,2012-11-10 14:34:00,
2012-11-10 09:35:00,66.7,52.8,30.32,NE,43,0.0,4.0,61,0.00,,---,0.00,503.00,VWS V14.01,2012-11-10 14:35:00,
2012-11-10 09:36:00,66.8,52.5,30.32,ENE,70,1.0,4.0,60,0.00,,---,0.00,541.00,VWS V14.01,2012-11-10 14:36:00,
2012-11-10 09:37:00,65.9,53.0,30.32,NE,48,0.0,4.0,63,0.00,,---,0.00,362.00,VWS V14.01,2012-11-10 14:37:00,
2012-11-10 09:38:00,67.0,52.7,30.32,ENE,68,1.0,4.0,60,0.00,,---,0.00,545.00,VWS V14.01,2012-11-10 14:38:00,
2012-11-10 09:39:00,67.0,53.1,30.33,North,8,1.0,4.0,61,0.00,,---,0.00,545.00,VWS V14.01,2012-11-10 14:39:00,
2012-11-10 09:40:00,67.1,52.8,30.32,SE,125,0.0,4.0,60,0.00,,---,0.00,550.00,VWS V14.01,2012-11-10 14:40:00,
2012-11-10 09:41:00,67.3,53.0,30.32,ESE,123,0.0,4.0,60,0.00,,---,0.00,550.00,VWS V14.01,2012-11-10 14:41:00,
2012-11-10 09:42:00,66.5,52.2,30.32,NE,35,2.0,4.0,60,0.00,,---,0.00,527.00,VWS V14.01,2012-11-10 14:42:00,
2012-11-10 09:43:00,67.7,52.9,30.32,NE,45,0.0,4.0,59,0.00,,---,0.00,559.00,VWS V14.01,2012-11-10 14:43:00,
2012-11-10 09:44:00,67.8,52.0,30.32,ENE,70,2.0,4.0,57,0.00,,---,0.00,561.00,VWS V14.01,2012-11-10 14:44:00,
2012-11-10 09:45:00,68.0,51.7,30.32,East,95,2.0,4.0,56,0.00,,---,0.00,563.00,VWS V14.01,2012-11-10 14:45:00,
2012-11-10 09:46:00,68.2,52.4,30.32,ENE,61,1.0,4.0,57,0.00,,---,0.00,566.00,VWS V14.01,2012-11-10 14:46:00,
2012-11-10 09:47:00,67.0,52.7,30.32,ENE,74,0.0,4.0,60,0.00,,---,0.00,545.00,VWS V14.01,2012-11-10 14:47:00,
2012-11-10 09:48:00,68.2,53.3,30.32,ESE,104,2.0,4.0,59,0.00,,---,0.00,564.00,VWS V14.01,2012-11-10 14:48:00,
2012-11-10 09:49:00,68.3,52.5,30.32,ESE,104,0.0,4.0,57,0.00,,---,0.00,570.00,VWS V14.01,2012-11-10 14:49:00,
2012-11-10 09:50:00,68.4,53.1,30.32,South,183,1.0,4.0,58,0.00,,---,0.00,573.00,VWS V14.01,2012-11-10 14:50:00,
2012-11-10 09:51:00,68.4,52.6,30.32,NE,49,1.0,4.0,57,0.00,,---,0.00,575.00,VWS V14.01,2012-11-10 14:51:00,
2012-11-10 09:52:00,67.7,52.9,30.32,NE,45,0.0,4.0,59,0.00,,---,0.00,559.00,VWS V14.01,2012-11-10 14:52:00,
2012-11-10 09:53:00,68.5,53.2,30.32,ESE,108,1.0,4.0,58,0.00,,---,0.00,578.00,VWS V14.01,2012-11-10 14:53:00,
2012-11-10 09:54:00,68.5,53.2,30.32,North,5,2.0,5.0,58,0.00,,---,0.00,582.00,VWS V14.01,2012-11-10 14:54:00,
2012-11-10 09:55:00,68.6,51.3,30.32,NE,44,1.0,5.0,54,0.00,,---,0.00,582.00,VWS V14.01,2012-11-10 14:55:00,
2012-11-10 09:56:00,68.8,53.4,30.32,North,2,0.0,5.0,58,0.00,,---,0.00,585.00,VWS V14.01,2012-11-10 14:56:00,
2012-11-10 09:57:00,68.3,53.4,30.32,East,80,3.0,4.0,59,0.00,,---,0.00,564.00,VWS V14.01,2012-11-10 14:57:00,
2012-11-10 09:58:00,69.2,51.9,30.32,ESE,122,0.0,5.0,54,0.00,,---,0.00,592.00,VWS V14.01,2012-11-10 14:58:00,
2012-11-10 09:59:00,69.3,52.5,30.32,NNW,345,1.0,5.0,55,0.00,,---,0.00,596.00,VWS V14.01,2012-11-10 14:59:00,
2012-11-10 10:00:00,69.3,52.0,30.32,NNE,23,0.0,1.0,54,0.00,,---,0.00,598.00,VWS V14.01,2012-11-10 15:00:00,
2012-11-10 10:01:00,69.4,52.0,30.32,North,1,1.0,1.0,54,0.00,,---,0.00,598.00,VWS V14.01,2012-11-10 15:01:00,
2012-11-10 10:02:00,68.5,53.2,30.32,NE,51,0.0,4.0,58,0.00,,---,0.00,578.00,VWS V14.01,2012-11-10 15:02:00,
2012-11-10 10:03:00,69.7,52.8,30.32,ENE,74,0.0,1.0,55,0.00,,---,0.00,605.00,VWS V14.01,2012-11-10 15:03:00,
2012-11-10 10:04:00,69.8,53.4,30.32,East,91,1.0,2.0,56,0.00,,---,0.00,605.00,VWS V14.01,2012-11-10 15:04:00,
2012-11-10 10:05:00,69.9,53.0,30.32,ENE,65,2.0,3.0,55,0.00,,---,0.00,608.00,VWS V14.01,2012-11-10 15:05:00,
2012-11-10 10:06:00,70.0,52.1,30.32,NNW,335,1.0,4.0,53,0.00,,---,0.00,610.00,VWS V14.01,2012-11-10 15:06:00,
2012-11-10 10:07:00,69.0,51.7,30.32,ESE,122,0.0,5.0,54,0.00,,---,0.00,592.00,VWS V14.01,2012-11-10 15:07:00,
2012-11-10 10:08:00,70.1,51.7,30.32,NE,45,1.0,6.0,52,0.00,,---,0.00,613.00,VWS V14.01,2012-11-10 15:08:00,
2012-11-10 10:09:00,70.1,52.2,30.32,North,8,3.0,7.0,53,0.00,,---,0.00,617.00,VWS V14.01,2012-11-10 15:09:00,
2012-11-10 10:10:00,70.1,52.7,30.32,NE,45,4.0,7.0,54,0.00,,---,0.00,619.00,VWS V14.01,2012-11-10 15:10:00,
2012-11-10 10:11:00,70.1,51.2,30.32,North,6,0.0,7.0,51,0.00,,---,0.00,619.00,VWS V14.01,2012-11-10 15:11:00,
2012-11-10 10:12:00,69.7,52.8,30.32,ENE,74,0.0,1.0,55,0.00,,---,0.00,605.00,VWS V14.01,2012-11-10 15:12:00,
2012-11-10 10:13:00,70.2,51.2,30.32,East,84,4.0,7.0,51,0.00,,---,0.00,624.00,VWS V14.01,2012-11-10 15:13:00,
2012-11-10 10:14:00,70.3,51.3,30.32,NE,42,3.0,7.0,51,0.00,,---,0.00,626.00,VWS V14.01,2012-11-10 15:14:00,
2012-11-10 10:15:00,70.4,50.9,30.32,NNE,21,3.0,8.0,50,0.00,,---,0.00,628.00,VWS V14.01,2012-11-10 15:15:00,
2012-11-10 10:16:00,70.5,51.5,30.32,NE,46,3.0,8.0,51,0.00,,---,0.00,631.00,VWS V14.01,2012-11-10 15:16:00,
2012-11-10 10:17:00,70.1,51.7,30.32,NE,45,1.0,6.0,52,0.00,,---,0.00,613.00,VWS V14.01,2012-11-10 15:17:00,
2012-11-10 10:18:00,70.7,50.1,30.32,ESE,118,4.0,8.0,48,0.00,,---,0.00,635.00,VWS V14.01,2012-11-10 15:18:00,
2012-11-10 10:19:00,70.9,51.3,30.32,NE,50,1.0,8.0,50,0.00,,---,0.00,636.00,VWS V14.01,2012-11-10 15:19:00,
2012-11-10 10:20:00,71.1,52.1,30.32,NE,56,1.0,8.0,51,0.00,,---,0.00,640.00,VWS V14.01,2012-11-10 15:20:00,
2012-11-10 10:21:00,71.1,52.1,30.32,NE,48,6.0,8.0,51,0.00,,---,0.00,640.00,VWS V14.01,2012-11-10 15:21:00,
2012-11-10 10:22:00,70.2,51.2,30.32,East,84,4.0,7.0,51,0.00,,---,0.00,624.00,VWS V14.01,2012-11-10 15:22:00,
2012-11-10 10:23:00,71.2,51.6,30.32,NE,41,5.0,8.0,50,0.00,,---,0.00,640.00,VWS V14.01,2012-11-10 15:23:00,
2012-11-10 10:24:00,71.2,50.0,30.32,East,79,5.0,11.0,47,0.00,,---,0.00,647.00,VWS V14.01,2012-11-10 15:24:00,
2012-11-10 10:25:00,71.3,51.2,30.32,NE,41,4.0,11.0,49,0.00,,---,0.00,649.00,VWS V14.01,2012-11-10 15:25:00,
2012-11-10 10:26:00,71.3,50.6,30.32,NNW,345,3.0,11.0,48,0.00,,---,0.00,649.00,VWS V14.01,2012-11-10 15:26:00,
2012-11-10 10:27:00,70.7,50.1,30.32,ESE,118,4.0,8.0,48,0.00,,---,0.00,635.00,VWS V14.01,2012-11-10 15:27:00,
2012-11-10 10:28:00,71.3,51.2,30.32,ESE,113,4.0,11.0,49,0.00,,---,0.00,654.00,VWS V14.01,2012-11-10 15:28:00,
2012-11-10 10:29:00,71.2,51.1,30.32,ESE,110,1.0,11.0,49,0.00,,---,0.00,657.00,VWS V14.01,2012-11-10 15:29:00,
2012-11-10 10:30:00,71.5,50.8,30.32,ESE,109,0.0,11.0,48,0.00,,---,0.00,659.00,VWS V14.01,2012-11-10 15:30:00,
2012-11-10 10:31:00,71.6,52.5,30.32,ENE,67,2.0,11.0,51,0.00,,---,0.00,659.00,VWS V14.01,2012-11-10 15:31:00,
2012-11-10 10:32:00,71.8,52.7,30.32,ENE,66,0.0,11.0,51,0.00,,---,0.00,661.00,VWS V14.01,2012-11-10 15:32:00,
2012-11-10 10:33:00,71.1,50.4,30.32,NNE,16,2.0,8.0,48,0.00,,---,0.00,640.00,VWS V14.01,2012-11-10 15:33:00,
2012-11-10 10:34:00,71.9,51.7,30.32,ENE,72,3.0,11.0,49,0.00,,---,0.00,664.00,VWS V14.01,2012-11-10 15:34:00,
2012-11-10 10:35:00,71.9,51.7,30.32,ESE,105,2.0,11.0,49,0.00,,---,0.00,666.00,VWS V14.01,2012-11-10 15:35:00,
2012-11-10 10:36:00,71.9,52.3,30.32,WSW,255,1.0,11.0,50,0.00,,---,0.00,666.00,VWS V14.01,2012-11-10 15:36:00,
2012-11-10 10:37:00,72.1,52.5,30.32,East,87,4.0,11.0,50,0.00,,---,0.00,668.00,VWS V14.01,2012-11-10 15:37:00,
2012-11-10 10:38:00,71.2,51.1,30.32,ESE,121,2.0,11.0,49,0.00,,---,0.00,657.00,VWS V14.01,2012-11-10 15:38:00,
2012-11-10 10:39:00,72.4,52.7,30.32,East,84,1.0,11.0,50,0.00,,---,0.00,671.00,VWS V14.01,2012-11-10 15:39:00,
2012-11-10 10:40:00,72.5,51.7,30.31,SW,230,1.0,11.0,48,0.00,,---,0.00,673.00,VWS V14.01,2012-11-10 15:40:00,
2012-11-10 10:41:00,72.5,52.8,30.32,SE,127,1.0,11.0,50,0.00,,---,0.00,675.00,VWS V14.01,2012-11-10 15:41:00,
2012-11-10 10:42:00,72.6,51.8,30.32,NE,50,3.0,11.0,48,0.00,,---,0.00,679.00,VWS V14.01,2012-11-10 15:42:00,
2012-11-10 10:43:00,71.9,51.7,30.32,ESE,103,2.0,11.0,49,0.00,,---,0.00,664.00,VWS V14.01,2012-11-10 15:43:00,
2012-11-10 10:44:00,72.6,51.8,30.31,SSE,148,1.0,11.0,48,0.00,,---,0.00,679.00,VWS V14.01,2012-11-10 15:44:00,
2012-11-10 10:45:00,72.7,53.0,30.31,East,87,2.0,11.0,50,0.00,,---,0.00,682.00,VWS V14.01,2012-11-10 15:45:00,
2012-11-10 10:46:00,72.7,51.9,30.31,East,79,3.0,11.0,48,0.00,,---,0.00,684.00,VWS V14.01,2012-11-10 15:46:00,
2012-11-10 10:47:00,72.6,51.8,30.31,NE,43,3.0,11.0,48,0.00,,---,0.00,686.00,VWS V14.01,2012-11-10 15:47:00,
2012-11-10 10:48:00,72.4,52.7,30.32,South,178,3.0,11.0,50,0.00,,---,0.00,671.00,VWS V14.01,2012-11-10 15:48:00,
2012-11-10 10:49:00,72.7,53.0,30.31,ENE,58,2.0,11.0,50,0.00,,---,0.00,689.00,VWS V14.01,2012-11-10 15:49:00,
2012-11-10 10:50:00,72.8,54.2,30.32,East,99,1.0,11.0,52,0.00,,---,0.00,691.00,VWS V14.01,2012-11-10 15:50:00,
2012-11-10 10:51:00,73.0,53.3,30.32,NNW,336,4.0,11.0,50,0.00,,---,0.00,691.00,VWS V14.01,2012-11-10 15:51:00,
2012-11-10 10:52:00,73.1,53.9,30.31,East,92,1.0,11.0,51,0.00,,---,0.00,693.00,VWS V14.01,2012-11-10 15:52:00,
2012-11-10 10:53:00,72.6,51.8,30.31,SSE,149,4.0,11.0,48,0.00,,---,0.00,679.00,VWS V14.01,2012-11-10 15:53:00,
2012-11-10 10:54:00,73.1,53.4,30.32,East,95,0.0,11.0,50,0.00,,---,0.00,694.00,VWS V14.01,2012-11-10 15:54:00,
2012-11-10 10:55:00,73.2,54.5,30.32,East,90,1.0,11.0,52,0.00,,---,0.00,694.00,VWS V14.01,2012-11-10 15:55:00,
2012-11-10 10:56:00,73.1,53.9,30.32,NE,37,3.0,11.0,51,0.00,,---,0.00,696.00,VWS V14.01,2012-11-10 15:56:00,
2012-11-10 10:57:00,73.1,53.4,30.32,ESE,120,2.0,11.0,50,0.00,,---,0.00,700.00,VWS V14.01,2012-11-10 15:57:00,
2012-11-10 10:58:00,72.8,53.1,30.31,ENE,58,2.0,11.0,50,0.00,,---,0.00,689.00,VWS V14.01,2012-11-10 15:58:00,
2012-11-10 10:59:00,73.4,52.5,30.31,SW,222,0.0,11.0,48,0.00,,---,0.00,605.00,VWS V14.01,2012-11-10 15:59:00,
2012-11-10 11:00:00,73.3,51.9,30.31,SSE,166,3.0,4.0,47,0.00,,---,0.00,703.00,VWS V14.01,2012-11-10 16:00:00,
2012-11-10 11:01:00,73.3,52.5,30.31,NE,45,2.0,5.0,48,0.00,,---,0.00,703.00,VWS V14.01,2012-11-10 16:01:00,
2012-11-10 11:02:00,73.3,53.0,30.31,South,178,4.0,5.0,49,0.00,,---,0.00,707.00,VWS V14.01,2012-11-10 16:02:00,
2012-11-10 11:03:00,73.1,52.8,30.32,East,95,0.0,11.0,49,0.00,,---,0.00,694.00,VWS V14.01,2012-11-10 16:03:00,
2012-11-10 11:04:00,73.3,52.5,30.31,SSE,147,2.0,7.0,48,0.00,,---,0.00,708.00,VWS V14.01,2012-11-10 16:04:00,
2012-11-10 11:05:00,73.2,52.9,30.31,NE,34,2.0,7.0,49,0.00,,---,0.00,708.00,VWS V14.01,2012-11-10 16:05:00,
2012-11-10 11:06:00,73.2,52.9,30.31,SE,140,10.0,10.0,49,0.00,,---,0.00,708.00,VWS V14.01,2012-11-10 16:06:00,
2012-11-10 11:07:00,73.1,52.8,30.31,East,97,4.0,10.0,49,0.00,,---,0.00,710.00,VWS V14.01,2012-11-10 16:07:00,
2012-11-10 11:08:00,73.4,54.2,30.31,SE,145,2.0,11.0,51,0.00,,---,0.00,605.00,VWS V14.01,2012-11-10 16:08:00,
2012-11-10 11:09:00,73.1,52.8,30.31,North,360,0.0,10.0,49,0.00,,---,0.00,712.00,VWS V14.01,2012-11-10 16:09:00,
2012-11-10 11:10:00,73.3,55.2,30.31,ENE,76,1.0,10.0,53,0.00,,---,0.00,712.00,VWS V14.01,2012-11-10 16:10:00,
2012-11-10 11:11:00,73.6,54.4,30.31,NE,56,4.0,10.0,51,0.00,,---,0.00,715.00,VWS V14.01,2012-11-10 16:11:00,
2012-11-10 11:12:00,73.8,54.0,30.31,ENE,62,6.0,10.0,50,0.00,,---,0.00,714.00,VWS V14.01,2012-11-10 16:12:00,
2012-11-10 11:13:00,73.3,52.5,30.31,SSE,147,2.0,7.0,48,0.00,,---,0.00,708.00,VWS V14.01,2012-11-10 16:13:00,
2012-11-10 11:14:00,73.7,54.5,30.31,East,88,3.0,10.0,51,0.00,,---,0.00,719.00,VWS V14.01,2012-11-10 16:14:00,
2012-11-10 11:15:00,73.6,53.8,30.31,East,91,0.0,10.0,50,0.00,,---,0.00,719.00,VWS V14.01,2012-11-10 16:15:00,
2012-11-10 11:16:00,73.6,53.3,30.31,ESE,112,1.0,10.0,49,0.00,,---,0.00,719.00,VWS V14.01,2012-11-10 16:16:00,
2012-11-10 11:17:00,73.7,53.4,30.31,SSE,154,1.0,10.0,49,0.00,,---,0.00,722.00,VWS V14.01,2012-11-10 16:17:00,
2012-11-10 11:18:00,73.1,52.8,30.31,North,360,1.0,10.0,49,0.00,,---,0.00,712.00,VWS V14.01,2012-11-10 16:18:00,
2012-11-10 11:19:00,73.9,54.1,30.31,NE,48,6.0,10.0,50,0.00,,---,0.00,722.00,VWS V14.01,2012-11-10 16:19:00,
2012-11-10 11:20:00,73.8,52.9,30.30,ESE,103,1.0,10.0,48,0.00,,---,0.00,722.00,VWS V14.01,2012-11-10 16:20:00,
2012-11-10 11:21:00,73.8,52.9,30.30,East,95,3.0,10.0,48,0.00,,---,0.00,724.00,VWS V14.01,2012-11-10 16:21:00,
2012-11-10 11:22:00,73.7,52.8,30.30,East,96,1.0,10.0,48,0.00,,---,0.00,724.00,VWS V14.01,2012-11-10 16:22:00,
2012-11-10 11:23:00,73.7,54.5,30.31,SSE,152,4.0,10.0,51,0.00,,---,0.00,717.00,VWS V14.01,2012-11-10 16:23:00,
2012-11-10 11:24:00,73.8,53.5,30.30,East,87,9.0,10.0,49,0.00,,---,0.00,724.00,VWS V14.01,2012-11-10 16:24:00,
2012-11-10 11:25:00,73.7,53.4,30.30,East,99,4.0,10.0,49,0.00,,---,0.00,728.00,VWS V14.01,2012-11-10 16:25:00,
2012-11-10 11:26:00,73.8,53.5,30.30,East,89,3.0,10.0,49,0.00,,---,0.00,728.00,VWS V14.01,2012-11-10 16:26:00,
2012-11-10 11:27:00,74.0,54.7,30.30,ESE,116,1.0,10.0,51,0.00,,---,0.00,729.00,VWS V14.01,2012-11-10 16:27:00,
2012-11-10 11:28:00,73.8,54.0,30.31,ENE,76,3.0,10.0,50,0.00,,---,0.00,722.00,VWS V14.01,2012-11-10 16:28:00,
2012-11-10 11:29:00,74.1,53.2,30.30,ENE,58,1.0,10.0,48,0.00,,---,0.00,731.00,VWS V14.01,2012-11-10 16:29:00,
2012-11-10 11:30:00,74.0,54.2,30.30,North,360,2.0,10.0,50,0.00,,---,0.00,731.00,VWS V14.01,2012-11-10 16:30:00,
2012-11-10 11:31:00,73.9,54.1,30.30,NE,37,2.0,10.0,50,0.00,,---,0.00,731.00,VWS V14.01,2012-11-10 16:31:00,
2012-11-10 11:32:00,73.9,54.1,30.30,ENE,75,4.0,10.0,50,0.00,,---,0.00,737.00,VWS V14.01,2012-11-10 16:32:00,
2012-11-10 11:33:00,73.8,54.6,30.30,East,100,2.0,10.0,51,0.00,,---,0.00,724.00,VWS V14.01,2012-11-10 16:33:00,
2012-11-10 11:34:00,73.9,53.6,30.30,SSE,161,0.0,10.0,49,0.00,,---,0.00,737.00,VWS V14.01,2012-11-10 16:34:00,
2012-11-10 11:35:00,74.3,55.0,30.30,East,95,2.0,10.0,51,0.00,,---,0.00,737.00,VWS V14.01,2012-11-10 16:35:00,
2012-11-10 11:36:00,74.4,55.1,30.30,East,93,2.0,10.0,51,0.00,,---,0.00,737.00,VWS V14.01,2012-11-10 16:36:00,
2012-11-10 11:37:00,74.5,55.2,30.29,SE,137,2.0,10.0,51,0.00,,---,0.00,738.00,VWS V14.01,2012-11-10 16:37:00,
2012-11-10 11:38:00,74.1,53.2,30.30,ENE,77,2.0,10.0,48,0.00,,---,0.00,731.00,VWS V14.01,2012-11-10 16:38:00,
2012-11-10 11:39:00,74.5,54.1,30.29,SSE,148,8.0,10.0,49,0.00,,---,0.00,745.00,VWS V14.01,2012-11-10 16:39:00,
2012-11-10 11:40:00,74.4,54.0,30.29,NE,41,2.0,10.0,49,0.00,,---,0.00,749.00,VWS V14.01,2012-11-10 16:40:00,
2012-11-10 11:41:00,74.4,53.5,30.29,South,169,3.0,10.0,48,0.00,,---,0.00,749.00,VWS V14.01,2012-11-10 16:41:00,
2012-11-10 11:42:00,74.3,53.4,30.29,SSE,168,4.0,10.0,48,0.00,,---,0.00,749.00,VWS V14.01,2012-11-10 16:42:00,
2012-11-10 11:43:00,73.9,53.6,30.30,SSE,161,0.0,10.0,49,0.00,,---,0.00,737.00,VWS V14.01,2012-11-10 16:43:00,
2012-11-10 11:44:00,74.0,53.1,30.29,SSE,147,2.0,10.0,48,0.00,,---,0.00,754.00,VWS V14.01,2012-11-10 16:44:00,
2012-11-10 11:45:00,73.9,53.6,30.29,SSE,159,2.0,10.0,49,0.00,,---,0.00,754.00,VWS V14.01,2012-11-10 16:45:00,
2012-11-10 11:46:00,74.0,53.7,30.29,SSE,166,4.0,10.0,49,0.00,,---,0.00,758.00,VWS V14.01,2012-11-10 16:46:00,
2012-11-10 11:47:00,74.1,53.7,30.29,ESE,108,0.0,10.0,49,0.00,,---,0.00,761.00,VWS V14.01,2012-11-10 16:47:00,
2012-11-10 11:48:00,74.5,54.1,30.29,SE,136,3.0,10.0,49,0.00,,---,0.00,745.00,VWS V14.01,2012-11-10 16:48:00,
2012-11-10 11:49:00,74.4,54.6,30.29,North,4,1.0,10.0,50,0.00,,---,0.00,780.00,VWS V14.01,2012-11-10 16:49:00,
2012-11-10 11:50:00,74.2,54.4,30.29,NE,35,3.0,10.0,50,0.00,,---,0.00,780.00,VWS V14.01,2012-11-10 16:50:00,
2012-11-10 11:51:00,73.9,53.0,30.29,ENE,74,6.0,10.0,48,0.00,,---,0.00,749.00,VWS V14.01,2012-11-10 16:51:00,
2012-11-10 11:52:00,73.4,53.7,30.28,ENE,74,3.0,10.0,50,0.00,,---,0.00,773.00,VWS V14.01,2012-11-10 16:52:00,
2012-11-10 11:53:00,74.0,53.1,30.29,ESE,121,2.0,10.0,48,0.00,,---,0.00,754.00,VWS V14.01,2012-11-10 16:53:00,
2012-11-10 11:54:00,73.5,54.3,30.28,ESE,118,1.0,10.0,51,0.00,,---,0.00,773.00,VWS V14.01,2012-11-10 16:54:00,
2012-11-10 11:55:00,73.8,54.0,30.28,SSE,150,3.0,10.0,50,0.00,,---,0.00,777.00,VWS V14.01,2012-11-10 16:55:00,
2012-11-10 11:56:00,74.1,53.7,30.28,East,87,6.0,10.0,49,0.00,,---,0.00,782.00,VWS V14.01,2012-11-10 16:56:00,
2012-11-10 11:57:00,74.2,53.3,30.28,SE,134,2.0,10.0,48,0.00,,---,0.00,795.00,VWS V14.01,2012-11-10 16:57:00,
2012-11-10 11:58:00,74.4,54.6,30.29,North,360,2.0,10.0,50,0.00,,---,0.00,780.00,VWS V14.01,2012-11-10 16:58:00,
2012-11-10 11:59:00,74.4,53.5,30.28,SSE,149,2.0,10.0,48,0.00,,---,0.00,803.00,VWS V14.01,2012-11-10 16:59:00,
2012-11-10 12:00:00,74.5,53.5,30.28,SSE,152,6.0,6.0,48,0.00,,---,0.00,805.00,VWS V14.01,2012-11-10 17:00:00,
2012-11-10 12:01:00,74.4,53.5,30.28,East,98,3.0,7.0,48,0.00,,---,0.00,802.00,VWS V14.01,2012-11-10 17:01:00,
2012-11-10 12:02:00,74.6,54.8,30.27,ENE,62,6.0,9.0,50,0.00,,---,0.00,802.00,VWS V14.01,2012-11-10 17:02:00,
2012-11-10 12:03:00,73.5,54.3,30.28,ESE,118,1.0,10.0,51,0.00,,---,0.00,773.00,VWS V14.01,2012-11-10 17:03:00,
2012-11-10 12:04:00,74.9,54.5,30.28,East,81,2.0,9.0,49,0.00,,---,0.00,847.00,VWS V14.01,2012-11-10 17:04:00,
2012-11-10 12:05:00,75.2,54.8,30.27,SE,127,3.0,9.0,49,0.00,,---,0.00,865.00,VWS V14.01,2012-11-10 17:05:00,
2012-11-10 12:06:00,75.3,54.3,30.27,NNE,27,5.0,9.0,48,0.00,,---,0.00,865.00,VWS V14.01,2012-11-10 17:06:00,
2012-11-10 12:07:00,75.4,54.4,30.27,SE,130,9.0,13.0,48,0.00,,---,0.00,830.00,VWS V14.01,2012-11-10 17:07:00,
2012-11-10 12:08:00,75.3,53.7,30.27,ESE,102,7.0,13.0,47,0.00,,---,0.00,807.00,VWS V14.01,2012-11-10 17:08:00,
2012-11-10 12:09:00,74.4,53.5,30.28,SSE,149,2.0,10.0,48,0.00,,---,0.00,803.00,VWS V14.01,2012-11-10 17:09:00,
2012-11-10 12:10:00,75.2,54.2,30.27,East,94,2.0,13.0,48,0.00,,---,0.00,788.00,VWS V14.01,2012-11-10 17:10:00,
2012-11-10 12:11:00,75.2,54.2,30.27,NNE,33,6.0,13.0,48,0.00,,---,0.00,777.00,VWS V14.01,2012-11-10 17:11:00,
2012-11-10 12:12:00,75.2,53.6,30.27,SE,127,7.0,13.0,47,0.00,,---,0.00,780.00,VWS V14.01,2012-11-10 17:12:00,
2012-11-10 12:13:00,74.9,54.5,30.28,East,81,2.0,9.0,49,0.00,,---,0.00,847.00,VWS V14.01,2012-11-10 17:13:00,
2012-11-10 12:14:00,75.3,54.3,30.27,East,100,6.0,13.0,48,0.00,,---,0.00,786.00,VWS V14.01,2012-11-10 17:14:00,
2012-11-10 12:15:00,75.2,53.6,30.27,East,100,5.0,13.0,47,0.00,,---,0.00,786.00,VWS V14.01,2012-11-10 17:15:00,
2012-11-10 12:16:00,75.1,52.9,30.27,ENE,62,5.0,13.0,46,0.00,,---,0.00,788.00,VWS V14.01,2012-11-10 17:16:00,
2012-11-10 12:17:00,75.0,54.0,30.27,ENE,58,4.0,13.0,48,0.00,,---,0.00,793.00,VWS V14.01,2012-11-10 17:17:00,
2012-11-10 12:18:00,75.0,54.6,30.27,ESE,102,5.0,13.0,49,0.00,,---,0.00,788.00,VWS V14.01,2012-11-10 17:18:00,
2012-11-10 12:19:00,75.1,54.1,30.27,ENE,71,3.0,13.0,48,0.00,,---,0.00,788.00,VWS V14.01,2012-11-10 17:19:00,
2012-11-10 12:20:00,74.9,53.3,30.27,East,92,4.0,13.0,47,0.00,,---,0.00,803.00,VWS V14.01,2012-11-10 17:20:00,
2012-11-10 12:21:00,75.0,53.4,30.27,South,181,7.0,13.0,47,0.00,,---,0.00,802.00,VWS V14.01,2012-11-10 17:21:00,
2012-11-10 12:22:00,75.0,53.4,30.26,East,91,5.0,13.0,47,0.00,,---,0.00,789.00,VWS V14.01,2012-11-10 17:22:00,
2012-11-10 12:23:00,75.0,53.4,30.26,ENE,58,2.0,13.0,47,0.00,,---,0.00,782.00,VWS V14.01,2012-11-10 17:23:00,
2012-11-10 12:24:00,75.3,53.7,30.27,East,79,8.0,13.0,47,0.00,,---,0.00,786.00,VWS V14.01,2012-11-10 17:24:00,
2012-11-10 12:25:00,74.9,52.8,30.26,NE,53,6.0,13.0,46,0.00,,---,0.00,812.00,VWS V14.01,2012-11-10 17:25:00,
2012-11-10 12:26:00,74.8,52.7,30.26,ESE,104,9.0,13.0,46,0.00,,---,0.00,812.00,VWS V14.01,2012-11-10 17:26:00,
2012-11-10 12:27:00,74.8,52.7,30.26,ESE,114,1.0,13.0,46,0.00,,---,0.00,812.00,VWS V14.01,2012-11-10 17:27:00,
2012-11-10 12:28:00,74.9,53.3,30.26,SE,124,2.0,13.0,47,0.00,,---,0.00,814.00,VWS V14.01,2012-11-10 17:28:00,
2012-11-10 12:29:00,74.9,53.3,30.27,NE,47,1.0,13.0,47,0.00,,---,0.00,803.00,VWS V14.01,2012-11-10 17:29:00,
2012-11-10 12:30:00,75.5,53.9,30.26,East,91,6.0,13.0,47,0.00,,---,0.00,810.00,VWS V14.01,2012-11-10 17:30:00,
2012-11-10 12:31:00,75.5,53.9,30.26,ENE,65,8.0,13.0,47,0.00,,---,0.00,817.00,VWS V14.01,2012-11-10 17:31:00,
2012-11-10 12:32:00,75.4,53.8,30.26,SE,136,4.0,13.0,47,0.00,,---,0.00,817.00,VWS V14.01,2012-11-10 17:32:00,
2012-11-10 12:33:00,75.4,53.8,30.26,ESE,112,6.0,13.0,47,0.00,,---,0.00,817.00,VWS V14.01,2012-11-10 17:33:00,
2012-11-10 12:34:00,74.9,52.8,30.26,ENE,62,8.0,13.0,46,0.00,,---,0.00,812.00,VWS V14.01,2012-11-10 17:34:00,
2012-11-10 12:35:00,75.2,53.6,30.26,NE,48,3.0,13.0,47,0.00,,---,0.00,898.00,VWS V14.01,2012-11-10 17:35:00,
2012-11-10 12:36:00,75.2,54.8,30.25,SSW,198,2.0,13.0,49,0.00,,---,0.00,831.00,VWS V14.01,2012-11-10 17:36:00,
2012-11-10 12:37:00,75.5,55.6,30.26,East,85,6.0,13.0,50,0.00,,---,0.00,831.00,VWS V14.01,2012-11-10 17:37:00,
2012-11-10 12:38:00,75.8,55.9,30.25,ENE,76,0.0,13.0,50,0.00,,---,0.00,872.00,VWS V14.01,2012-11-10 17:38:00,
2012-11-10 12:39:00,75.4,53.8,30.26,East,99,9.0,13.0,47,0.00,,---,0.00,828.00,VWS V14.01,2012-11-10 17:39:00,
2012-11-10 12:40:00,76.0,54.9,30.25,East,94,3.0,13.0,48,0.00,,---,0.00,872.00,VWS V14.01,2012-11-10 17:40:00,
2012-11-10 12:41:00,75.8,54.7,30.25,ESE,120,4.0,13.0,48,0.00,,---,0.00,872.00,VWS V14.01,2012-11-10 17:41:00,
2012-11-10 12:42:00,75.5,53.9,30.25,ENE,78,4.0,13.0,47,0.00,,---,0.00,174.00,VWS V14.01,2012-11-10 17:42:00,
2012-11-10 12:43:00,75.2,53.6,30.25,SE,133,0.0,13.0,47,0.00,,---,0.00,174.00,VWS V14.01,2012-11-10 17:43:00,
2012-11-10 12:44:00,75.2,53.6,30.26,NE,50,5.0,13.0,47,0.00,,---,0.00,856.00,VWS V14.01,2012-11-10 17:44:00,
2012-11-10 12:45:00,74.4,53.5,30.25,East,81,3.0,13.0,48,0.00,,---,0.00,141.00,VWS V14.01,2012-11-10 17:45:00,
2012-11-10 12:46:00,74.1,53.7,30.25,ENE,68,1.0,13.0,49,0.00,,---,0.00,181.00,VWS V14.01,2012-11-10 17:46:00,
2012-11-10 12:47:00,73.8,52.9,30.25,ESE,107,5.0,13.0,48,0.00,,---,0.00,181.00,VWS V14.01,2012-11-10 17:47:00,
2012-11-10 12:48:00,73.7,53.4,30.25,East,100,3.0,13.0,49,0.00,,---,0.00,181.00,VWS V14.01,2012-11-10 17:48:00,
2012-11-10 12:49:00,76.0,54.9,30.25,East,90,1.0,13.0,48,0.00,,---,0.00,872.00,VWS V14.01,2012-11-10 17:49:00,
2012-11-10 12:50:00,74.0,53.7,30.25,SSE,152,7.0,13.0,49,0.00,,---,0.00,809.00,VWS V14.01,2012-11-10 17:50:00,
2012-11-10 12:51:00,74.3,54.5,30.25,East,94,8.0,13.0,50,0.00,,---,0.00,795.00,VWS V14.01,2012-11-10 17:51:00,
2012-11-10 12:52:00,74.6,54.2,30.25,NNE,27,1.0,13.0,49,0.00,,---,0.00,782.00,VWS V14.01,2012-11-10 17:52:00,
2012-11-10 12:53:00,74.9,54.5,30.25,SSE,147,3.0,13.0,49,0.00,,---,0.00,796.00,VWS V14.01,2012-11-10 17:53:00,
2012-11-10 12:54:00,74.5,53.5,30.25,ENE,60,6.0,13.0,48,0.00,,---,0.00,141.00,VWS V14.01,2012-11-10 17:54:00,
2012-11-10 12:55:00,75.1,53.5,30.25,SSE,166,1.0,13.0,47,0.00,,---,0.00,789.00,VWS V14.01,2012-11-10 17:55:00,
2012-11-10 12:56:00,75.3,53.7,30.25,East,84,10.0,13.0,47,0.00,,---,0.00,789.00,VWS V14.01,2012-11-10 17:56:00,
2012-11-10 12:57:00,75.2,53.0,30.25,SE,135,2.0,13.0,46,0.00,,---,0.00,798.00,VWS V14.01,2012-11-10 17:57:00,
2012-11-10 12:58:00,75.3,54.3,30.25,East,85,4.0,13.0,48,0.00,,---,0.00,796.00,VWS V14.01,2012-11-10 17:58:00,
2012-11-10 12:59:00,73.9,53.6,30.25,ESE,118,3.0,13.0,49,0.00,,---,0.00,809.00,VWS V14.01,2012-11-10 17:59:00,
2012-11-10 13:00:00,75.4,53.8,30.25,South,172,5.0,5.0,47,0.00,,---,0.00,807.00,VWS V14.01,2012-11-10 18:00:00,
2012-11-10 13:01:00,75.3,53.7,30.24,SSE,156,1.0,5.0,47,0.00,,---,0.00,793.00,VWS V14.01,2012-11-10 18:01:00,
2012-11-10 13:02:00,75.4,54.9,30.24,ESE,108,4.0,5.0,49,0.00,,---,0.00,823.00,VWS V14.01,2012-11-10 18:02:00,
2012-11-10 13:03:00,75.5,54.5,30.24,SSE,166,2.0,9.0,48,0.00,,---,0.00,821.00,VWS V14.01,2012-11-10 18:03:00,
2012-11-10 13:04:00,75.1,53.5,30.25,SSE,148,0.0,13.0,47,0.00,,---,0.00,789.00,VWS V14.01,2012-11-10 18:04:00,
2012-11-10 13:05:00,75.8,54.7,30.24,ESE,116,7.0,9.0,48,0.00,,---,0.00,795.00,VWS V14.01,2012-11-10 18:05:00,
2012-11-10 13:06:00,75.8,54.2,30.24,SSW,193,1.0,9.0,47,0.00,,---,0.00,780.00,VWS V14.01,2012-11-10 18:06:00,
2012-11-10 13:07:00,76.1,55.6,30.24,SSE,147,5.0,9.0,49,0.00,,---,0.00,772.00,VWS V14.01,2012-11-10 18:07:00,
2012-11-10 13:08:00,76.2,55.1,30.24,SE,127,3.0,9.0,48,0.00,,---,0.00,772.00,VWS V14.01,2012-11-10 18:08:00,
2012-11-10 13:09:00,75.3,53.7,30.25,SSE,153,4.0,13.0,47,0.00,,---,0.00,807.00,VWS V14.01,2012-11-10 18:09:00,
2012-11-10 13:10:00,76.5,54.8,30.24,SSE,161,3.0,9.0,47,0.00,,---,0.00,775.00,VWS V14.01,2012-11-10 18:10:00,
2012-11-10 13:11:00,76.6,54.3,30.24,SSE,166,8.0,9.0,46,0.00,,---,0.00,763.00,VWS V14.01,2012-11-10 18:11:00,
2012-11-10 13:12:00,76.7,54.4,30.24,SSE,151,4.0,9.0,46,0.00,,---,0.00,754.00,VWS V14.01,2012-11-10 18:12:00,
2012-11-10 13:13:00,76.5,53.6,30.24,ESE,108,3.0,9.0,45,0.00,,---,0.00,754.00,VWS V14.01,2012-11-10 18:13:00,
2012-11-10 13:14:00,75.8,54.7,30.24,East,93,5.0,9.0,48,0.00,,---,0.00,800.00,VWS V14.01,2012-11-10 18:14:00,
2012-11-10 13:15:00,76.0,53.2,30.24,SSE,153,6.0,9.0,45,0.00,,---,0.00,733.00,VWS V14.01,2012-11-10 18:15:00,
2012-11-10 13:16:00,75.9,53.1,30.24,South,188,5.0,9.0,45,0.00,,---,0.00,733.00,VWS V14.01,2012-11-10 18:16:00,
2012-11-10 13:17:00,75.9,53.7,30.24,SE,141,5.0,9.0,46,0.00,,---,0.00,733.00,VWS V14.01,2012-11-10 18:17:00,
2012-11-10 13:18:00,75.8,53.6,30.24,South,183,3.0,9.0,46,0.00,,---,0.00,761.00,VWS V14.01,2012-11-10 18:18:00,
2012-11-10 13:19:00,76.5,54.8,30.24,NE,54,2.0,9.0,47,0.00,,---,0.00,775.00,VWS V14.01,2012-11-10 18:19:00,
2012-11-10 13:20:00,76.0,53.8,30.24,ENE,71,3.0,9.0,46,0.00,,---,0.00,763.00,VWS V14.01,2012-11-10 18:20:00,
2012-11-10 13:21:00,75.9,53.7,30.24,ESE,114,3.0,9.0,46,0.00,,---,0.00,763.00,VWS V14.01,2012-11-10 18:21:00,
2012-11-10 13:22:00,75.8,53.6,30.24,ENE,57,2.0,9.0,46,0.00,,---,0.00,779.00,VWS V14.01,2012-11-10 18:22:00,
2012-11-10 13:23:00,75.7,54.1,30.23,ESE,102,0.0,9.0,47,0.00,,---,0.00,779.00,VWS V14.01,2012-11-10 18:23:00,
2012-11-10 13:24:00,76.0,53.2,30.24,ESE,123,6.0,9.0,45,0.00,,---,0.00,733.00,VWS V14.01,2012-11-10 18:24:00,
2012-11-10 13:25:00,75.8,54.2,30.23,NE,50,5.0,9.0,47,0.00,,---,0.00,846.00,VWS V14.01,2012-11-10 18:25:00,
2012-11-10 13:26:00,75.7,53.5,30.23,NE,49,5.0,9.0,46,0.00,,---,0.00,846.00,VWS V14.01,2012-11-10 18:26:00,
2012-11-10 13:27:00,75.5,53.3,30.23,South,183,1.0,9.0,46,0.00,,---,0.00,237.00,VWS V14.01,2012-11-10 18:27:00,
2012-11-10 13:28:00,75.4,53.2,30.23,NE,56,7.0,9.0,46,0.00,,---,0.00,236.00,VWS V14.01,2012-11-10 18:28:00,
2012-11-10 13:29:00,75.1,53.5,30.23,East,97,6.0,9.0,47,0.00,,---,0.00,236.00,VWS V14.01,2012-11-10 18:29:00,
2012-11-10 13:30:00,76.0,54.3,30.24,ESE,104,3.0,9.0,47,0.00,,---,0.00,763.00,VWS V14.01,2012-11-10 18:30:00,
2012-11-10 13:31:00,74.6,54.2,30.23,ENE,66,5.0,9.0,49,0.00,,---,0.00,183.00,VWS V14.01,2012-11-10 18:31:00,
2012-11-10 13:32:00,74.5,54.1,30.23,ENE,58,0.0,9.0,49,0.00,,---,0.00,162.00,VWS V14.01,2012-11-10 18:32:00,
2012-11-10 13:33:00,74.2,54.9,30.23,ENE,74,5.0,9.0,51,0.00,,---,0.00,162.00,VWS V14.01,2012-11-10 18:33:00,
2012-11-10 13:34:00,73.9,54.7,30.23,ENE,78,1.0,9.0,51,0.00,,---,0.00,128.00,VWS V14.01,2012-11-10 18:34:00,
2012-11-10 13:35:00,75.8,54.2,30.23,NE,50,5.0,9.0,47,0.00,,---,0.00,846.00,VWS V14.01,2012-11-10 18:35:00,
2012-11-10 13:36:00,73.6,53.8,30.23,East,85,3.0,9.0,50,0.00,,---,0.00,128.00,VWS V14.01,2012-11-10 18:36:00,
2012-11-10 13:37:00,73.4,53.7,30.23,ESE,111,4.0,9.0,50,0.00,,---,0.00,134.00,VWS V14.01,2012-11-10 18:37:00,
2012-11-10 13:38:00,73.3,54.1,30.23,ENE,67,2.0,9.0,51,0.00,,---,0.00,134.00,VWS V14.01,2012-11-10 18:38:00,
2012-11-10 13:39:00,74.9,53.9,30.23,SE,145,3.0,9.0,48,0.00,,---,0.00,236.00,VWS V14.01,2012-11-10 18:39:00,
2012-11-10 13:40:00,73.3,54.1,30.23,ENE,57,5.0,10.0,51,0.00,,---,0.00,134.00,VWS V14.01,2012-11-10 18:40:00,
2012-11-10 13:41:00,73.5,54.3,30.23,NE,53,3.0,10.0,51,0.00,,---,0.00,134.00,VWS V14.01,2012-11-10 18:41:00,
2012-11-10 13:42:00,73.8,54.0,30.23,ENE,70,3.0,10.0,50,0.00,,---,0.00,134.00,VWS V14.01,2012-11-10 18:42:00,
2012-11-10 13:43:00,74.2,55.5,30.23,East,91,1.0,10.0,52,0.00,,---,0.00,134.00,VWS V14.01,2012-11-10 18:43:00,
2012-11-10 13:44:00,74.2,53.8,30.23,NE,37,0.0,10.0,49,0.00,,---,0.00,134.00,VWS V14.01,2012-11-10 18:44:00,
2012-11-10 13:45:00,73.8,54.6,30.23,ESE,104,8.0,9.0,51,0.00,,---,0.00,127.00,VWS V14.01,2012-11-10 18:45:00,
2012-11-10 13:46:00,74.5,54.7,30.23,ENE,66,4.0,10.0,50,0.00,,---,0.00,742.00,VWS V14.01,2012-11-10 18:46:00,
2012-11-10 13:47:00,74.6,54.2,30.23,ESE,112,9.0,10.0,49,0.00,,---,0.00,805.00,VWS V14.01,2012-11-10 18:47:00,
2012-11-10 13:48:00,74.7,53.7,30.23,East,91,4.0,10.0,48,0.00,,---,0.00,802.00,VWS V14.01,2012-11-10 18:48:00,
2012-11-10 13:49:00,75.0,54.6,30.23,East,94,3.0,10.0,49,0.00,,---,0.00,802.00,VWS V14.01,2012-11-10 18:49:00,
2012-11-10 13:50:00,73.4,54.2,30.23,East,100,3.0,10.0,51,0.00,,---,0.00,134.00,VWS V14.01,2012-11-10 18:50:00,
2012-11-10 13:51:00,75.7,54.6,30.23,ESE,122,3.0,10.0,48,0.00,,---,0.00,756.00,VWS V14.01,2012-11-10 18:51:00,
2012-11-10 13:52:00,75.7,54.6,30.23,SE,125,1.0,10.0,48,0.00,,---,0.00,756.00,VWS V14.01,2012-11-10 18:52:00,
2012-11-10 13:53:00,75.7,54.1,30.23,SSE,158,0.0,10.0,47,0.00,,---,0.00,756.00,VWS V14.01,2012-11-10 18:53:00,
2012-11-10 13:54:00,75.8,53.6,30.23,ENE,61,6.0,10.0,46,0.00,,---,0.00,740.00,VWS V14.01,2012-11-10 18:54:00,
2012-11-10 13:55:00,74.4,54.6,30.23,East,91,4.0,10.0,50,0.00,,---,0.00,742.00,VWS V14.01,2012-11-10 18:55:00,
2012-11-10 13:56:00,76.0,54.3,30.23,East,84,2.0,10.0,47,0.00,,---,0.00,745.00,VWS V14.01,2012-11-10 18:56:00,
2012-11-10 13:57:00,76.2,54.5,30.23,ESE,116,4.0,10.0,47,0.00,,---,0.00,745.00,VWS V14.01,2012-11-10 18:57:00,
2012-11-10 13:58:00,76.3,54.6,30.23,NE,37,2.0,10.0,47,0.00,,---,0.00,744.00,VWS V14.01,2012-11-10 18:58:00,
2012-11-10 13:59:00,76.5,54.8,30.23,ENE,72,5.0,10.0,47,0.00,,---,0.00,744.00,VWS V14.01,2012-11-10 18:59:00,
2012-11-10 14:00:00,75.6,54.5,30.23,ESE,113,6.0,10.0,48,0.00,,---,0.00,756.00,VWS V14.01,2012-11-10 19:00:00,
2012-11-10 14:01:00,76.8,55.1,30.22,East,95,2.0,4.0,47,0.00,,---,0.00,744.00,VWS V14.01,2012-11-10 19:01:00,
2012-11-10 14:02:00,76.8,55.1,30.22,ESE,104,2.0,4.0,47,0.00,,---,0.00,722.00,VWS V14.01,2012-11-10 19:02:00,
2012-11-10 14:03:00,76.7,55.5,30.23,ESE,109,0.0,4.0,48,0.00,,---,0.00,714.00,VWS V14.01,2012-11-10 19:03:00,
2012-11-10 14:04:00,76.8,56.8,30.23,ENE,74,2.0,6.0,50,0.00,,---,0.00,714.00,VWS V14.01,2012-11-10 19:04:00,
2012-11-10 14:05:00,76.0,53.8,30.23,NNE,14,2.0,10.0,46,0.00,,---,0.00,745.00,VWS V14.01,2012-11-10 19:05:00,
2012-11-10 14:06:00,76.9,55.7,30.23,East,90,7.0,12.0,48,0.00,,---,0.00,687.00,VWS V14.01,2012-11-10 19:06:00,
2012-11-10 14:07:00,76.7,54.4,30.23,East,93,6.0,12.0,46,0.00,,---,0.00,684.00,VWS V14.01,2012-11-10 19:07:00,
2012-11-10 14:08:00,76.6,54.3,30.22,East,83,7.0,12.0,46,0.00,,---,0.00,675.00,VWS V14.01,2012-11-10 19:08:00,
2012-11-10 14:09:00,76.3,54.0,30.22,East,100,6.0,12.0,46,0.00,,---,0.00,670.00,VWS V14.01,2012-11-10 19:09:00,
2012-11-10 14:10:00,76.7,54.4,30.23,NE,37,1.0,4.0,46,0.00,,---,0.00,744.00,VWS V14.01,2012-11-10 19:10:00,
2012-11-10 14:11:00,76.2,54.5,30.22,SE,143,4.0,12.0,47,0.00,,---,0.00,635.00,VWS V14.01,2012-11-10 19:11:00,
2012-11-10 14:12:00,76.3,54.6,30.22,NE,35,3.0,12.0,47,0.00,,---,0.00,640.00,VWS V14.01,2012-11-10 19:12:00,
2012-11-10 14:13:00,76.2,55.1,30.22,NNE,33,1.0,12.0,48,0.00,,---,0.00,640.00,VWS V14.01,2012-11-10 19:13:00,
2012-11-10 14:14:00,76.2,56.8,30.23,NNE,14,3.0,12.0,51,0.00,,---,0.00,649.00,VWS V14.01,2012-11-10 19:14:00,
2012-11-10 14:15:00,77.0,55.8,30.23,NNE,13,6.0,12.0,48,0.00,,---,0.00,687.00,VWS V14.01,2012-11-10 19:15:00,
2012-11-10 14:16:00,76.2,55.1,30.22,ENE,77,1.0,12.0,48,0.00,,---,0.00,656.00,VWS V14.01,2012-11-10 19:16:00,
2012-11-10 14:17:00,76.3,55.8,30.22,ENE,58,0.0,12.0,49,0.00,,---,0.00,656.00,VWS V14.01,2012-11-10 19:17:00,
2012-11-10 14:18:00,76.4,56.4,30.22,ESE,118,4.0,12.0,50,0.00,,---,0.00,656.00,VWS V14.01,2012-11-10 19:18:00,
2012-11-10 14:19:00,76.6,54.9,30.23,East,101,10.0,12.0,47,0.00,,---,0.00,661.00,VWS V14.01,2012-11-10 19:19:00,
2012-11-10 14:20:00,76.2,54.5,30.22,East,86,9.0,12.0,47,0.00,,---,0.00,635.00,VWS V14.01,2012-11-10 19:20:00,
2012-11-10 14:21:00,76.5,53.6,30.23,SSE,158,1.0,12.0,45,0.00,,---,0.00,638.00,VWS V14.01,2012-11-10 19:21:00,
2012-11-10 14:22:00,76.4,53.5,30.23,East,89,5.0,12.0,45,0.00,,---,0.00,638.00,VWS V14.01,2012-11-10 19:22:00,
2012-11-10 14:23:00,76.1,53.2,30.22,SSE,166,4.0,12.0,45,0.00,,---,0.00,638.00,VWS V14.01,2012-11-10 19:23:00,
2012-11-10 14:24:00,75.8,53.6,30.22,ESE,121,4.0,12.0,46,0.00,,---,0.00,638.00,VWS V14.01,2012-11-10 19:24:00,
2012-11-10 14:25:00,76.1,55.0,30.22,SE,127,1.0,12.0,48,0.00,,---,0.00,656.00,VWS V14.01,2012-11-10 19:25:00,
2012-11-10 14:26:00,75.3,53.7,30.22,SE,136,4.0,12.0,47,0.00,,---,0.00,624.00,VWS V14.01,2012-11-10 19:26:00,
2012-11-10 14:27:00,75.3,53.7,30.22,SSE,147,3.0,12.0,47,0.00,,---,0.00,628.00,VWS V14.01,2012-11-10 19:27:00,
2012-11-10 14:28:00,75.4,53.8,30.22,SE,144,0.0,12.0,47,0.00,,---,0.00,635.00,VWS V14.01,2012-11-10 19:28:00,
2012-11-10 14:29:00,75.6,54.0,30.22,ESE,105,4.0,12.0,47,0.00,,---,0.00,640.00,VWS V14.01,2012-11-10 19:29:00,
2012-11-10 14:30:00,76.5,53.6,30.23,SSE,151,1.0,12.0,45,0.00,,---,0.00,638.00,VWS V14.01,2012-11-10 19:30:00,
2012-11-10 14:31:00,76.0,54.3,30.22,SE,130,2.0,12.0,47,0.00,,---,0.00,633.00,VWS V14.01,2012-11-10 19:31:00,
2012-11-10 14:32:00,76.1,53.8,30.22,SE,131,5.0,12.0,46,0.00,,---,0.00,633.00,VWS V14.01,2012-11-10 19:32:00,
2012-11-10 14:33:00,76.2,53.9,30.22,South,190,2.0,12.0,46,0.00,,---,0.00,633.00,VWS V14.01,2012-11-10 19:33:00,
2012-11-10 14:34:00,76.1,53.2,30.22,SE,139,5.0,12.0,45,0.00,,---,0.00,151.00,VWS V14.01,2012-11-10 19:34:00,
2012-11-10 14:35:00,75.3,53.7,30.22,SE,136,4.0,12.0,47,0.00,,---,0.00,624.00,VWS V14.01,2012-11-10 19:35:00,
2012-11-10 14:36:00,75.7,54.1,30.22,NE,52,0.0,12.0,47,0.00,,---,0.00,151.00,VWS V14.01,2012-11-10 19:36:00,
2012-11-10 14:37:00,75.7,54.1,30.22,SSE,158,1.0,12.0,47,0.00,,---,0.00,116.00,VWS V14.01,2012-11-10 19:37:00,
2012-11-10 14:38:00,75.5,53.9,30.22,NE,40,1.0,12.0,47,0.00,,---,0.00,207.00,VWS V14.01,2012-11-10 19:38:00,
2012-11-10 14:39:00,75.4,53.8,30.22,NE,49,0.0,12.0,47,0.00,,---,0.00,207.00,VWS V14.01,2012-11-10 19:39:00,
2012-11-10 14:40:00,75.9,54.2,30.22,SSW,198,2.0,12.0,47,0.00,,---,0.00,633.00,VWS V14.01,2012-11-10 19:40:00,
2012-11-10 14:41:00,75.3,54.3,30.22,SE,127,1.0,12.0,48,0.00,,---,0.00,207.00,VWS V14.01,2012-11-10 19:41:00,
2012-11-10 14:42:00,75.3,54.3,30.22,East,86,5.0,12.0,48,0.00,,---,0.00,153.00,VWS V14.01,2012-11-10 19:42:00,
2012-11-10 14:43:00,75.4,53.8,30.22,East,97,2.0,12.0,47,0.00,,---,0.00,153.00,VWS V14.01,2012-11-10 19:43:00,
2012-11-10 14:44:00,75.5,54.5,30.22,East,86,1.0,12.0,48,0.00,,---,0.00,153.00,VWS V14.01,2012-11-10 19:44:00,
2012-11-10 14:45:00,75.7,54.1,30.22,NE,52,0.0,12.0,47,0.00,,---,0.00,151.00,VWS V14.01,2012-11-10 19:45:00,
2012-11-10 14:46:00,75.5,53.9,30.22,SE,139,1.0,12.0,47,0.00,,---,0.00,97.00,VWS V14.01,2012-11-10 19:46:00,
2012-11-10 14:47:00,75.4,53.8,30.22,East,93,3.0,12.0,47,0.00,,---,0.00,93.00,VWS V14.01,2012-11-10 19:47:00,
2012-11-10 14:48:00,75.3,53.7,30.22,SE,146,2.0,12.0,47,0.00,,---,0.00,93.00,VWS V14.01,2012-11-10 19:48:00,
2012-11-10 14:49:00,75.1,53.5,30.22,SE,133,2.0,12.0,47,0.00,,---,0.00,98.00,VWS V14.01,2012-11-10 19:49:00,
2012-11-10 14:50:00,74.9,53.3,30.22,SE,143,5.0,12.0,47,0.00,,---,0.00,98.00,VWS V14.01,2012-11-10 19:50:00,
2012-11-10 14:51:00,75.3,53.7,30.22,SE,127,2.0,12.0,47,0.00,,---,0.00,153.00,VWS V14.01,2012-11-10 19:51:00,
2012-11-10 14:52:00,74.7,53.2,30.22,ESE,106,6.0,12.0,47,0.00,,---,0.00,172.00,VWS V14.01,2012-11-10 19:52:00,
2012-11-10 14:53:00,74.7,53.7,30.22,SE,144,4.0,12.0,48,0.00,,---,0.00,253.00,VWS V14.01,2012-11-10 19:53:00,
2012-11-10 14:54:00,74.7,53.7,30.22,SE,141,2.0,12.0,48,0.00,,---,0.00,258.00,VWS V14.01,2012-11-10 19:54:00,
2012-11-10 14:55:00,74.9,53.9,30.22,SSE,154,3.0,12.0,48,0.00,,---,0.00,258.00,VWS V14.01,2012-11-10 19:55:00,
2012-11-10 14:56:00,75.4,53.8,30.22,East,94,1.0,12.0,47,0.00,,---,0.00,93.00,VWS V14.01,2012-11-10 19:56:00,
2012-11-10 14:57:00,75.2,54.2,30.22,East,90,3.0,12.0,48,0.00,,---,0.00,216.00,VWS V14.01,2012-11-10 19:57:00,
2012-11-10 14:58:00,75.3,53.7,30.22,ENE,77,1.0,12.0,47,0.00,,---,0.00,216.00,VWS V14.01,2012-11-10 19:58:00,
2012-11-10 14:59:00,75.4,54.4,30.22,SSE,157,3.0,12.0,48,0.00,,---,0.00,125.00,VWS V14.01,2012-11-10 19:59:00,
2012-11-10 15:00:00,75.6,54.0,30.22,SE,127,0.0,1.0,47,0.00,,---,0.00,111.00,VWS V14.01,2012-11-10 20:00:00,
2012-11-10 15:01:00,74.7,53.2,30.22,South,185,2.0,12.0,47,0.00,,---,0.00,172.00,VWS V14.01,2012-11-10 20:01:00,
2012-11-10 15:02:00,75.8,54.7,30.22,ENE,72,1.0,2.0,48,0.00,,---,0.00,81.00,VWS V14.01,2012-11-10 20:02:00,
2012-11-10 15:03:00,75.9,54.8,30.22,East,98,5.0,5.0,48,0.00,,---,0.00,74.00,VWS V14.01,2012-11-10 20:03:00,
2012-11-10 15:04:00,76.0,53.8,30.22,East,82,2.0,6.0,46,0.00,,---,0.00,69.00,VWS V14.01,2012-11-10 20:04:00,
2012-11-10 15:05:00,76.0,53.8,30.22,ENE,77,1.0,6.0,46,0.00,,---,0.00,69.00,VWS V14.01,2012-11-10 20:05:00,
2012-11-10 15:06:00,75.1,54.1,30.22,ESE,123,5.0,12.0,48,0.00,,---,0.00,216.00,VWS V14.01,2012-11-10 20:06:00,
2012-11-10 15:07:00,76.0,53.8,30.22,ESE,117,2.0,6.0,46,0.00,,---,0.00,70.00,VWS V14.01,2012-11-10 20:07:00,
2012-11-10 15:08:00,76.1,54.4,30.22,ESE,110,2.0,6.0,47,0.00,,---,0.00,70.00,VWS V14.01,2012-11-10 20:08:00,
2012-11-10 15:09:00,76.1,53.8,30.22,South,191,3.0,6.0,46,0.00,,---,0.00,70.00,VWS V14.01,2012-11-10 20:09:00,
2012-11-10 15:10:00,76.1,53.8,30.22,South,189,0.0,6.0,46,0.00,,---,0.00,86.00,VWS V14.01,2012-11-10 20:10:00,
2012-11-10 15:11:00,75.8,54.7,30.22,ENE,72,1.0,2.0,48,0.00,,---,0.00,90.00,VWS V14.01,2012-11-10 20:11:00,
2012-11-10 15:12:00,76.1,53.8,30.22,SE,132,3.0,7.0,46,0.00,,---,0.00,109.00,VWS V14.01,2012-11-10 20:12:00,
2012-11-10 15:13:00,76.0,54.3,30.22,SSE,159,4.0,7.0,47,0.00,,---,0.00,125.00,VWS V14.01,2012-11-10 20:13:00,
2012-11-10 15:14:00,76.0,53.8,30.22,WSW,249,0.0,7.0,46,0.00,,---,0.00,128.00,VWS V14.01,2012-11-10 20:14:00,
2012-11-10 15:15:00,76.0,54.3,30.22,SSE,168,4.0,8.0,47,0.00,,---,0.00,132.00,VWS V14.01,2012-11-10 20:15:00,
2012-11-10 15:16:00,76.0,53.8,30.22,ENE,64,4.0,6.0,46,0.00,,---,0.00,69.00,VWS V14.01,2012-11-10 20:16:00,
2012-11-10 15:17:00,76.1,55.6,30.22,East,81,10.0,11.0,49,0.00,,---,0.00,139.00,VWS V14.01,2012-11-10 20:17:00,
2012-11-10 15:18:00,76.1,54.4,30.22,NE,52,7.0,12.0,47,0.00,,---,0.00,139.00,VWS V14.01,2012-11-10 20:18:00,
2012-11-10 15:19:00,76.0,54.3,30.22,ENE,59,3.0,12.0,47,0.00,,---,0.00,162.00,VWS V14.01,2012-11-10 20:19:00,
2012-11-10 15:20:00,76.0,54.3,30.22,NNE,25,9.0,12.0,47,0.00,,---,0.00,167.00,VWS V14.01,2012-11-10 20:20:00,
2012-11-10 15:21:00,76.1,53.8,30.22,SE,132,3.0,7.0,46,0.00,,---,0.00,109.00,VWS V14.01,2012-11-10 20:21:00,
2012-11-10 15:22:00,75.8,54.2,30.22,ENE,76,13.0,13.0,47,0.00,,---,0.00,162.00,VWS V14.01,2012-11-10 20:22:00,
2012-11-10 15:23:00,75.7,54.1,30.22,NNE,14,6.0,13.0,47,0.00,,---,0.00,162.00,VWS V14.01,2012-11-10 20:23:00,
2012-11-10 15:24:00,75.6,54.5,30.22,North,6,2.0,13.0,48,0.00,,---,0.00,142.00,VWS V14.01,2012-11-10 20:24:00,
2012-11-10 15:25:00,75.4,55.5,30.22,ESE,110,2.0,13.0,50,0.00,,---,0.00,123.00,VWS V14.01,2012-11-10 20:25:00,
2012-11-10 15:26:00,76.0,54.3,30.22,ENE,62,4.0,11.0,47,0.00,,---,0.00,139.00,VWS V14.01,2012-11-10 20:26:00,
2012-11-10 15:27:00,75.1,54.7,30.22,East,85,3.0,13.0,49,0.00,,---,0.00,123.00,VWS V14.01,2012-11-10 20:27:00,
2012-11-10 15:28:00,74.9,55.0,30.22,ENE,64,6.0,13.0,50,0.00,,---,0.00,123.00,VWS V14.01,2012-11-10 20:28:00,
2012-11-10 15:29:00,74.7,54.8,30.22,ENE,66,3.0,13.0,50,0.00,,---,0.00,56.00,VWS V14.01,2012-11-10 20:29:00,
2012-11-10 15:30:00,74.6,54.2,30.22,ENE,78,11.0,13.0,49,0.00,,---,0.00,49.00,VWS V14.01,2012-11-10 20:30:00,
2012-11-10 15:31:00,75.8,54.2,30.22,NE,51,6.0,12.0,47,0.00,,---,0.00,162.00,VWS V14.01,2012-11-10 20:31:00,
2012-11-10 15:32:00,74.3,53.4,30.22,ENE,73,2.0,13.0,48,0.00,,---,0.00,44.00,VWS V14.01,2012-11-10 20:32:00,
2012-11-10 15:33:00,74.1,53.7,30.22,East,85,6.0,13.0,49,0.00,,---,0.00,44.00,VWS V14.01,2012-11-10 20:33:00,
2012-11-10 15:34:00,73.9,53.6,30.22,ENE,63,3.0,13.0,49,0.00,,---,0.00,44.00,VWS V14.01,2012-11-10 20:34:00,
2012-11-10 15:35:00,73.7,53.9,30.22,ESE,105,4.0,13.0,50,0.00,,---,0.00,46.00,VWS V14.01,2012-11-10 20:35:00,
2012-11-10 15:36:00,75.1,54.7,30.22,East,85,3.0,13.0,49,0.00,,---,0.00,123.00,VWS V14.01,2012-11-10 20:36:00,
2012-11-10 15:37:00,73.4,54.2,30.22,ENE,72,1.0,13.0,51,0.00,,---,0.00,53.00,VWS V14.01,2012-11-10 20:37:00,
2012-11-10 15:38:00,73.3,54.1,30.22,ENE,72,0.0,13.0,51,0.00,,---,0.00,58.00,VWS V14.01,2012-11-10 20:38:00,
2012-11-10 15:39:00,73.2,54.0,30.22,ENE,70,0.0,13.0,51,0.00,,---,0.00,63.00,VWS V14.01,2012-11-10 20:39:00,
2012-11-10 15:40:00,72.9,54.8,30.23,ENE,70,1.0,13.0,53,0.00,,---,0.00,67.00,VWS V14.01,2012-11-10 20:40:00,
2012-11-10 15:41:00,74.3,53.4,30.22,ENE,73,2.0,13.0,48,0.00,,---,0.00,44.00,VWS V14.01,2012-11-10 20:41:00,
2012-11-10 15:42:00,72.7,54.1,30.23,NE,39,1.0,13.0,52,0.00,,---,0.00,90.00,VWS V14.01,2012-11-10 20:42:00,
2012-11-10 15:43:00,72.8,54.7,30.23,East,82,1.0,13.0,53,0.00,,---,0.00,86.00,VWS V14.01,2012-11-10 20:43:00,
2012-11-10 15:44:00,72.8,54.2,30.22,East,96,2.0,13.0,52,0.00,,---,0.00,98.00,VWS V14.01,2012-11-10 20:44:00,
2012-11-10 15:45:00,73.0,53.8,30.23,East,95,0.0,13.0,51,0.00,,---,0.00,98.00,VWS V14.01,2012-11-10 20:45:00,
2012-11-10 15:46:00,73.4,54.2,30.22,ENE,72,1.0,13.0,51,0.00,,---,0.00,47.00,VWS V14.01,2012-11-10 20:46:00,
2012-11-10 15:47:00,73.2,55.6,30.23,ENE,71,0.0,13.0,54,0.00,,---,0.00,116.00,VWS V14.01,2012-11-10 20:47:00,
2012-11-10 15:48:00,73.2,54.5,30.23,East,85,2.0,13.0,52,0.00,,---,0.00,114.00,VWS V14.01,2012-11-10 20:48:00,
2012-11-10 15:49:00,73.3,54.6,30.23,ENE,64,3.0,13.0,52,0.00,,---,0.00,114.00,VWS V14.01,2012-11-10 20:49:00,
2012-11-10 15:50:00,73.4,54.7,30.23,East,83,5.0,13.0,52,0.00,,---,0.00,111.00,VWS V14.01,2012-11-10 20:50:00,
2012-11-10 15:51:00,73.5,54.8,30.23,ENE,75,6.0,13.0,52,0.00,,---,0.00,102.00,VWS V14.01,2012-11-10 20:51:00,
2012-11-10 15:52:00,72.7,54.1,30.23,NNE,23,1.0,13.0,52,0.00,,---,0.00,107.00,VWS V14.01,2012-11-10 20:52:00,
2012-11-10 15:53:00,73.7,54.5,30.23,ESE,116,0.0,13.0,51,0.00,,---,0.00,102.00,VWS V14.01,2012-11-10 20:53:00,
2012-11-10 15:54:00,73.9,55.2,30.23,SSE,152,7.0,13.0,52,0.00,,---,0.00,114.00,VWS V14.01,2012-11-10 20:54:00,
2012-11-10 15:55:00,74.1,54.3,30.23,SSE,162,2.0,13.0,50,0.00,,---,0.00,114.00,VWS V14.01,2012-11-10 20:55:00,
2012-11-10 15:56:00,74.3,54.5,30.23,SE,135,4.0,13.0,50,0.00,,---,0.00,114.00,VWS V14.01,2012-11-10 20:56:00,
2012-11-10 15:57:00,73.2,54.5,30.23,ENE,67,2.0,13.0,52,0.00,,---,0.00,114.00,VWS V14.01,2012-11-10 20:57:00,
2012-11-10 15:58:00,74.5,54.7,30.23,South,174,0.0,13.0,50,0.00,,---,0.00,109.00,VWS V14.01,2012-11-10 20:58:00,
2012-11-10 15:59:00,74.6,54.2,30.23,NE,38,2.0,13.0,49,0.00,,---,0.00,105.00,VWS V14.01,2012-11-10 20:59:00,
2012-11-10 16:00:00,74.6,54.8,30.23,SE,127,2.0,3.0,50,0.00,,---,0.00,105.00,VWS V14.01,2012-11-10 21:00:00,
2012-11-10 16:01:00,74.7,54.8,30.23,ENE,76,7.0,7.0,50,0.00,,---,0.00,88.00,VWS V14.01,2012-11-10 21:01:00,
2012-11-10 16:02:00,73.7,54.5,30.23,ESE,116,1.0,13.0,51,0.00,,---,0.00,102.00,VWS V14.01,2012-11-10 21:02:00,
2012-11-10 16:03:00,74.6,54.2,30.23,South,190,1.0,9.0,49,0.00,,---,0.00,84.00,VWS V14.01,2012-11-10 21:03:00,
2012-11-10 16:04:00,74.5,54.7,30.23,SSW,198,2.0,9.0,50,0.00,,---,0.00,79.00,VWS V14.01,2012-11-10 21:04:00,
2012-11-10 16:05:00,74.4,54.0,30.23,SE,141,0.0,9.0,49,0.00,,---,0.00,83.00,VWS V14.01,2012-11-10 21:05:00,
2012-11-10 16:06:00,74.2,54.4,30.23,ENE,68,3.0,9.0,50,0.00,,---,0.00,72.00,VWS V14.01,2012-11-10 21:06:00,
2012-11-10 16:07:00,74.5,54.7,30.23,South,174,1.0,13.0,50,0.00,,---,0.00,109.00,VWS V14.01,2012-11-10 21:07:00,
2012-11-10 16:08:00,74.0,54.2,30.23,East,93,8.0,10.0,50,0.00,,---,0.00,69.00,VWS V14.01,2012-11-10 21:08:00,
2012-11-10 16:09:00,73.9,54.1,30.23,East,100,4.0,10.0,50,0.00,,---,0.00,67.00,VWS V14.01,2012-11-10 21:09:00,
2012-11-10 16:10:00,73.8,54.0,30.23,NNE,31,2.0,10.0,50,0.00,,---,0.00,67.00,VWS V14.01,2012-11-10 21:10:00,
2012-11-10 16:11:00,73.7,53.9,30.23,East,81,3.0,10.0,50,0.00,,---,0.00,67.00,VWS V14.01,2012-11-10 21:11:00,
2012-11-10 16:12:00,74.6,54.8,30.23,South,175,1.0,9.0,50,0.00,,---,0.00,84.00,VWS V14.01,2012-11-10 21:12:00,
2012-11-10 16:13:00,73.5,54.3,30.23,East,85,0.0,10.0,51,0.00,,---,0.00,63.00,VWS V14.01,2012-11-10 21:13:00,
2012-11-10 16:14:00,73.4,54.2,30.23,NE,54,3.0,10.0,51,0.00,,---,0.00,65.00,VWS V14.01,2012-11-10 21:14:00,
2012-11-10 16:15:00,73.3,54.1,30.23,ESE,104,3.0,10.0,51,0.00,,---,0.00,63.00,VWS V14.01,2012-11-10 21:15:00,
2012-11-10 16:16:00,73.1,54.5,30.23,SSE,156,2.0,10.0,52,0.00,,---,0.00,63.00,VWS V14.01,2012-11-10 21:16:00,
2012-11-10 16:17:00,74.1,54.3,30.23,NE,38,7.0,10.0,50,0.00,,---,0.00,69.00,VWS V14.01,2012-11-10 21:17:00,
2012-11-10 16:18:00,72.9,54.3,30.23,ENE,78,6.0,10.0,52,0.00,,---,0.00,56.00,VWS V14.01,2012-11-10 21:18:00,
2012-11-10 16:19:00,72.9,54.3,30.23,ENE,76,3.0,10.0,52,0.00,,---,0.00,53.00,VWS V14.01,2012-11-10 21:19:00,
2012-11-10 16:20:00,72.8,54.7,30.23,East,90,2.0,10.0,53,0.00,,---,0.00,53.00,VWS V14.01,2012-11-10 21:20:00,
2012-11-10 16:21:00,72.7,54.1,30.23,ENE,64,3.0,10.0,52,0.00,,---,0.00,44.00,VWS V14.01,2012-11-10 21:21:00,
2012-11-10 16:22:00,73.5,54.3,30.23,East,79,1.0,10.0,51,0.00,,---,0.00,63.00,VWS V14.01,2012-11-10 21:22:00,
2012-11-10 16:23:00,72.5,54.4,30.23,ENE,77,4.0,10.0,53,0.00,,---,0.00,35.00,VWS V14.01,2012-11-10 21:23:00,
2012-11-10 16:24:00,72.4,54.3,30.23,ENE,64,0.0,10.0,53,0.00,,---,0.00,30.00,VWS V14.01,2012-11-10 21:24:00,
2012-11-10 16:25:00,72.3,55.2,30.23,SSE,168,0.0,10.0,55,0.00,,---,0.00,28.00,VWS V14.01,2012-11-10 21:25:00,
2012-11-10 16:26:00,72.1,55.1,30.23,ESE,106,4.0,10.0,55,0.00,,---,0.00,26.00,VWS V14.01,2012-11-10 21:26:00,
2012-11-10 16:27:00,73.0,54.4,30.23,ESE,110,6.0,10.0,52,0.00,,---,0.00,60.00,VWS V14.01,2012-11-10 21:27:00,
2012-11-10 16:28:00,72.0,54.5,30.23,ESE,103,4.0,10.0,54,0.00,,---,0.00,26.00,VWS V14.01,2012-11-10 21:28:00,
2012-11-10 16:29:00,71.9,54.4,30.23,ENE,70,3.0,10.0,54,0.00,,---,0.00,26.00,VWS V14.01,2012-11-10 21:29:00,
2012-11-10 16:30:00,71.9,54.9,30.23,SE,133,1.0,10.0,55,0.00,,---,0.00,23.00,VWS V14.01,2012-11-10 21:30:00,
2012-11-10 16:31:00,71.8,54.8,30.23,East,86,1.0,10.0,55,0.00,,---,0.00,23.00,VWS V14.01,2012-11-10 21:31:00,
2012-11-10 16:32:00,72.5,54.4,30.23,NNE,15,2.0,10.0,53,0.00,,---,0.00,35.00,VWS V14.01,2012-11-10 21:32:00,
2012-11-10 16:33:00,71.7,54.7,30.23,ENE,67,4.0,10.0,55,0.00,,---,0.00,23.00,VWS V14.01,2012-11-10 21:33:00,
2012-11-10 16:34:00,71.6,54.6,30.23,East,92,1.0,10.0,55,0.00,,---,0.00,23.00,VWS V14.01,2012-11-10 21:34:00,
2012-11-10 16:35:00,71.5,54.5,30.23,NE,56,1.0,10.0,55,0.00,,---,0.00,23.00,VWS V14.01,2012-11-10 21:35:00,
2012-11-10 16:36:00,71.5,54.5,30.23,ESE,107,4.0,10.0,55,0.00,,---,0.00,23.00,VWS V14.01,2012-11-10 21:36:00,
2012-11-10 16:37:00,72.0,55.0,30.23,ENE,70,7.0,10.0,55,0.00,,---,0.00,26.00,VWS V14.01,2012-11-10 21:37:00,
2012-11-10 16:38:00,71.4,54.4,30.23,ESE,114,1.0,10.0,55,0.00,,---,0.00,23.00,VWS V14.01,2012-11-10 21:38:00,
2012-11-10 16:39:00,71.3,54.8,30.23,ESE,105,1.0,10.0,56,0.00,,---,0.00,25.00,VWS V14.01,2012-11-10 21:39:00,
2012-11-10 16:40:00,71.3,54.8,30.23,East,96,0.0,10.0,56,0.00,,---,0.00,25.00,VWS V14.01,2012-11-10 21:40:00,
2012-11-10 16:41:00,71.2,54.7,30.23,East,96,0.0,10.0,56,0.00,,---,0.00,28.00,VWS V14.01,2012-11-10 21:41:00,
2012-11-10 16:42:00,71.7,54.7,30.23,East,87,3.0,10.0,55,0.00,,---,0.00,23.00,VWS V14.01,2012-11-10 21:42:00,
2012-11-10 16:43:00,71.1,55.1,30.23,ESE,111,2.0,10.0,57,0.00,,---,0.00,30.00,VWS V14.01,2012-11-10 21:43:00,
2012-11-10 16:44:00,71.0,54.5,30.23,East,82,0.0,10.0,56,0.00,,---,0.00,37.00,VWS V14.01,2012-11-10 21:44:00,
2012-11-10 16:45:00,70.9,54.9,30.23,NE,48,2.0,10.0,57,0.00,,---,0.00,37.00,VWS V14.01,2012-11-10 21:45:00,
2012-11-10 16:46:00,70.9,54.9,30.23,ESE,106,2.0,10.0,57,0.00,,---,0.00,40.00,VWS V14.01,2012-11-10 21:46:00,
2012-11-10 16:47:00,71.4,54.4,30.23,ESE,114,1.0,10.0,55,0.00,,---,0.00,23.00,VWS V14.01,2012-11-10 21:47:00,
2012-11-10 16:48:00,70.8,55.3,30.23,ESE,105,1.0,10.0,58,0.00,,---,0.00,44.00,VWS V14.01,2012-11-10 21:48:00,
2012-11-10 16:49:00,70.8,54.8,30.23,East,94,1.0,10.0,57,0.00,,---,0.00,42.00,VWS V14.01,2012-11-10 21:49:00,
2012-11-10 16:50:00,70.8,54.3,30.23,ESE,110,1.0,10.0,56,0.00,,---,0.00,42.00,VWS V14.01,2012-11-10 21:50:00,
2012-11-10 16:51:00,70.8,54.8,30.23,ESE,110,0.0,10.0,57,0.00,,---,0.00,42.00,VWS V14.01,2012-11-10 21:51:00,
2012-11-10 16:52:00,71.1,55.1,30.23,ESE,104,3.0,10.0,57,0.00,,---,0.00,30.00,VWS V14.01,2012-11-10 21:52:00,
2012-11-10 16:53:00,70.9,54.9,30.23,ESE,108,0.0,10.0,57,0.00,,---,0.00,40.00,VWS V14.01,2012-11-10 21:53:00,
2012-11-10 16:54:00,70.8,54.8,30.23,ESE,108,0.0,10.0,57,0.00,,---,0.00,40.00,VWS V14.01,2012-11-10 21:54:00,
2012-11-10 16:55:00,70.8,54.8,30.23,NE,55,3.0,10.0,57,0.00,,---,0.00,40.00,VWS V14.01,2012-11-10 21:55:00,
2012-11-10 16:56:00,70.8,54.8,30.23,ESE,108,4.0,10.0,57,0.00,,---,0.00,37.00,VWS V14.01,2012-11-10 21:56:00,
2012-11-10 16:57:00,70.8,55.3,30.23,ESE,105,1.0,10.0,58,0.00,,---,0.00,44.00,VWS V14.01,2012-11-10 21:57:00,
2012-11-10 16:58:00,70.9,54.9,30.23,ESE,114,0.0,10.0,57,0.00,,---,0.00,35.00,VWS V14.01,2012-11-10 21:58:00,
2012-11-10 16:59:00,70.9,54.9,30.23,NE,52,1.0,10.0,57,0.00,,---,0.00,30.00,VWS V14.01,2012-11-10 21:59:00,
2012-11-10 17:00:00,70.9,54.9,30.23,NE,52,0.0,0.0,57,0.00,,---,0.00,28.00,VWS V14.01,2012-11-10 22:00:00,
2012-11-10 17:01:00,70.9,54.9,30.23,East,94,0.0,2.0,57,0.00,,---,0.00,26.00,VWS V14.01,2012-11-10 22:01:00,
2012-11-10 17:02:00,70.8,54.8,30.23,ESE,108,0.0,10.0,57,0.00,,---,0.00,40.00,VWS V14.01,2012-11-10 22:02:00,
2012-11-10 17:03:00,70.9,54.9,30.23,ENE,72,0.0,2.0,57,0.00,,---,0.00,23.00,VWS V14.01,2012-11-10 22:03:00,
2012-11-10 17:04:00,70.9,54.9,30.23,ENE,72,0.0,2.0,57,0.00,,---,0.00,23.00,VWS V14.01,2012-11-10 22:04:00,
2012-11-10 17:05:00,70.9,54.9,30.23,ENE,72,1.0,2.0,57,0.00,,---,0.00,18.00,VWS V14.01,2012-11-10 22:05:00,
2012-11-10 17:06:00,71.0,55.0,30.23,ENE,72,0.0,2.0,57,0.00,,---,0.00,16.00,VWS V14.01,2012-11-10 22:06:00,
2012-11-10 17:07:00,71.0,55.0,30.23,ENE,72,0.0,2.0,57,0.00,,---,0.00,14.00,VWS V14.01,2012-11-10 22:07:00,
2012-11-10 17:08:00,70.9,54.9,30.23,NE,50,2.0,10.0,57,0.00,,---,0.00,32.00,VWS V14.01,2012-11-10 22:08:00,
2012-11-10 17:09:00,71.0,55.0,30.24,NE,52,1.0,3.0,57,0.00,,---,0.00,12.00,VWS V14.01,2012-11-10 22:09:00,
2012-11-10 17:10:00,71.0,55.0,30.24,NE,43,1.0,3.0,57,0.00,,---,0.00,12.00,VWS V14.01,2012-11-10 22:10:00,
2012-11-10 17:11:00,71.1,55.1,30.24,NE,45,0.0,3.0,57,0.00,,---,0.00,12.00,VWS V14.01,2012-11-10 22:11:00,
2012-11-10 17:12:00,71.2,55.2,30.24,NE,45,0.0,3.0,57,0.00,,---,0.00,12.00,VWS V14.01,2012-11-10 22:12:00,
2012-11-10 17:13:00,70.9,54.9,30.23,ENE,72,1.0,2.0,57,0.00,,---,0.00,23.00,VWS V14.01,2012-11-10 22:13:00,
2012-11-10 17:14:00,71.1,55.1,30.24,ENE,66,2.0,4.0,57,0.00,,---,0.00,9.00,VWS V14.01,2012-11-10 22:14:00,
2012-11-10 17:15:00,71.1,55.1,30.24,ESE,112,2.0,4.0,57,0.00,,---,0.00,9.00,VWS V14.01,2012-11-10 22:15:00,
2012-11-10 17:16:00,71.1,55.1,30.24,ESE,104,0.0,4.0,57,0.00,,---,0.00,9.00,VWS V14.01,2012-11-10 22:16:00,
2012-11-10 17:17:00,71.1,55.1,30.24,ESE,120,2.0,4.0,57,0.00,,---,0.00,7.00,VWS V14.01,2012-11-10 22:17:00,
2012-11-10 17:18:00,71.0,55.0,30.24,ENE,72,0.0,3.0,57,0.00,,---,0.00,12.00,VWS V14.01,2012-11-10 22:18:00,
2012-11-10 17:19:00,71.1,55.1,30.24,SSE,159,3.0,5.0,57,0.00,,---,0.00,7.00,VWS V14.01,2012-11-10 22:19:00,
2012-11-10 17:20:00,71.2,54.7,30.24,ESE,113,2.0,5.0,56,0.00,,---,0.00,7.00,VWS V14.01,2012-11-10 22:20:00,
2012-11-10 17:21:00,71.2,54.7,30.24,ESE,117,1.0,5.0,56,0.00,,---,0.00,5.00,VWS V14.01,2012-11-10 22:21:00,
2012-11-10 17:22:00,71.2,54.7,30.24,ESE,117,0.0,5.0,56,0.00,,---,0.00,5.00,VWS V14.01,2012-11-10 22:22:00,
2012-11-10 17:23:00,71.1,55.6,30.24,East,96,2.0,4.0,58,0.00,,---,0.00,9.00,VWS V14.01,2012-11-10 22:23:00,
2012-11-10 17:24:00,71.2,54.7,30.24,SE,146,1.0,5.0,56,0.00,,---,0.00,5.00,VWS V14.01,2012-11-10 22:24:00,
2012-11-10 17:25:00,71.1,54.6,30.24,SE,145,0.0,5.0,56,0.00,,---,0.00,5.00,VWS V14.01,2012-11-10 22:25:00,
2012-11-10 17:26:00,71.1,54.6,30.24,East,97,2.0,5.0,56,0.00,,---,0.00,0.00,VWS V14.01,2012-11-10 22:26:00,
2012-11-10 17:27:00,71.1,54.6,30.24,ENE,61,3.0,5.0,56,0.00,,---,0.00,0.00,VWS V14.01,2012-11-10 22:27:00,
2012-11-10 17:28:00,71.1,55.1,30.24,ESE,110,2.0,5.0,57,0.00,,---,0.00,7.00,VWS V14.01,2012-11-10 22:28:00,
2012-11-10 17:29:00,71.0,54.5,30.24,ESE,105,1.0,5.0,56,0.00,,---,0.00,0.00,VWS V14.01,2012-11-10 22:29:00,
2012-11-10 17:30:00,71.0,54.5,30.24,East,97,0.0,5.0,56,0.00,,---,0.00,0.00,VWS V14.01,2012-11-10 22:30:00,
2012-11-10 17:31:00,71.0,54.5,30.24,East,84,0.0,5.0,56,0.00,,---,0.00,0.00,VWS V14.01,2012-11-10 22:31:00,
2012-11-10 17:32:00,70.9,54.9,30.24,ESE,114,0.0,5.0,57,0.00,,---,0.00,0.00,VWS V14.01,2012-11-10 22:32:00,
2012-11-10 17:33:00,71.2,54.7,30.24,SE,146,1.0,5.0,56,0.00,,---,0.00,5.00,VWS V14.01,2012-11-10 22:33:00,
2012-11-10 17:34:00,70.8,54.3,30.24,SE,125,2.0,5.0,56,0.00,,---,0.00,0.00,VWS V14.01,2012-11-10 22:34:00,
2012-11-10 17:35:00,70.8,54.3,30.24,SSE,155,0.0,5.0,56,0.00,,---,0.00,0.00,VWS V14.01,2012-11-10 22:35:00,
2012-11-10 17:36:00,70.8,54.3,30.24,SSE,155,0.0,5.0,56,0.00,,---,0.00,0.00,VWS V14.01,2012-11-10 22:36:00,
2012-11-10 17:37:00,70.8,54.3,30.24,ESE,118,2.0,5.0,56,0.00,,---,0.00,0.00,VWS V14.01,2012-11-10 22:37:00,
2012-11-10 17:38:00,70.7,54.2,30.24,ESE,103,2.0,7.0,56,0.00,,---,0.00,0.00,VWS V14.01,2012-11-10 22:38:00,
2012-11-10 17:39:00,71.0,54.5,30.24,ESE,106,1.0,5.0,56,0.00,,---,0.00,0.00,VWS V14.01,2012-11-10 22:39:00,
2012-11-10 17:40:00,70.7,54.2,30.24,East,100,3.0,7.0,56,0.00,,---,0.00,0.00,VWS V14.01,2012-11-10 22:40:00,
2012-11-10 17:41:00,70.7,54.2,30.24,ESE,102,0.0,7.0,56,0.00,,---,0.00,0.00,VWS V14.01,2012-11-10 22:41:00,
2012-11-10 17:42:00,70.7,54.2,30.24,ESE,104,2.0,7.0,56,0.00,,---,0.00,0.00,VWS V14.01,2012-11-10 22:42:00,
2012-11-10 17:43:00,70.7,54.2,30.24,East,81,1.0,7.0,56,0.00,,---,0.00,0.00,VWS V14.01,2012-11-10 22:43:00,
2012-11-10 17:44:00,70.8,54.3,30.24,SSE,155,1.0,5.0,56,0.00,,---,0.00,0.00,VWS V14.01,2012-11-10 22:44:00,
2012-11-10 17:45:00,70.7,54.2,30.24,East,85,1.0,7.0,56,0.00,,---,0.00,0.00,VWS V14.01,2012-11-10 22:45:00,
2012-11-10 17:46:00,70.6,54.2,30.24,East,85,1.0,7.0,56,0.00,,---,0.00,0.00,VWS V14.01,2012-11-10 22:46:00,
2012-11-10 17:47:00,70.6,54.2,30.24,East,95,1.0,7.0,56,0.00,,---,0.00,0.00,VWS V14.01,2012-11-10 22:47:00,
2012-11-10 17:48:00,70.6,54.6,30.24,East,95,0.0,7.0,57,0.00,,---,0.00,0.00,VWS V14.01,2012-11-10 22:48:00,
2012-11-10 17:49:00,70.7,54.2,30.24,East,87,0.0,7.0,56,0.00,,---,0.00,0.00,VWS V14.01,2012-11-10 22:49:00,
2012-11-10 17:50:00,70.6,54.6,30.24,East,97,1.0,7.0,57,0.00,,---,0.00,0.00,VWS V14.01,2012-11-10 22:50:00,
2012-11-10 17:51:00,70.5,54.5,30.24,ESE,110,0.0,7.0,57,0.00,,---,0.00,0.00,VWS V14.01,2012-11-10 22:51:00,
2012-11-10 17:52:00,70.5,55.0,30.24,ESE,110,0.0,7.0,58,0.00,,---,0.00,0.00,VWS V14.01,2012-11-10 22:52:00,
2012-11-10 17:53:00,70.4,54.9,30.24,East,99,2.0,7.0,58,0.00,,---,0.00,0.00,VWS V14.01,2012-11-10 22:53:00,
2012-11-10 17:54:00,70.7,54.2,30.24,East,86,0.0,7.0,56,0.00,,---,0.00,0.00,VWS V14.01,2012-11-10 22:54:00,
2012-11-10 17:55:00,70.4,54.5,30.24,East,85,0.0,7.0,57,0.00,,---,0.00,0.00,VWS V14.01,2012-11-10 22:55:00,
2012-11-10 17:56:00,70.3,54.4,30.24,East,85,0.0,7.0,57,0.00,,---,0.00,0.00,VWS V14.01,2012-11-10 22:56:00,
2012-11-10 17:57:00,70.3,54.8,30.24,ENE,77,1.0,7.0,58,0.00,,---,0.00,0.00,VWS V14.01,2012-11-10 22:57:00,
2012-11-10 17:58:00,70.3,54.8,30.25,East,79,1.0,7.0,58,0.00,,---,0.00,0.00,VWS V14.01,2012-11-10 22:58:00,
2012-11-10 17:59:00,70.6,54.6,30.24,SE,132,1.0,7.0,57,0.00,,---,0.00,0.00,VWS V14.01,2012-11-10 22:59:00,
2012-11-10 18:00:00,70.2,54.8,30.24,ESE,120,2.0,2.0,58,0.00,,---,0.00,0.00,VWS V14.01,2012-11-10 23:00:00,
2012-11-10 18:01:00,70.2,54.8,30.25,ENE,68,2.0,3.0,58,0.00,,---,0.00,0.00,VWS V14.01,2012-11-10 23:01:00,
2012-11-10 18:02:00,70.2,54.8,30.25,ESE,113,5.0,5.0,58,0.00,,---,0.00,0.00,VWS V14.01,2012-11-10 23:02:00,
2012-11-10 18:03:00,70.2,54.8,30.25,SE,127,0.0,5.0,58,0.00,,---,0.00,0.00,VWS V14.01,2012-11-10 23:03:00,
2012-11-10 18:04:00,70.4,54.5,30.24,East,85,0.0,7.0,57,0.00,,---,0.00,0.00,VWS V14.01,2012-11-10 23:04:00,
2012-11-10 18:05:00,70.3,54.8,30.25,ESE,107,1.0,5.0,58,0.00,,---,0.00,0.00,VWS V14.01,2012-11-10 23:05:00,
2012-11-10 18:06:00,70.3,54.4,30.25,SE,126,2.0,5.0,57,0.00,,---,0.00,0.00,VWS V14.01,2012-11-10 23:06:00,
2012-11-10 18:07:00,70.2,54.8,30.25,ESE,120,0.0,5.0,58,0.00,,---,0.00,0.00,VWS V14.01,2012-11-10 23:07:00,
2012-11-10 18:08:00,70.2,54.8,30.25,ESE,106,0.0,5.0,58,0.00,,---,0.00,0.00,VWS V14.01,2012-11-10 23:08:00,
2012-11-10 18:09:00,70.2,54.8,30.24,SE,146,2.0,2.0,58,0.00,,---,0.00,0.00,VWS V14.01,2012-11-10 23:09:00,
2012-11-10 18:10:00,70.2,54.8,30.25,ENE,64,1.0,5.0,58,0.00,,---,0.00,0.00,VWS V14.01,2012-11-10 23:10:00,
2012-11-10 18:11:00,70.2,54.8,30.25,SE,124,2.0,5.0,58,0.00,,---,0.00,0.00,VWS V14.01,2012-11-10 23:11:00,
2012-11-10 18:12:00,70.2,54.8,30.25,East,91,0.0,5.0,58,0.00,,---,0.00,0.00,VWS V14.01,2012-11-10 23:12:00,
2012-11-10 18:13:00,70.1,54.7,30.25,East,81,1.0,5.0,58,0.00,,---,0.00,0.00,VWS V14.01,2012-11-10 23:13:00,
2012-11-10 18:14:00,70.2,54.8,30.25,ESE,112,2.0,5.0,58,0.00,,---,0.00,0.00,VWS V14.01,2012-11-10 23:14:00,
2012-11-10 18:15:00,70.0,54.6,30.25,NE,48,2.0,5.0,58,0.00,,---,0.00,0.00,VWS V14.01,2012-11-10 23:15:00,
2012-11-10 18:16:00,70.0,54.6,30.25,ESE,116,1.0,5.0,58,0.00,,---,0.00,0.00,VWS V14.01,2012-11-10 23:16:00,
2012-11-10 18:17:00,69.9,54.9,30.25,NE,43,4.0,5.0,59,0.00,,---,0.00,0.00,VWS V14.01,2012-11-10 23:17:00,
2012-11-10 18:18:00,69.9,54.9,30.25,ENE,73,3.0,5.0,59,0.00,,---,0.00,0.00,VWS V14.01,2012-11-10 23:18:00,
2012-11-10 18:19:00,70.2,54.8,30.25,ENE,64,1.0,5.0,58,0.00,,---,0.00,0.00,VWS V14.01,2012-11-10 23:19:00,
2012-11-10 18:20:00,69.7,54.8,30.25,East,89,0.0,5.0,59,0.00,,---,0.00,0.00,VWS V14.01,2012-11-10 23:20:00,
2012-11-10 18:21:00,69.7,55.2,30.25,East,89,1.0,5.0,60,0.00,,---,0.00,0.00,VWS V14.01,2012-11-10 23:21:00,
2012-11-10 18:22:00,69.6,55.1,30.25,ENE,58,0.0,5.0,60,0.00,,---,0.00,0.00,VWS V14.01,2012-11-10 23:22:00,
2012-11-10 18:23:00,69.5,55.5,30.25,ENE,58,0.0,5.0,61,0.00,,---,0.00,0.00,VWS V14.01,2012-11-10 23:23:00,
2012-11-10 18:24:00,70.0,54.6,30.25,East,85,1.0,5.0,58,0.00,,---,0.00,0.00,VWS V14.01,2012-11-10 23:24:00,
2012-11-10 18:25:00,69.2,55.6,30.25,ENE,70,1.0,5.0,62,0.00,,---,0.00,0.00,VWS V14.01,2012-11-10 23:25:00,
2012-11-10 18:26:00,69.1,55.5,30.25,East,87,2.0,5.0,62,0.00,,---,0.00,0.00,VWS V14.01,2012-11-10 23:26:00,
2012-11-10 18:27:00,69.0,55.0,30.25,East,87,1.0,5.0,61,0.00,,---,0.00,0.00,VWS V14.01,2012-11-10 23:27:00,
2012-11-10 18:28:00,68.9,54.9,30.25,ENE,68,1.0,5.0,61,0.00,,---,0.00,0.00,VWS V14.01,2012-11-10 23:28:00,
2012-11-10 18:29:00,69.8,54.8,30.25,East,89,0.0,5.0,59,0.00,,---,0.00,0.00,VWS V14.01,2012-11-10 23:29:00,
2012-11-10 18:30:00,68.8,55.3,30.25,East,81,0.0,5.0,62,0.00,,---,0.00,0.00,VWS V14.01,2012-11-10 23:30:00,
2012-11-10 18:31:00,68.7,55.2,30.25,East,81,0.0,5.0,62,0.00,,---,0.00,0.00,VWS V14.01,2012-11-10 23:31:00,
2012-11-10 18:32:00,68.7,55.6,30.25,East,81,0.0,5.0,63,0.00,,---,0.00,0.00,VWS V14.01,2012-11-10 23:32:00,
2012-11-10 18:33:00,68.5,55.4,30.26,East,81,1.0,5.0,63,0.00,,---,0.00,0.00,VWS V14.01,2012-11-10 23:33:00,
2012-11-10 18:34:00,69.2,55.6,30.25,ENE,70,1.0,5.0,62,0.00,,---,0.00,0.00,VWS V14.01,2012-11-10 23:34:00,
2012-11-10 18:35:00,68.3,55.7,30.25,ENE,69,1.0,5.0,64,0.00,,---,0.00,0.00,VWS V14.01,2012-11-10 23:35:00,
2012-11-10 18:36:00,68.3,55.2,30.25,ENE,69,0.0,5.0,63,0.00,,---,0.00,0.00,VWS V14.01,2012-11-10 23:36:00,
2012-11-10 18:37:00,68.2,55.1,30.26,ENE,69,1.0,5.0,63,0.00,,---,0.00,0.00,VWS V14.01,2012-11-10 23:37:00,
2012-11-10 18:38:00,68.1,55.5,30.25,East,85,0.0,5.0,64,0.00,,---,0.00,0.00,VWS V14.01,2012-11-10 23:38:00,
2012-11-10 18:39:00,68.8,55.3,30.25,East,81,0.0,5.0,62,0.00,,---,0.00,0.00,VWS V14.01,2012-11-10 23:39:00,
2012-11-10 18:40:00,67.9,55.3,30.25,East,81,0.0,5.0,64,0.00,,---,0.00,0.00,VWS V14.01,2012-11-10 23:40:00,
2012-11-10 18:41:00,67.8,55.2,30.26,ENE,75,1.0,5.0,64,0.00,,---,0.00,0.00,VWS V14.01,2012-11-10 23:41:00,
2012-11-10 18:42:00,67.7,55.1,30.26,ENE,75,1.0,5.0,64,0.00,,---,0.00,0.00,VWS V14.01,2012-11-10 23:42:00,
2012-11-10 18:43:00,67.7,55.1,30.26,East,80,0.0,5.0,64,0.00,,---,0.00,0.00,VWS V14.01,2012-11-10 23:43:00,
2012-11-10 18:44:00,68.4,55.8,30.25,ENE,69,2.0,5.0,64,0.00,,---,0.00,0.00,VWS V14.01,2012-11-10 23:44:00,
2012-11-10 18:45:00,67.6,55.8,30.26,NNE,30,0.0,5.0,66,0.00,,---,0.00,0.00,VWS V14.01,2012-11-10 23:45:00,
2012-11-10 18:46:00,67.5,55.8,30.26,NNE,31,1.0,5.0,66,0.00,,---,0.00,0.00,VWS V14.01,2012-11-10 23:46:00,
2012-11-10 18:47:00,67.4,55.7,30.26,NNE,31,0.0,5.0,66,0.00,,---,0.00,0.00,VWS V14.01,2012-11-10 23:47:00,
2012-11-10 18:48:00,67.3,55.6,30.26,NNE,31,1.0,5.0,66,0.00,,---,0.00,0.00,VWS V14.01,2012-11-10 23:48:00,
2012-11-10 18:49:00,67.9,55.3,30.25,East,81,0.0,5.0,64,0.00,,---,0.00,0.00,VWS V14.01,2012-11-10 23:49:00,
2012-11-10 18:50:00,67.1,55.8,30.26,NNE,31,1.0,5.0,67,0.00,,---,0.00,0.00,VWS V14.01,2012-11-10 23:50:00,
2012-11-10 18:51:00,67.1,55.8,30.26,NNE,31,0.0,5.0,67,0.00,,---,0.00,0.00,VWS V14.01,2012-11-10 23:51:00,
2012-11-10 18:52:00,66.9,55.6,30.26,NNE,31,1.0,5.0,67,0.00,,---,0.00,0.00,VWS V14.01,2012-11-10 23:52:00,
2012-11-10 18:53:00,66.8,55.5,30.26,NNE,31,1.0,5.0,67,0.00,,---,0.00,0.00,VWS V14.01,2012-11-10 23:53:00,
2012-11-10 18:54:00,66.7,55.4,30.26,NNE,31,0.0,5.0,67,0.00,,---,0.00,0.00,VWS V14.01,2012-11-10 23:54:00,
2012-11-10 18:55:00,67.6,55.8,30.26,NNE,31,0.0,5.0,66,0.00,,---,0.00,0.00,VWS V14.01,2012-11-10 23:55:00,
2012-11-10 18:56:00,66.6,55.3,30.26,NNE,31,0.0,5.0,67,0.00,,---,0.00,0.00,VWS V14.01,2012-11-10 23:56:00,
2012-11-10 18:57:00,66.6,55.3,30.26,NNE,31,1.0,5.0,67,0.00,,---,0.00,0.00,VWS V14.01,2012-11-10 23:57:00,
2012-11-10 18:58:00,66.5,55.2,30.26,NNE,32,0.0,5.0,67,0.00,,---,0.00,0.00,VWS V14.01,2012-11-10 23:58:00,
2012-11-10 18:59:00,66.5,55.2,30.26,NNE,32,1.0,5.0,67,0.00,,---,0.00,0.00,VWS V14.01,2012-11-10 23:59:00,
2012-11-10 19:00:00,67.1,55.8,30.26,NNE,31,0.0,5.0,67,0.00,,---,0.00,0.00,VWS V14.01,2012-11-11 00:00:00,
2012-11-10 19:01:00,66.3,55.4,30.26,NNE,32,0.0,1.0,68,0.00,,---,0.00,0.00,VWS V14.01,2012-11-11 00:01:00,
2012-11-10 19:02:00,66.2,55.3,30.26,NNE,32,0.0,1.0,68,0.00,,---,0.00,0.00,VWS V14.01,2012-11-11 00:02:00,
2012-11-10 19:03:00,66.1,55.2,30.26,NNE,32,1.0,1.0,68,0.00,,---,0.00,0.00,VWS V14.01,2012-11-11 00:03:00,
2012-11-10 19:04:00,65.9,55.0,30.26,NNE,32,0.0,2.0,68,0.00,,---,0.00,0.00,VWS V14.01,2012-11-11 00:04:00,
2012-11-10 19:05:00,66.6,55.3,30.26,NNE,31,1.0,5.0,67,0.00,,---,0.00,0.00,VWS V14.01,2012-11-11 00:05:00,
2012-11-10 19:06:00,65.7,55.3,30.26,NNE,32,0.0,2.0,69,0.00,,---,0.00,0.00,VWS V14.01,2012-11-11 00:06:00,
2012-11-10 19:07:00,65.6,55.2,30.26,NNE,32,0.0,2.0,69,0.00,,---,0.00,0.00,VWS V14.01,2012-11-11 00:07:00,
2012-11-10 19:08:00,65.5,55.1,30.26,NNE,32,0.0,2.0,69,0.00,,---,0.00,0.00,VWS V14.01,2012-11-11 00:08:00,
2012-11-10 19:09:00,65.4,55.0,30.26,NNE,32,1.0,2.0,69,0.00,,---,0.00,0.00,VWS V14.01,2012-11-11 00:09:00,
2012-11-10 19:10:00,66.3,55.4,30.26,NNE,32,0.0,1.0,68,0.00,,---,0.00,0.00,VWS V14.01,2012-11-11 00:10:00,
2012-11-10 19:11:00,65.3,54.9,30.26,ENE,74,0.0,2.0,69,0.00,,---,0.00,0.00,VWS V14.01,2012-11-11 00:11:00,
2012-11-10 19:12:00,65.3,55.3,30.26,ENE,74,0.0,2.0,70,0.00,,---,0.00,0.00,VWS V14.01,2012-11-11 00:12:00,
2012-11-10 19:13:00,65.3,55.3,30.27,East,91,0.0,2.0,70,0.00,,---,0.00,0.00,VWS V14.01,2012-11-11 00:13:00,
2012-11-10 19:14:00,65.3,55.3,30.27,East,91,0.0,2.0,70,0.00,,---,0.00,0.00,VWS V14.01,2012-11-11 00:14:00,
2012-11-10 19:15:00,65.7,54.9,30.26,NNE,32,0.0,2.0,68,0.00,,---,0.00,0.00,VWS V14.01,2012-11-11 00:15:00,
2012-11-10 19:16:00,65.3,55.3,30.27,East,91,0.0,2.0,70,0.00,,---,0.00,0.00,VWS V14.01,2012-11-11 00:16:00,
2012-11-10 19:17:00,65.3,55.3,30.27,East,91,0.0,2.0,70,0.00,,---,0.00,0.00,VWS V14.01,2012-11-11 00:17:00,
2012-11-10 19:18:00,65.3,55.3,30.27,East,90,0.0,2.0,70,0.00,,---,0.00,0.00,VWS V14.01,2012-11-11 00:18:00,
2012-11-10 19:19:00,65.3,55.3,30.27,East,81,2.0,2.0,70,0.00,,---,0.00,0.00,VWS V14.01,2012-11-11 00:19:00,
2012-11-10 19:20:00,65.3,54.9,30.27,ENE,74,1.0,2.0,69,0.00,,---,0.00,0.00,VWS V14.01,2012-11-11 00:20:00,
2012-11-10 19:21:00,65.3,55.3,30.27,East,95,0.0,3.0,70,0.00,,---,0.00,0.00,VWS V14.01,2012-11-11 00:21:00,
2012-11-10 19:22:00,65.3,55.3,30.27,East,87,1.0,3.0,70,0.00,,---,0.00,0.00,VWS V14.01,2012-11-11 00:22:00,
2012-11-10 19:23:00,65.3,55.3,30.27,East,83,0.0,3.0,70,0.00,,---,0.00,0.00,VWS V14.01,2012-11-11 00:23:00,
2012-11-10 19:24:00,65.2,55.2,30.27,East,87,1.0,3.0,70,0.00,,---,0.00,0.00,VWS V14.01,2012-11-11 00:24:00,
2012-11-10 19:25:00,65.3,55.3,30.27,East,91,0.0,2.0,70,0.00,,---,0.00,0.00,VWS V14.01,2012-11-11 00:25:00,
2012-11-10 19:26:00,65.2,55.2,30.27,ENE,73,2.0,3.0,70,0.00,,---,0.00,0.00,VWS V14.01,2012-11-11 00:26:00,
2012-11-10 19:27:00,65.1,55.1,30.27,ENE,64,1.0,3.0,70,0.00,,---,0.00,0.00,VWS V14.01,2012-11-11 00:27:00,
2012-11-10 19:28:00,65.0,55.0,30.27,ENE,65,2.0,3.0,70,0.00,,---,0.00,0.00,VWS V14.01,2012-11-11 00:28:00,
2012-11-10 19:29:00,64.9,54.9,30.27,ENE,65,0.0,3.0,70,0.00,,---,0.00,0.00,VWS V14.01,2012-11-11 00:29:00,
2012-11-10 19:30:00,65.3,55.3,30.27,East,95,0.0,3.0,70,0.00,,---,0.00,0.00,VWS V14.01,2012-11-11 00:30:00,
2012-11-10 19:31:00,64.8,55.2,30.27,ENE,65,1.0,3.0,71,0.00,,---,0.00,0.00,VWS V14.01,2012-11-11 00:31:00,
2012-11-10 19:32:00,64.8,55.2,30.27,ENE,70,0.0,3.0,71,0.00,,---,0.00,0.00,VWS V14.01,2012-11-11 00:32:00,
2012-11-10 19:33:00,64.8,55.2,30.27,ENE,70,0.0,3.0,71,0.00,,---,0.00,0.00,VWS V14.01,2012-11-11 00:33:00,
2012-11-10 19:34:00,64.8,55.2,30.27,ENE,70,1.0,3.0,71,0.00,,---,0.00,0.00,VWS V14.01,2012-11-11 00:34:00,
2012-11-10 19:35:00,65.2,55.2,30.27,ENE,73,1.0,3.0,70,0.00,,---,0.00,0.00,VWS V14.01,2012-11-11 00:35:00,
2012-11-10 19:36:00,64.8,55.2,30.27,ENE,74,2.0,3.0,71,0.00,,---,0.00,0.00,VWS V14.01,2012-11-11 00:36:00,
2012-11-10 19:37:00,64.7,55.1,30.28,East,79,2.0,3.0,71,0.00,,---,0.00,0.00,VWS V14.01,2012-11-11 00:37:00,
2012-11-10 19:38:00,64.8,55.2,30.28,ENE,78,0.0,3.0,71,0.00,,---,0.00,0.00,VWS V14.01,2012-11-11 00:38:00,
2012-11-10 19:39:00,64.7,55.1,30.28,ENE,78,0.0,3.0,71,0.00,,---,0.00,0.00,VWS V14.01,2012-11-11 00:39:00,
2012-11-10 19:40:00,64.8,55.2,30.27,ENE,65,0.0,3.0,71,0.00,,---,0.00,0.00,VWS V14.01,2012-11-11 00:40:00,
2012-11-10 19:41:00,64.6,55.4,30.27,ESE,102,0.0,3.0,72,0.00,,---,0.00,0.00,VWS V14.01,2012-11-11 00:41:00,
2012-11-10 19:42:00,64.6,55.4,30.28,ESE,102,0.0,3.0,72,0.00,,---,0.00,0.00,VWS V14.01,2012-11-11 00:42:00,
2012-11-10 19:43:00,64.5,55.3,30.28,NE,43,0.0,4.0,72,0.00,,---,0.00,0.00,VWS V14.01,2012-11-11 00:43:00,
2012-11-10 19:44:00,64.5,55.3,30.28,NE,47,0.0,4.0,72,0.00,,---,0.00,0.00,VWS V14.01,2012-11-11 00:44:00,
2012-11-10 19:45:00,64.7,55.1,30.27,ENE,64,2.0,3.0,71,0.00,,---,0.00,0.00,VWS V14.01,2012-11-11 00:45:00,
2012-11-10 19:46:00,64.4,55.2,30.28,NE,47,0.0,4.0,72,0.00,,---,0.00,0.00,VWS V14.01,2012-11-11 00:46:00,
2012-11-10 19:47:00,64.4,55.2,30.27,NE,47,0.0,4.0,72,0.00,,---,0.00,0.00,VWS V14.01,2012-11-11 00:47:00,
2012-11-10 19:48:00,64.4,55.6,30.27,NE,47,0.0,4.0,73,0.00,,---,0.00,0.00,VWS V14.01,2012-11-11 00:48:00,
2012-11-10 19:49:00,64.3,55.5,30.27,NE,47,0.0,4.0,73,0.00,,---,0.00,0.00,VWS V14.01,2012-11-11 00:49:00,
2012-11-10 19:50:00,64.6,55.4,30.27,ESE,102,0.0,3.0,72,0.00,,---,0.00,0.00,VWS V14.01,2012-11-11 00:50:00,
2012-11-10 19:51:00,64.3,55.5,30.27,NE,52,0.0,4.0,73,0.00,,---,0.00,0.00,VWS V14.01,2012-11-11 00:51:00,
2012-11-10 19:52:00,64.3,55.8,30.27,NE,55,2.0,4.0,74,0.00,,---,0.00,0.00,VWS V14.01,2012-11-11 00:52:00,
2012-11-10 19:53:00,64.3,55.5,30.27,NE,55,0.0,4.0,73,0.00,,---,0.00,0.00,VWS V14.01,2012-11-11 00:53:00,
2012-11-10 19:54:00,64.3,55.5,30.27,NE,55,0.0,4.0,73,0.00,,---,0.00,0.00,VWS V14.01,2012-11-11 00:54:00,
2012-11-10 19:55:00,64.4,55.2,30.28,NE,47,0.0,4.0,72,0.00,,---,0.00,0.00,VWS V14.01,2012-11-11 00:55:00,
2012-11-10 19:56:00,64.4,55.6,30.27,ENE,75,2.0,4.0,73,0.00,,---,0.00,0.00,VWS V14.01,2012-11-11 00:56:00,
2012-11-10 19:57:00,64.5,55.7,30.27,ENE,75,0.0,4.0,73,0.00,,---,0.00,0.00,VWS V14.01,2012-11-11 00:57:00,
2012-11-10 19:58:00,64.5,55.7,30.27,NNE,21,0.0,4.0,73,0.00,,---,0.00,0.00,VWS V14.01,2012-11-11 00:58:00,
2012-11-10 19:59:00,64.5,55.3,30.27,ESE,102,0.0,4.0,72,0.00,,---,0.00,0.00,VWS V14.01,2012-11-11 00:59:00,
2012-11-10 20:00:00,64.3,55.5,30.27,NE,52,0.0,4.0,73,0.00,,---,0.00,0.00,VWS V14.01,2012-11-11 01:00:00,
2012-11-10 20:01:00,64.6,55.4,30.27,ESE,118,1.0,1.0,72,0.00,,---,0.00,0.00,VWS V14.01,2012-11-11 01:01:00,
2012-11-10 20:02:00,64.6,55.4,30.27,ENE,77,1.0,2.0,72,0.00,,---,0.00,0.00,VWS V14.01,2012-11-11 01:02:00,
2012-11-10 20:03:00,64.7,55.1,30.27,ESE,112,0.0,2.0,71,0.00,,---,0.00,0.00,VWS V14.01,2012-11-11 01:03:00,
2012-11-10 20:04:00,64.7,55.5,30.27,East,100,0.0,2.0,72,0.00,,---,0.00,0.00,VWS V14.01,2012-11-11 01:04:00,
2012-11-10 20:05:00,64.8,55.2,30.27,East,100,1.0,2.0,71,0.00,,---,0.00,0.00,VWS V14.01,2012-11-11 01:05:00,
2012-11-10 20:06:00,64.4,55.6,30.27,ENE,75,0.0,4.0,73,0.00,,---,0.00,0.00,VWS V14.01,2012-11-11 01:06:00,
2012-11-10 20:07:00,64.9,55.3,30.27,East,93,1.0,4.0,71,0.00,,---,0.00,0.00,VWS V14.01,2012-11-11 01:07:00,
2012-11-10 20:08:00,64.9,55.3,30.28,ENE,77,0.0,4.0,71,0.00,,---,0.00,0.00,VWS V14.01,2012-11-11 01:08:00,
2012-11-10 20:09:00,64.9,55.3,30.28,ENE,72,3.0,4.0,71,0.00,,---,0.00,0.00,VWS V14.01,2012-11-11 01:09:00,
2012-11-10 20:10:00,65.0,55.4,30.28,East,95,1.0,4.0,71,0.00,,---,0.00,0.00,VWS V14.01,2012-11-11 01:10:00,
2012-11-10 20:11:00,64.6,55.4,30.27,ENE,77,2.0,2.0,72,0.00,,---,0.00,0.00,VWS V14.01,2012-11-11 01:11:00,
2012-11-10 20:12:00,65.0,55.4,30.28,SE,132,1.0,4.0,71,0.00,,---,0.00,0.00,VWS V14.01,2012-11-11 01:12:00,
2012-11-10 20:13:00,65.0,55.4,30.28,ESE,106,0.0,4.0,71,0.00,,---,0.00,0.00,VWS V14.01,2012-11-11 01:13:00,
2012-11-10 20:14:00,65.0,55.8,30.28,ESE,103,4.0,4.0,72,0.00,,---,0.00,0.00,VWS V14.01,2012-11-11 01:14:00,
2012-11-10 20:15:00,65.0,55.4,30.28,NE,50,1.0,4.0,71,0.00,,---,0.00,0.00,VWS V14.01,2012-11-11 01:15:00,
2012-11-10 20:16:00,64.8,55.2,30.28,ENE,63,1.0,4.0,71,0.00,,---,0.00,0.00,VWS V14.01,2012-11-11 01:16:00,
2012-11-10 20:17:00,65.0,55.8,30.28,East,90,3.0,4.0,72,0.00,,---,0.00,0.00,VWS V14.01,2012-11-11 01:17:00,
2012-11-10 20:18:00,65.0,55.4,30.28,NE,47,0.0,4.0,71,0.00,,---,0.00,0.00,VWS V14.01,2012-11-11 01:18:00,
2012-11-10 20:19:00,65.0,55.4,30.28,East,83,3.0,4.0,71,0.00,,---,0.00,0.00,VWS V14.01,2012-11-11 01:19:00,
2012-11-10 20:20:00,65.0,55.8,30.28,NE,56,3.0,4.0,72,0.00,,---,0.00,0.00,VWS V14.01,2012-11-11 01:20:00,
2012-11-10 20:21:00,65.0,55.4,30.28,SE,135,1.0,4.0,71,0.00,,---,0.00,0.00,VWS V14.01,2012-11-11 01:21:00,
2012-11-10 20:22:00,65.0,56.2,30.28,NE,56,0.0,4.0,73,0.00,,---,0.00,0.00,VWS V14.01,2012-11-11 01:22:00,
2012-11-10 20:23:00,65.0,56.2,30.28,NE,56,1.0,4.0,73,0.00,,---,0.00,0.00,VWS V14.01,2012-11-11 01:23:00,
2012-11-10 20:24:00,64.9,56.0,30.28,East,89,2.0,4.0,73,0.00,,---,0.00,0.00,VWS V14.01,2012-11-11 01:24:00,
2012-11-10 20:25:00,64.9,55.7,30.28,NE,47,3.0,4.0,72,0.00,,---,0.00,0.00,VWS V14.01,2012-11-11 01:25:00,
2012-11-10 20:26:00,65.0,55.8,30.28,NE,48,2.0,4.0,72,0.00,,---,0.00,0.00,VWS V14.01,2012-11-11 01:26:00,
2012-11-10 20:27:00,64.8,55.6,30.28,ENE,71,0.0,4.0,72,0.00,,---,0.00,0.00,VWS V14.01,2012-11-11 01:27:00,
2012-11-10 20:28:00,64.8,55.6,30.28,East,100,2.0,4.0,72,0.00,,---,0.00,0.00,VWS V14.01,2012-11-11 01:28:00,
2012-11-10 20:29:00,64.8,55.6,30.28,East,100,0.0,4.0,72,0.00,,---,0.00,0.00,VWS V14.01,2012-11-11 01:29:00,
2012-11-10 20:30:00,64.8,55.6,30.28,East,93,1.0,4.0,72,0.00,,---,0.00,0.00,VWS V14.01,2012-11-11 01:30:00,
2012-11-10 20:31:00,65.0,56.2,30.28,NE,56,0.0,4.0,73,0.00,,---,0.00,0.00,VWS V14.01,2012-11-11 01:31:00,
2012-11-10 20:32:00,64.9,56.0,30.28,East,100,0.0,4.0,73,0.00,,---,0.00,0.00,VWS V14.01,2012-11-11 01:32:00,
2012-11-10 20:33:00,64.8,56.0,30.28,NNE,31,0.0,4.0,73,0.00,,---,0.00,0.00,VWS V14.01,2012-11-11 01:33:00,
2012-11-10 20:34:00,64.9,55.7,30.28,ENE,60,1.0,4.0,72,0.00,,---,0.00,0.00,VWS V14.01,2012-11-11 01:34:00,
2012-11-10 20:35:00,64.9,56.0,30.28,NE,41,0.0,4.0,73,0.00,,---,0.00,0.00,VWS V14.01,2012-11-11 01:35:00,
2012-11-10 20:36:00,64.8,55.6,30.28,ENE,71,0.0,4.0,72,0.00,,---,0.00,0.00,VWS V14.01,2012-11-11 01:36:00,
2012-11-10 20:37:00,64.9,56.0,30.28,NNE,31,1.0,4.0,73,0.00,,---,0.00,0.00,VWS V14.01,2012-11-11 01:37:00,
2012-11-10 20:38:00,64.9,55.7,30.28,East,95,0.0,4.0,72,0.00,,---,0.00,0.00,VWS V14.01,2012-11-11 01:38:00,
2012-11-10 20:39:00,64.9,55.7,30.28,East,95,0.0,4.0,72,0.00,,---,0.00,0.00,VWS V14.01,2012-11-11 01:39:00,
2012-11-10 20:40:00,64.9,55.7,30.28,East,94,1.0,4.0,72,0.00,,---,0.00,0.00,VWS V14.01,2012-11-11 01:40:00,
2012-11-10 20:41:00,64.8,56.0,30.28,East,100,2.0,4.0,73,0.00,,---,0.00,0.00,VWS V14.01,2012-11-11 01:41:00,
2012-11-10 20:42:00,64.9,56.0,30.28,ENE,60,1.0,4.0,73,0.00,,---,0.00,0.00,VWS V14.01,2012-11-11 01:42:00,
2012-11-10 20:43:00,64.9,56.0,30.28,ENE,72,1.0,4.0,73,0.00,,---,0.00,0.00,VWS V14.01,2012-11-11 01:43:00,
2012-11-10 20:44:00,64.9,56.0,30.28,NE,36,2.0,4.0,73,0.00,,---,0.00,0.00,VWS V14.01,2012-11-11 01:44:00,
2012-11-10 20:45:00,64.9,56.0,30.28,East,93,4.0,4.0,73,0.00,,---,0.00,0.00,VWS V14.01,2012-11-11 01:45:00,
2012-11-10 20:46:00,64.9,56.0,30.28,NNE,31,1.0,4.0,73,0.00,,---,0.00,0.00,VWS V14.01,2012-11-11 01:46:00,
2012-11-10 20:47:00,64.9,56.0,30.28,East,81,0.0,4.0,73,0.00,,---,0.00,0.00,VWS V14.01,2012-11-11 01:47:00,
2012-11-10 20:48:00,64.9,56.0,30.29,East,81,1.0,4.0,73,0.00,,---,0.00,0.00,VWS V14.01,2012-11-11 01:48:00,
2012-11-10 20:49:00,64.9,56.0,30.28,ENE,62,0.0,4.0,73,0.00,,---,0.00,0.00,VWS V14.01,2012-11-11 01:49:00,
2012-11-10 20:50:00,64.8,56.0,30.29,ENE,62,0.0,4.0,73,0.00,,---,0.00,0.00,VWS V14.01,2012-11-11 01:50:00,
2012-11-10 20:51:00,64.8,56.0,30.29,East,79,0.0,4.0,73,0.00,,---,0.00,0.00,VWS V14.01,2012-11-11 01:51:00,
2012-11-10 20:52:00,64.9,56.0,30.28,ENE,60,1.0,4.0,73,0.00,,---,0.00,0.00,VWS V14.01,2012-11-11 01:52:00,
2012-11-10 20:53:00,64.7,56.2,30.29,NE,50,2.0,4.0,74,0.00,,---,0.00,0.00,VWS V14.01,2012-11-11 01:53:00,
2012-11-10 20:54:00,64.7,56.2,30.29,ENE,58,1.0,4.0,74,0.00,,---,0.00,0.00,VWS V14.01,2012-11-11 01:54:00,
2012-11-10 20:55:00,64.7,56.2,30.29,ENE,78,2.0,4.0,74,0.00,,---,0.00,0.00,VWS V14.01,2012-11-11 01:55:00,
2012-11-10 20:56:00,64.6,56.1,30.29,ENE,69,0.0,4.0,74,0.00,,---,0.00,0.00,VWS V14.01,2012-11-11 01:56:00,
2012-11-10 20:57:00,64.9,56.0,30.28,East,81,1.0,4.0,73,0.00,,---,0.00,0.00,VWS V14.01,2012-11-11 01:57:00,
2012-11-10 20:58:00,64.6,56.1,30.29,ENE,65,3.0,4.0,74,0.00,,---,0.00,0.00,VWS V14.01,2012-11-11 01:58:00,
2012-11-10 20:59:00,64.5,55.7,30.29,NNE,29,1.0,4.0,73,0.00,,---,0.00,0.00,VWS V14.01,2012-11-11 01:59:00,
2012-11-10 21:00:00,64.5,55.7,30.29,NNE,29,1.0,1.0,73,0.00,,---,0.00,0.00,VWS V14.01,2012-11-11 02:00:00,
2012-11-10 21:01:00,64.4,55.9,30.29,NNE,29,0.0,1.0,74,0.00,,---,0.00,0.00,VWS V14.01,2012-11-11 02:01:00,
2012-11-10 21:02:00,64.7,56.2,30.29,NE,50,1.0,4.0,74,0.00,,---,0.00,0.00,VWS V14.01,2012-11-11 02:02:00,
2012-11-10 21:03:00,64.4,55.9,30.29,East,100,2.0,3.0,74,0.00,,---,0.00,0.00,VWS V14.01,2012-11-11 02:03:00,
2012-11-10 21:04:00,64.3,55.8,30.29,NE,53,2.0,3.0,74,0.00,,---,0.00,0.00,VWS V14.01,2012-11-11 02:04:00,
2012-11-10 21:05:00,64.2,55.8,30.29,East,93,1.0,4.0,74,0.00,,---,0.00,0.00,VWS V14.01,2012-11-11 02:05:00,
2012-11-10 21:06:00,64.2,55.8,30.29,East,93,0.0,4.0,74,0.00,,---,0.00,0.00,VWS V14.01,2012-11-11 02:06:00,
2012-11-10 21:07:00,64.6,56.1,30.29,ENE,58,1.0,4.0,74,0.00,,---,0.00,0.00,VWS V14.01,2012-11-11 02:07:00,
2012-11-10 21:08:00,64.0,55.6,30.29,ENE,72,1.0,4.0,74,0.00,,---,0.00,0.00,VWS V14.01,2012-11-11 02:08:00,
2012-11-10 21:09:00,64.0,55.6,30.29,ENE,77,2.0,4.0,74,0.00,,---,0.00,0.00,VWS V14.01,2012-11-11 02:09:00,
2012-11-10 21:10:00,63.9,55.5,30.29,NE,35,0.0,4.0,74,0.00,,---,0.00,0.00,VWS V14.01,2012-11-11 02:10:00,
2012-11-10 21:11:00,63.9,55.5,30.29,NE,36,0.0,4.0,74,0.00,,---,0.00,0.00,VWS V14.01,2012-11-11 02:11:00,
2012-11-10 21:12:00,64.4,55.9,30.29,East,100,1.0,3.0,74,0.00,,---,0.00,0.00,VWS V14.01,2012-11-11 02:12:00,
2012-11-10 21:13:00,63.8,55.7,30.29,NE,45,0.0,4.0,75,0.00,,---,0.00,0.00,VWS V14.01,2012-11-11 02:13:00,
2012-11-10 21:14:00,63.6,55.5,30.29,NE,45,0.0,4.0,75,0.00,,---,0.00,0.00,VWS V14.01,2012-11-11 02:14:00,
2012-11-10 21:15:00,63.6,55.9,30.29,NE,44,1.0,4.0,76,0.00,,---,0.00,0.00,VWS V14.01,2012-11-11 02:15:00,
2012-11-10 21:16:00,63.5,55.8,30.29,NE,44,0.0,4.0,76,0.00,,---,0.00,0.00,VWS V14.01,2012-11-11 02:16:00,
2012-11-10 21:17:00,64.0,55.6,30.29,ENE,72,1.0,4.0,74,0.00,,---,0.00,0.00,VWS V14.01,2012-11-11 02:17:00,
2012-11-10 21:18:00,63.3,55.6,30.29,ENE,61,2.0,4.0,76,0.00,,---,0.00,0.00,VWS V14.01,2012-11-11 02:18:00,
2012-11-10 21:19:00,63.2,55.5,30.29,ENE,61,0.0,4.0,76,0.00,,---,0.00,0.00,VWS V14.01,2012-11-11 02:19:00,
2012-11-10 21:20:00,63.1,55.4,30.29,ENE,61,0.0,4.0,76,0.00,,---,0.00,0.00,VWS V14.01,2012-11-11 02:20:00,
2012-11-10 21:21:00,63.1,55.4,30.29,ENE,62,2.0,4.0,76,0.00,,---,0.00,0.00,VWS V14.01,2012-11-11 02:21:00,
2012-11-10 21:22:00,63.8,55.7,30.29,NE,45,0.0,4.0,75,0.00,,---,0.00,0.00,VWS V14.01,2012-11-11 02:22:00,
2012-11-10 21:23:00,63.0,55.7,30.29,NE,49,0.0,4.0,77,0.00,,---,0.00,0.00,VWS V14.01,2012-11-11 02:23:00,
2012-11-10 21:24:00,62.9,55.6,30.29,NE,49,0.0,4.0,77,0.00,,---,0.00,0.00,VWS V14.01,2012-11-11 02:24:00,
2012-11-10 21:25:00,62.9,55.2,30.29,NE,49,1.0,4.0,76,0.00,,---,0.00,0.00,VWS V14.01,2012-11-11 02:25:00,
2012-11-10 21:26:00,62.8,55.5,30.29,NE,49,0.0,4.0,77,0.00,,---,0.00,0.00,VWS V14.01,2012-11-11 02:26:00,
2012-11-10 21:27:00,63.3,55.6,30.29,ENE,61,2.0,4.0,76,0.00,,---,0.00,0.00,VWS V14.01,2012-11-11 02:27:00,
2012-11-10 21:28:00,62.7,55.4,30.29,ENE,69,0.0,4.0,77,0.00,,---,0.00,0.00,VWS V14.01,2012-11-11 02:28:00,
2012-11-10 21:29:00,62.7,55.4,30.29,ENE,60,1.0,4.0,77,0.00,,---,0.00,0.00,VWS V14.01,2012-11-11 02:29:00,
2012-11-10 21:30:00,62.6,55.7,30.29,ENE,60,0.0,4.0,78,0.00,,---,0.00,0.00,VWS V14.01,2012-11-11 02:30:00,
2012-11-10 21:31:00,62.6,55.7,30.29,ENE,60,0.0,4.0,78,0.00,,---,0.00,0.00,VWS V14.01,2012-11-11 02:31:00,
2012-11-10 21:32:00,63.0,55.7,30.29,NE,49,2.0,4.0,77,0.00,,---,0.00,0.00,VWS V14.01,2012-11-11 02:32:00,
2012-11-10 21:33:00,62.3,55.4,30.29,NE,54,0.0,4.0,78,0.00,,---,0.00,0.00,VWS V14.01,2012-11-11 02:33:00,
2012-11-10 21:34:00,62.3,55.4,30.29,East,81,0.0,4.0,78,0.00,,---,0.00,0.00,VWS V14.01,2012-11-11 02:34:00,
2012-11-10 21:35:00,62.1,55.5,30.29,ENE,68,2.0,4.0,79,0.00,,---,0.00,0.00,VWS V14.01,2012-11-11 02:35:00,
2012-11-10 21:36:00,62.1,55.5,30.29,NE,56,2.0,4.0,79,0.00,,---,0.00,0.00,VWS V14.01,2012-11-11 02:36:00,
2012-11-10 21:37:00,62.1,55.5,30.29,NE,39,1.0,4.0,79,0.00,,---,0.00,0.00,VWS V14.01,2012-11-11 02:37:00,
2012-11-10 21:38:00,62.7,55.4,30.29,ENE,69,0.0,4.0,77,0.00,,---,0.00,0.00,VWS V14.01,2012-11-11 02:38:00,
2012-11-10 21:39:00,62.1,55.5,30.29,ENE,68,1.0,4.0,79,0.00,,---,0.00,0.00,VWS V14.01,2012-11-11 02:39:00,
2012-11-10 21:40:00,62.1,55.5,30.29,ENE,68,0.0,4.0,79,0.00,,---,0.00,0.00,VWS V14.01,2012-11-11 02:40:00,
2012-11-10 21:41:00,62.0,55.4,30.29,ENE,68,0.0,4.0,79,0.00,,---,0.00,0.00,VWS V14.01,2012-11-11 02:41:00,
2012-11-10 21:42:00,62.3,55.4,30.29,NE,54,1.0,4.0,78,0.00,,---,0.00,0.00,VWS V14.01,2012-11-11 02:42:00,
2012-11-10 21:43:00,61.9,55.3,30.29,ENE,68,2.0,4.0,79,0.00,,---,0.00,0.00,VWS V14.01,2012-11-11 02:43:00,
2012-11-10 21:44:00,61.9,55.3,30.29,ENE,68,1.0,4.0,79,0.00,,---,0.00,0.00,VWS V14.01,2012-11-11 02:44:00,
2012-11-10 21:45:00,61.7,55.1,30.29,ENE,70,3.0,4.0,79,0.00,,---,0.00,0.00,VWS V14.01,2012-11-11 02:45:00,
2012-11-10 21:46:00,61.6,55.0,30.30,ENE,74,1.0,4.0,79,0.00,,---,0.00,0.00,VWS V14.01,2012-11-11 02:46:00,
2012-11-10 21:47:00,62.1,55.2,30.29,ENE,68,0.0,4.0,78,0.00,,---,0.00,0.00,VWS V14.01,2012-11-11 02:47:00,
2012-11-10 21:48:00,61.5,54.9,30.29,ENE,62,0.0,4.0,79,0.00,,---,0.00,0.00,VWS V14.01,2012-11-11 02:48:00,
2012-11-10 21:49:00,61.4,54.8,30.29,East,79,2.0,4.0,79,0.00,,---,0.00,0.00,VWS V14.01,2012-11-11 02:49:00,
2012-11-10 21:50:00,61.3,55.1,30.29,NE,43,0.0,4.0,80,0.00,,---,0.00,0.00,VWS V14.01,2012-11-11 02:50:00,
2012-11-10 21:51:00,61.3,55.1,30.29,NE,43,0.0,4.0,80,0.00,,---,0.00,0.00,VWS V14.01,2012-11-11 02:51:00,
2012-11-10 21:52:00,61.9,55.3,30.29,ENE,68,2.0,4.0,79,0.00,,---,0.00,0.00,VWS V14.01,2012-11-11 02:52:00,
2012-11-10 21:53:00,61.3,55.1,30.29,NE,43,0.0,4.0,80,0.00,,---,0.00,0.00,VWS V14.01,2012-11-11 02:53:00,
2012-11-10 21:54:00,61.3,55.1,30.29,NE,44,1.0,4.0,80,0.00,,---,0.00,0.00,VWS V14.01,2012-11-11 02:54:00,
2012-11-10 21:55:00,61.2,55.0,30.29,NE,45,2.0,4.0,80,0.00,,---,0.00,0.00,VWS V14.01,2012-11-11 02:55:00,
2012-11-10 21:56:00,61.2,55.0,30.29,NE,45,0.0,4.0,80,0.00,,---,0.00,0.00,VWS V14.01,2012-11-11 02:56:00,
2012-11-10 21:57:00,61.2,55.0,30.29,NE,46,1.0,4.0,80,0.00,,---,0.00,0.00,VWS V14.01,2012-11-11 02:57:00,
2012-11-10 21:58:00,61.5,54.9,30.29,ENE,62,0.0,4.0,79,0.00,,---,0.00,0.00,VWS V14.01,2012-11-11 02:58:00,
2012-11-10 21:59:00,61.3,55.1,30.29,NE,49,0.0,4.0,80,0.00,,---,0.00,0.00,VWS V14.01,2012-11-11 02:59:00,
2012-11-10 22:00:00,61.3,55.4,30.29,NE,41,1.0,1.0,81,0.00,,---,0.00,0.00,VWS V14.01,2012-11-11 03:00:00,
2012-11-10 22:01:00,61.2,55.0,30.29,NE,41,0.0,1.0,80,0.00,,---,0.00,0.00,VWS V14.01,2012-11-11 03:01:00,
2012-11-10 22:02:00,61.2,55.0,30.29,NE,41,0.0,2.0,80,0.00,,---,0.00,0.00,VWS V14.01,2012-11-11 03:02:00,
2012-11-10 22:03:00,61.2,55.0,30.29,NE,43,0.0,4.0,80,0.00,,---,0.00,0.00,VWS V14.01,2012-11-11 03:03:00,
2012-11-10 22:04:00,61.1,55.2,30.29,East,88,0.0,2.0,81,0.00,,---,0.00,0.00,VWS V14.01,2012-11-11 03:04:00,
2012-11-10 22:05:00,61.1,55.2,30.29,East,85,0.0,2.0,81,0.00,,---,0.00,0.00,VWS V14.01,2012-11-11 03:05:00,
2012-11-10 22:06:00,61.1,54.9,30.29,NE,50,2.0,2.0,80,0.00,,---,0.00,0.00,VWS V14.01,2012-11-11 03:06:00,
2012-11-10 22:07:00,61.0,55.1,30.29,ENE,60,0.0,2.0,81,0.00,,---,0.00,0.00,VWS V14.01,2012-11-11 03:07:00,
2012-11-10 22:08:00,61.2,55.0,30.29,NE,49,0.0,4.0,80,0.00,,---,0.00,0.00,VWS V14.01,2012-11-11 03:08:00,
2012-11-10 22:09:00,61.0,55.1,30.29,NNE,25,1.0,2.0,81,0.00,,---,0.00,0.00,VWS V14.01,2012-11-11 03:09:00,
2012-11-10 22:10:00,61.0,55.1,30.29,NNE,25,1.0,2.0,81,0.00,,---,0.00,0.00,VWS V14.01,2012-11-11 03:10:00,
2012-11-10 22:11:00,61.0,55.1,30.30,East,82,1.0,3.0,81,0.00,,---,0.00,0.00,VWS V14.01,2012-11-11 03:11:00,
2012-11-10 22:12:00,61.0,55.1,30.29,ENE,66,1.0,3.0,81,0.00,,---,0.00,0.00,VWS V14.01,2012-11-11 03:12:00,
2012-11-10 22:13:00,61.1,55.2,30.29,East,88,1.0,2.0,81,0.00,,---,0.00,0.00,VWS V14.01,2012-11-11 03:13:00,
2012-11-10 22:14:00,61.0,55.1,30.29,NE,39,1.0,3.0,81,0.00,,---,0.00,0.00,VWS V14.01,2012-11-11 03:14:00,
2012-11-10 22:15:00,61.0,55.1,30.29,ENE,71,0.0,3.0,81,0.00,,---,0.00,0.00,VWS V14.01,2012-11-11 03:15:00,
2012-11-10 22:16:00,61.0,55.1,30.29,ENE,71,0.0,3.0,81,0.00,,---,0.00,0.00,VWS V14.01,2012-11-11 03:16:00,
2012-11-10 22:17:00,61.0,55.1,30.29,ENE,65,0.0,3.0,81,0.00,,---,0.00,0.00,VWS V14.01,2012-11-11 03:17:00,
2012-11-10 22:18:00,61.0,55.1,30.29,NNE,24,0.0,2.0,81,0.00,,---,0.00,0.00,VWS V14.01,2012-11-11 03:18:00,
2012-11-10 22:19:00,61.0,55.1,30.29,NE,36,0.0,3.0,81,0.00,,---,0.00,0.00,VWS V14.01,2012-11-11 03:19:00,
2012-11-10 22:20:00,61.0,55.1,30.29,NE,36,0.0,3.0,81,0.00,,---,0.00,0.00,VWS V14.01,2012-11-11 03:20:00,
2012-11-10 22:21:00,60.9,55.0,30.29,NE,37,0.0,3.0,81,0.00,,---,0.00,0.00,VWS V14.01,2012-11-11 03:21:00,
2012-11-10 22:22:00,60.9,55.0,30.29,East,93,0.0,3.0,81,0.00,,---,0.00,0.00,VWS V14.01,2012-11-11 03:22:00,
2012-11-10 22:23:00,61.0,55.1,30.29,ENE,59,1.0,3.0,81,0.00,,---,0.00,0.00,VWS V14.01,2012-11-11 03:23:00,
2012-11-10 22:24:00,60.9,55.0,30.29,NE,49,1.0,3.0,81,0.00,,---,0.00,0.00,VWS V14.01,2012-11-11 03:24:00,
2012-11-10 22:25:00,60.8,55.3,30.29,NE,44,3.0,4.0,82,0.00,,---,0.00,0.00,VWS V14.01,2012-11-11 03:25:00,
2012-11-10 22:26:00,60.8,54.9,30.29,ENE,65,1.0,4.0,81,0.00,,---,0.00,0.00,VWS V14.01,2012-11-11 03:26:00,
2012-11-10 22:27:00,60.8,54.9,30.29,ENE,65,0.0,4.0,81,0.00,,---,0.00,0.00,VWS V14.01,2012-11-11 03:27:00,
2012-11-10 22:28:00,61.0,55.1,30.29,NE,36,1.0,3.0,81,0.00,,---,0.00,0.00,VWS V14.01,2012-11-11 03:28:00,
2012-11-10 22:29:00,60.9,55.4,30.29,NE,37,0.0,4.0,82,0.00,,---,0.00,0.00,VWS V14.01,2012-11-11 03:29:00,
2012-11-10 22:30:00,60.8,55.3,30.29,NE,37,1.0,4.0,82,0.00,,---,0.00,0.00,VWS V14.01,2012-11-11 03:30:00,
2012-11-10 22:31:00,60.8,55.3,30.29,NE,37,0.0,4.0,82,0.00,,---,0.00,0.00,VWS V14.01,2012-11-11 03:31:00,
2012-11-10 22:32:00,60.7,54.8,30.29,NE,37,0.0,4.0,81,0.00,,---,0.00,0.00,VWS V14.01,2012-11-11 03:32:00,
2012-11-10 22:33:00,60.8,54.9,30.29,NE,49,0.0,3.0,81,0.00,,---,0.00,0.00,VWS V14.01,2012-11-11 03:33:00,
2012-11-10 22:34:00,60.6,55.1,30.29,NE,37,0.0,4.0,82,0.00,,---,0.00,0.00,VWS V14.01,2012-11-11 03:34:00,
2012-11-10 22:35:00,60.5,55.0,30.29,NE,37,1.0,4.0,82,0.00,,---,0.00,0.00,VWS V14.01,2012-11-11 03:35:00,
2012-11-10 22:36:00,60.5,54.7,30.29,NE,37,0.0,4.0,81,0.00,,---,0.00,0.00,VWS V14.01,2012-11-11 03:36:00,
2012-11-10 22:37:00,60.4,54.9,30.29,ENE,62,1.0,4.0,82,0.00,,---,0.00,0.00,VWS V14.01,2012-11-11 03:37:00,
2012-11-10 22:38:00,60.9,55.4,30.29,NE,37,0.0,4.0,82,0.00,,---,0.00,0.00,VWS V14.01,2012-11-11 03:38:00,
2012-11-10 22:39:00,60.3,54.8,30.29,NNE,25,2.0,4.0,82,0.00,,---,0.00,0.00,VWS V14.01,2012-11-11 03:39:00,
2012-11-10 22:40:00,60.3,54.8,30.29,NNE,25,0.0,4.0,82,0.00,,---,0.00,0.00,VWS V14.01,2012-11-11 03:40:00,
2012-11-10 22:41:00,60.3,54.8,30.29,NNE,26,1.0,4.0,82,0.00,,---,0.00,0.00,VWS V14.01,2012-11-11 03:41:00,
2012-11-10 22:42:00,60.2,55.0,30.29,NNE,26,0.0,4.0,83,0.00,,---,0.00,0.00,VWS V14.01,2012-11-11 03:42:00,
2012-11-10 22:43:00,60.6,55.1,30.29,NE,37,1.0,4.0,82,0.00,,---,0.00,0.00,VWS V14.01,2012-11-11 03:43:00,
2012-11-10 22:44:00,60.1,54.6,30.29,ENE,66,0.0,4.0,82,0.00,,---,0.00,0.00,VWS V14.01,2012-11-11 03:44:00,
2012-11-10 22:45:00,60.0,54.5,30.29,NE,49,2.0,4.0,82,0.00,,---,0.00,0.00,VWS V14.01,2012-11-11 03:45:00,
2012-11-10 22:46:00,60.0,54.8,30.29,NNE,20,0.0,4.0,83,0.00,,---,0.00,0.00,VWS V14.01,2012-11-11 03:46:00,
2012-11-10 22:47:00,60.0,55.2,30.29,ENE,68,1.0,4.0,84,0.00,,---,0.00,0.00,VWS V14.01,2012-11-11 03:47:00,
2012-11-10 22:48:00,60.3,54.8,30.29,ENE,61,0.0,4.0,82,0.00,,---,0.00,0.00,VWS V14.01,2012-11-11 03:48:00,
2012-11-10 22:49:00,60.1,54.9,30.29,ENE,68,0.0,4.0,83,0.00,,---,0.00,0.00,VWS V14.01,2012-11-11 03:49:00,
2012-11-10 22:50:00,60.1,54.9,30.29,ENE,70,1.0,4.0,83,0.00,,---,0.00,0.00,VWS V14.01,2012-11-11 03:50:00,
2012-11-10 22:51:00,60.1,54.9,30.29,ENE,70,0.0,4.0,83,0.00,,---,0.00,0.00,VWS V14.01,2012-11-11 03:51:00,
2012-11-10 22:52:00,60.1,54.9,30.29,NE,50,0.0,4.0,83,0.00,,---,0.00,0.00,VWS V14.01,2012-11-11 03:52:00,
2012-11-10 22:53:00,60.1,54.6,30.29,ENE,66,0.0,4.0,82,0.00,,---,0.00,0.00,VWS V14.01,2012-11-11 03:53:00,
2012-11-10 22:54:00,60.1,54.9,30.29,NE,35,1.0,4.0,83,0.00,,---,0.00,0.00,VWS V14.01,2012-11-11 03:54:00,
2012-11-10 22:55:00,60.2,55.0,30.29,ENE,65,2.0,4.0,83,0.00,,---,0.00,0.00,VWS V14.01,2012-11-11 03:55:00,
2012-11-10 22:56:00,60.1,54.9,30.29,ENE,64,0.0,4.0,83,0.00,,---,0.00,0.00,VWS V14.01,2012-11-11 03:56:00,
2012-11-10 22:57:00,60.1,54.9,30.29,ENE,61,0.0,4.0,83,0.00,,---,0.00,0.00,VWS V14.01,2012-11-11 03:57:00,
2012-11-10 22:58:00,60.1,54.9,30.29,ENE,68,0.0,4.0,83,0.00,,---,0.00,0.00,VWS V14.01,2012-11-11 03:58:00,
2012-11-10 22:59:00,60.1,54.9,30.29,ENE,61,0.0,4.0,83,0.00,,---,0.00,0.00,VWS V14.01,2012-11-11 03:59:00,
2012-11-10 23:00:00,60.1,55.3,30.29,ENE,61,0.0,0.0,84,0.00,,---,0.00,0.00,VWS V14.01,2012-11-11 04:00:00,
2012-11-10 23:01:00,60.1,55.3,30.29,ENE,61,0.0,1.0,84,0.00,,---,0.00,0.00,VWS V14.01,2012-11-11 04:01:00,
2012-11-10 23:02:00,60.1,55.3,30.29,ENE,61,1.0,1.0,84,0.00,,---,0.00,0.00,VWS V14.01,2012-11-11 04:02:00,
2012-11-10 23:03:00,60.1,54.9,30.29,NE,43,1.0,4.0,83,0.00,,---,0.00,0.00,VWS V14.01,2012-11-11 04:03:00,
2012-11-10 23:04:00,60.0,55.2,30.28,ENE,61,0.0,2.0,84,0.00,,---,0.00,0.00,VWS V14.01,2012-11-11 04:04:00,
2012-11-10 23:05:00,59.9,55.1,30.28,ENE,61,0.0,2.0,84,0.00,,---,0.00,0.00,VWS V14.01,2012-11-11 04:05:00,
2012-11-10 23:06:00,59.9,55.1,30.28,ENE,59,0.0,2.0,84,0.00,,---,0.00,0.00,VWS V14.01,2012-11-11 04:06:00,
2012-11-10 23:07:00,59.9,55.1,30.28,ENE,59,1.0,2.0,84,0.00,,---,0.00,0.00,VWS V14.01,2012-11-11 04:07:00,
2012-11-10 23:08:00,60.1,54.9,30.29,ENE,61,0.0,4.0,83,0.00,,---,0.00,0.00,VWS V14.01,2012-11-11 04:08:00,
2012-11-10 23:09:00,59.8,55.0,30.28,NE,44,0.0,3.0,84,0.00,,---,0.00,0.00,VWS V14.01,2012-11-11 04:09:00,
2012-11-10 23:10:00,59.8,55.0,30.28,NE,44,0.0,3.0,84,0.00,,---,0.00,0.00,VWS V14.01,2012-11-11 04:10:00,
2012-11-10 23:11:00,59.8,55.0,30.28,ENE,66,2.0,3.0,84,0.00,,---,0.00,0.00,VWS V14.01,2012-11-11 04:11:00,
2012-11-10 23:12:00,59.8,55.0,30.28,ENE,65,2.0,3.0,84,0.00,,---,0.00,0.00,VWS V14.01,2012-11-11 04:12:00,
2012-11-10 23:13:00,60.0,55.2,30.29,ENE,61,0.0,2.0,84,0.00,,---,0.00,0.00,VWS V14.01,2012-11-11 04:13:00,
2012-11-10 23:14:00,59.7,54.9,30.28,ENE,64,0.0,3.0,84,0.00,,---,0.00,0.00,VWS V14.01,2012-11-11 04:14:00,
2012-11-10 23:15:00,59.7,54.9,30.28,ENE,64,0.0,3.0,84,0.00,,---,0.00,0.00,VWS V14.01,2012-11-11 04:15:00,
2012-11-10 23:16:00,59.7,54.9,30.28,ENE,66,1.0,3.0,84,0.00,,---,0.00,0.00,VWS V14.01,2012-11-11 04:16:00,
2012-11-10 23:17:00,59.6,55.1,30.28,ENE,58,0.0,3.0,85,0.00,,---,0.00,0.00,VWS V14.01,2012-11-11 04:17:00,
2012-11-10 23:18:00,59.8,55.0,30.28,NE,45,0.0,3.0,84,0.00,,---,0.00,0.00,VWS V14.01,2012-11-11 04:18:00,
2012-11-10 23:19:00,59.6,55.1,30.28,ENE,58,0.0,3.0,85,0.00,,---,0.00,0.00,VWS V14.01,2012-11-11 04:19:00,
2012-11-10 23:20:00,59.6,55.1,30.28,ENE,72,1.0,3.0,85,0.00,,---,0.00,0.00,VWS V14.01,2012-11-11 04:20:00,
2012-11-10 23:21:00,59.5,55.0,30.28,ENE,61,0.0,3.0,85,0.00,,---,0.00,0.00,VWS V14.01,2012-11-11 04:21:00,
2012-11-10 23:22:00,59.5,55.0,30.28,ENE,64,1.0,3.0,85,0.00,,---,0.00,0.00,VWS V14.01,2012-11-11 04:22:00,
2012-11-10 23:23:00,59.7,54.9,30.28,ENE,64,0.0,3.0,84,0.00,,---,0.00,0.00,VWS V14.01,2012-11-11 04:23:00,
2012-11-10 23:24:00,59.4,54.9,30.28,NE,48,0.0,3.0,85,0.00,,---,0.00,0.00,VWS V14.01,2012-11-11 04:24:00,
2012-11-10 23:25:00,59.4,54.9,30.28,NE,53,3.0,3.0,85,0.00,,---,0.00,0.00,VWS V14.01,2012-11-11 04:25:00,
2012-11-10 23:26:00,59.4,54.9,30.28,NNE,27,0.0,3.0,85,0.00,,---,0.00,0.00,VWS V14.01,2012-11-11 04:26:00,
2012-11-10 23:27:00,59.4,54.9,30.28,ENE,77,3.0,3.0,85,0.00,,---,0.00,0.00,VWS V14.01,2012-11-11 04:27:00,
2012-11-10 23:28:00,59.6,55.1,30.28,ENE,58,0.0,3.0,85,0.00,,---,0.00,0.00,VWS V14.01,2012-11-11 04:28:00,
2012-11-10 23:29:00,59.3,54.8,30.28,NE,54,0.0,3.0,85,0.00,,---,0.00,0.00,VWS V14.01,2012-11-11 04:29:00,
2012-11-10 23:30:00,59.3,54.8,30.28,ENE,73,3.0,3.0,85,0.00,,---,0.00,0.00,VWS V14.01,2012-11-11 04:30:00,
2012-11-10 23:31:00,59.3,54.8,30.28,ENE,63,1.0,3.0,85,0.00,,---,0.00,0.00,VWS V14.01,2012-11-11 04:31:00,
2012-11-10 23:32:00,59.2,54.7,30.27,East,96,1.0,4.0,85,0.00,,---,0.00,0.00,VWS V14.01,2012-11-11 04:32:00,
2012-11-10 23:33:00,59.4,54.9,30.28,NE,48,0.0,3.0,85,0.00,,---,0.00,0.00,VWS V14.01,2012-11-11 04:33:00,
2012-11-10 23:34:00,59.2,54.7,30.27,ENE,69,1.0,4.0,85,0.00,,---,0.00,0.00,VWS V14.01,2012-11-11 04:34:00,
2012-11-10 23:35:00,59.3,54.8,30.27,East,97,2.0,4.0,85,0.00,,---,0.00,0.00,VWS V14.01,2012-11-11 04:35:00,
2012-11-10 23:36:00,59.3,54.8,30.27,East,100,3.0,4.0,85,0.00,,---,0.00,0.00,VWS V14.01,2012-11-11 04:36:00,
2012-11-10 23:37:00,59.3,54.8,30.27,ENE,57,1.0,4.0,85,0.00,,---,0.00,0.00,VWS V14.01,2012-11-11 04:37:00,
2012-11-10 23:38:00,59.3,54.8,30.28,ENE,71,1.0,3.0,85,0.00,,---,0.00,0.00,VWS V14.01,2012-11-11 04:38:00,
2012-11-10 23:39:00,59.3,54.8,30.27,NE,35,1.0,4.0,85,0.00,,---,0.00,0.00,VWS V14.01,2012-11-11 04:39:00,
2012-11-10 23:40:00,59.3,54.8,30.27,NE,56,3.0,4.0,85,0.00,,---,0.00,0.00,VWS V14.01,2012-11-11 04:40:00,
2012-11-10 23:41:00,59.4,54.9,30.27,ENE,72,2.0,4.0,85,0.00,,---,0.00,0.00,VWS V14.01,2012-11-11 04:41:00,
2012-11-10 23:42:00,59.4,54.9,30.27,ENE,64,1.0,4.0,85,0.00,,---,0.00,0.00,VWS V14.01,2012-11-11 04:42:00,
2012-11-10 23:43:00,59.4,54.9,30.27,East,85,0.0,4.0,85,0.00,,---,0.00,0.00,VWS V14.01,2012-11-11 04:43:00,
2012-11-10 23:44:00,59.2,54.7,30.27,ENE,69,1.0,4.0,85,0.00,,---,0.00,0.00,VWS V14.01,2012-11-11 04:44:00,
2012-11-10 23:45:00,59.4,54.9,30.27,NNE,26,1.0,4.0,85,0.00,,---,0.00,0.00,VWS V14.01,2012-11-11 04:45:00,
2012-11-10 23:46:00,59.4,54.9,30.27,NE,54,1.0,4.0,85,0.00,,---,0.00,0.00,VWS V14.01,2012-11-11 04:46:00,
2012-11-10 23:47:00,59.3,54.8,30.27,ENE,75,4.0,4.0,85,0.00,,---,0.00,0.00,VWS V14.01,2012-11-11 04:47:00,
2012-11-10 23:48:00,59.3,54.8,30.27,NE,35,1.0,4.0,85,0.00,,---,0.00,0.00,VWS V14.01,2012-11-11 04:48:00,
2012-11-10 23:49:00,59.4,54.9,30.27,ENE,61,1.0,5.0,85,0.00,,---,0.00,0.00,VWS V14.01,2012-11-11 04:49:00,
2012-11-10 23:50:00,59.4,54.9,30.27,NE,44,1.0,5.0,85,0.00,,---,0.00,0.00,VWS V14.01,2012-11-11 04:50:00,
2012-11-10 23:51:00,59.3,54.8,30.27,NE,53,1.0,5.0,85,0.00,,---,0.00,0.00,VWS V14.01,2012-11-11 04:51:00,
2012-11-10 23:52:00,59.3,54.8,30.27,East,85,3.0,5.0,85,0.00,,---,0.00,0.00,VWS V14.01,2012-11-11 04:52:00,
2012-11-10 23:53:00,59.4,54.9,30.27,East,85,1.0,4.0,85,0.00,,---,0.00,0.00,VWS V14.01,2012-11-11 04:53:00,
2012-11-10 23:54:00,59.3,54.8,30.27,NNE,17,0.0,5.0,85,0.00,,---,0.00,0.00,VWS V14.01,2012-11-11 04:54:00,
2012-11-10 23:55:00,59.3,54.8,30.27,ENE,75,0.0,5.0,85,0.00,,---,0.00,0.00,VWS V14.01,2012-11-11 04:55:00,
2012-11-10 23:56:00,59.3,54.8,30.27,ENE,75,0.0,5.0,85,0.00,,---,0.00,0.00,VWS V14.01,2012-11-11 04:56:00,
2012-11-10 23:57:00,59.3,54.8,30.27,ENE,66,1.0,5.0,85,0.00,,---,0.00,0.00,VWS V14.01,2012-11-11 04:57:00,
2012-11-10 23:58:00,59.4,54.9,30.27,NE,42,0.0,5.0,85,0.00,,---,0.00,0.00,VWS V14.01,2012-11-11 04:58:00,
2012-11-10 23:59:00,59.3,54.8,30.27,ENE,66,0.0,5.0,85,0.00,,---,0.00,0.00,VWS V14.01,2012-11-11 04:59:00,